GFSGBSN_500_spd_000.txt.gz
Wind_Speed
10 8 10 14 17 8 7 16 15 20 27 37 39 39 39 37 34 33 31 28 26 22 21 19 19 19 17 20 19 20 20 17 19 17 17 16 17 16 17 15 14 11 11 10 9 9 8
6 9 13 17 13 9 9 18 20 26 40 41 40 40 38 36 34 32 29 26 23 20 18 17 17 15 13 16 13 14 16 15 12 12 12 16 14 13 14 14 14 12 9 7 5 4 5
12 10 18 11 10 11 17 22 27 39 40 40 39 37 36 35 34 31 29 26 24 20 16 15 13 11 13 15 14 13 13 10 12 10 10 11 13 10 9 10 11 12 7 5 4 2 1
13 15 13 12 13 16 23 28 40 40 40 40 37 36 36 34 33 30 27 24 22 21 18 16 13 10 9 10 10 9 7 7 8 7 8 7 8 9 7 5 5 4 4 3 4 2 3
14 17 13 15 17 23 27 37 41 40 40 37 37 35 34 32 30 29 26 24 22 20 17 14 13 11 7 7 6 5 5 6 6 6 5 5 7 6 7 6 2 0 4 7 5 4 3
15 16 16 18 21 25 35 41 40 38 38 37 34 32 29 26 24 23 21 18 18 16 15 14 11 11 10 8 7 4 5 6 7 8 10 9 3 3 4 5 7 8 9 10 10 7 9
15 15 20 24 25 29 41 40 38 36 36 35 30 26 24 23 19 15 13 13 9 10 9 9 7 7 9 9 8 7 5 7 5 6 6 6 4 4 5 10 9 9 11 11 13 12 10
15 18 22 26 25 33 40 39 38 34 33 31 28 24 21 16 13 10 8 7 4 3 2 2 4 6 8 11 11 9 6 6 4 5 4 6 8 10 10 9 11 9 11 13 16 17 13
19 24 25 26 27 33 38 39 37 35 32 29 27 24 20 17 14 12 9 8 6 7 6 5 6 8 10 12 14 9 7 5 6 7 6 7 8 10 10 10 12 14 13 14 13 14 21
22 25 26 28 27 29 35 37 36 33 31 28 25 23 21 18 16 14 13 13 12 11 11 10 11 11 11 12 14 9 7 7 8 9 8 9 10 12 15 13 12 14 16 16 14 13 17
24 25 26 28 28 28 30 31 31 31 29 26 25 23 22 20 18 18 18 17 16 15 15 15 14 14 14 13 11 10 9 11 12 11 12 12 12 15 18 17 14 13 15 16 16 18 17
26 26 26 27 27 28 27 27 27 28 27 27 25 24 22 22 22 21 20 19 17 18 18 18 17 16 15 14 12 11 12 12 14 16 17 15 14 16 19 21 17 15 13 17 19 20 20
26 28 28 28 27 26 25 24 23 22 23 22 20 18 18 18 19 19 18 18 18 18 17 16 17 16 14 12 15 14 15 18 19 18 17 18 16 18 18 20 18 14 14 18 22 21 23
27 28 27 26 25 23 22 21 19 17 17 18 16 14 12 10 9 11 13 13 14 12 11 13 13 14 14 15 18 21 20 19 19 19 19 19 17 17 18 16 14 16 17 18 23 25 22
29 29 28 25 23 20 18 17 14 15 15 14 16 14 11 10 9 8 8 10 10 11 13 13 15 17 18 22 23 19 16 17 18 16 14 14 17 16 17 14 15 18 20 24 27 30 29
30 29 27 25 23 20 17 15 14 13 13 13 16 15 11 9 10 8 7 8 10 11 12 11 14 14 10 12 10 11 11 13 10 10 11 10 12 14 15 16 18 22 24 31 32 32 33
32 31 30 27 24 21 18 16 14 13 13 13 14 14 13 10 9 8 7 8 7 8 8 9 11 12 10 10 10 9 9 11 10 9 10 10 12 18 20 21 24 24 26 30 34 33 35
34 33 31 29 27 23 20 18 15 13 12 13 14 14 14 13 11 10 7 9 7 7 7 8 9 8 9 10 12 13 11 13 13 14 14 15 17 21 24 26 27 24 24 29 37 38 36
35 34 33 31 28 25 22 20 18 15 13 12 13 14 14 13 11 10 9 8 9 10 9 10 11 12 13 15 17 17 17 17 17 20 22 22 22 21 28 31 32 26 23 31 38 41 42
36 34 33 32 30 27 25 23 21 18 14 14 14 14 14 12 11 9 8 7 8 9 10 12 13 13 16 17 18 20 21 20 22 23 23 25 25 26 26 31 36 29 25 31 39 42 47
38 37 35 32 31 29 27 26 24 20 17 14 13 13 13 13 10 10 9 9 7 6 8 9 10 12 15 17 18 20 23 25 25 25 26 27 27 27 26 31 36 33 35 37 39 36 41
40 39 37 36 34 32 30 28 26 24 21 17 15 13 14 11 12 13 12 10 9 10 11 14 15 17 18 20 21 22 23 24 25 27 29 31 32 37 30 37 41 36 35 37 37 36 40
40 38 38 37 35 34 33 32 31 29 25 22 19 17 16 14 14 15 14 13 13 13 15 17 20 24 24 23 23 24 27 28 29 29 29 33 38 41 41 38 40 30 32 35 37 37 42
41 39 38 37 36 35 34 34 33 31 28 27 23 20 20 18 18 18 19 19 19 20 25 27 25 28 25 26 30 29 29 32 34 34 34 37 40 42 43 41 44 27 38 40 45 44 43
43 41 39 39 38 37 37 36 35 34 31 32 29 26 24 24 23 24 25 25 26 26 29 34 31 31 35 37 36 33 34 35 38 36 33 37 38 38 39 45 49 36 44 48 53 52 50
45 42 40 39 39 37 37 36 35 35 34 34 34 31 29 28 27 28 29 29 31 34 35 38 39 38 42 40 44 40 33 34 33 33 32 33 35 37 40 47 52 42 48 52 56 56 55
44 44 42 41 39 38 37 38 36 36 36 36 36 35 34 32 30 33 34 36 37 38 38 42 42 44 46 46 45 41 39 36 37 34 33 35 36 36 41 45 50 45 50 51 55 61 63
45 45 44 43 41 41 40 38 38 38 37 36 37 37 36 36 37 37 38 38 42 45 46 47 51 50 50 48 46 42 41 39 39 38 37 38 41 42 47 52 53 52 52 52 58 61 62
48 45 45 45 45 43 42 40 39 40 40 39 39 41 43 42 42 42 42 44 48 47 50 54 51 50 49 46 41 42 41 43 42 44 38 43 41 47 47 53 48 49 54 58 59 62 64

GFSGBSN_500_spd_003.txt.gz
Wind_Speed
9 9 9 8 18 9 7 10 12 21 21 20 22 26 33 36 37 36 34 32 29 27 25 22 21 21 20 18 16 17 17 16 18 19 16 14 14 14 15 16 14 13 14 11 10 8 8
11 9 12 11 13 9 9 10 14 18 21 25 30 33 36 37 37 34 31 27 23 22 20 18 17 16 15 17 13 13 13 14 13 12 10 11 10 11 10 10 11 12 11 10 7 5 5
8 13 13 14 10 11 10 15 18 24 31 35 37 38 39 38 35 31 28 23 19 18 16 14 13 12 12 14 12 12 12 12 12 10 8 5 7 8 8 8 8 6 7 6 5 5 5
14 13 20 14 9 12 15 20 27 34 37 38 39 39 38 35 31 29 27 24 21 16 15 14 12 9 7 7 9 9 10 9 7 8 7 4 4 7 7 3 6 4 3 2 1 2 3
13 17 15 11 12 16 22 27 36 38 39 38 35 34 34 32 30 28 26 23 20 19 17 15 13 11 7 5 5 5 5 5 5 6 6 6 6 5 6 6 2 2 2 5 2 3 4
18 16 13 15 15 22 29 35 37 39 37 35 34 34 32 31 29 27 25 23 21 19 17 15 13 11 8 7 3 3 3 4 4 4 5 5 6 7 8 7 3 4 7 7 5 6 6
17 17 18 18 21 25 36 40 40 39 36 35 35 34 31 29 27 24 23 21 18 16 15 12 10 8 7 7 5 2 3 5 3 2 3 4 4 3 4 6 5 5 7 9 11 8 10
17 16 19 24 24 32 38 39 40 37 36 34 33 31 29 25 21 19 18 12 11 8 6 5 4 2 4 5 4 3 2 4 4 3 1 4 5 5 5 7 8 7 8 9 13 14 10
18 19 23 26 28 36 39 39 38 37 34 32 28 25 23 21 19 16 13 11 9 8 5 3 3 4 6 6 7 5 3 3 4 4 5 7 8 8 9 9 11 9 10 11 10 15 12
20 21 24 27 33 40 40 40 37 36 34 30 26 22 22 20 17 15 14 11 9 9 10 9 9 9 8 9 10 6 4 4 4 5 7 10 10 12 12 11 11 13 14 13 12 12 12
23 26 28 29 34 40 40 40 38 36 34 31 28 25 24 22 19 18 16 16 15 14 16 15 15 13 12 12 10 9 7 9 10 12 12 12 14 15 17 17 13 14 16 15 13 14 15
27 28 29 30 34 37 39 40 37 35 33 31 28 27 25 23 21 21 20 20 19 19 21 20 17 18 17 14 13 11 10 12 14 15 15 15 17 18 21 22 18 16 16 14 14 16 19
29 29 31 32 35 37 36 38 37 35 32 29 28 27 26 25 24 23 22 22 22 23 21 20 19 18 17 16 12 10 13 16 19 20 19 18 18 20 23 24 23 21 16 16 18 18 21
31 30 31 33 33 35 36 35 34 33 32 31 29 29 27 25 24 22 20 19 19 18 19 19 18 15 13 12 13 14 17 20 19 19 20 20 19 20 21 20 21 18 15 17 21 23 23
32 31 32 34 34 33 32 33 31 30 31 31 29 26 23 20 17 13 11 11 11 14 14 14 14 14 14 18 17 19 16 13 14 16 16 15 14 15 16 17 18 18 19 22 26 29 29
33 34 34 34 33 31 30 29 28 28 27 26 25 23 19 15 13 12 10 9 8 8 10 12 13 11 13 12 6 7 9 9 9 11 10 10 12 13 13 15 18 20 25 28 30 33 34
35 36 34 33 31 29 27 25 23 21 22 22 23 22 18 13 12 12 10 8 6 6 7 8 8 7 9 10 7 7 8 9 9 10 10 11 14 17 17 18 21 23 27 31 33 34 36
37 36 36 34 31 28 26 23 21 19 19 20 19 19 17 16 13 11 9 8 8 6 6 6 5 7 8 9 10 11 13 13 15 15 14 15 18 20 22 22 21 25 28 32 36 36 35
38 37 36 33 31 29 26 23 20 19 17 16 16 16 17 17 14 11 10 9 7 7 8 6 6 7 9 12 14 15 17 19 19 21 20 20 21 23 25 25 22 23 28 34 38 40 40
39 38 36 34 33 31 28 25 22 20 17 17 16 15 14 14 12 10 8 7 8 8 7 6 6 8 10 12 14 17 18 19 20 21 22 23 23 24 26 29 25 22 27 35 39 40 43
39 38 37 35 33 31 29 27 25 22 19 17 14 14 14 13 11 9 9 9 9 7 5 3 5 8 11 15 17 17 18 19 21 23 25 25 24 25 27 30 33 28 31 32 35 33 38
40 40 38 36 34 32 31 29 27 25 22 18 15 14 14 14 13 12 11 10 9 9 8 7 8 11 16 19 22 24 24 24 24 26 29 29 31 33 28 37 40 31 30 37 35 32 38
42 40 39 37 35 35 34 32 30 29 27 23 19 17 17 17 16 15 14 14 13 13 12 13 16 20 23 23 22 20 24 28 31 32 32 33 39 43 39 36 38 26 31 36 37 37 41
44 42 40 39 37 36 35 34 32 31 31 28 24 22 20 19 19 18 17 17 17 17 16 18 21 25 28 30 30 31 32 33 36 39 38 40 42 44 44 41 40 22 35 41 43 44 43
46 43 41 40 39 38 37 36 34 33 32 32 29 27 25 23 22 22 22 21 22 22 22 23 25 29 31 33 36 36 37 41 43 39 37 38 39 43 42 44 45 30 38 42 45 48 46
45 44 42 40 39 37 36 35 34 34 34 33 33 31 30 28 27 27 28 27 26 28 29 30 31 32 35 39 43 43 45 45 46 41 34 37 39 40 39 45 47 38 46 49 53 54 55
47 45 43 41 39 37 36 36 35 33 33 33 33 33 32 32 31 31 31 32 33 34 35 36 37 40 44 45 46 47 49 49 47 41 37 36 40 39 40 45 46 44 50 51 53 57 58
46 45 44 42 39 38 38 37 36 35 34 34 35 35 35 35 34 34 35 36 37 38 39 40 44 46 50 49 49 50 53 50 45 41 37 36 38 36 42 43 43 46 53 55 58 60 60
49 46 45 43 42 39 39 39 39 39 37 37 37 37 37 37 37 37 36 37 40 43 44 46 51 52 55 50 47 50 50 47 44 42 32 38 36 39 43 44 44 48 56 58 60 61 59

GFSGBSN_500_spd_006.txt.gz
Wind_Speed
12 11 10 8 9 6 4 5 7 6 13 16 16 16 14 15 22 31 33 33 32 29 27 25 22 21 20 20 18 20 19 19 17 16 16 15 15 17 18 17 16 14 15 13 12 9 7
13 11 9 8 12 7 3 5 7 11 16 12 14 14 17 27 35 36 35 32 29 26 24 22 20 18 19 19 17 16 15 15 14 13 13 11 12 11 9 7 7 7 9 7 7 7 6
12 12 12 8 15 8 6 4 10 11 14 15 17 25 33 37 37 34 30 27 23 22 19 17 15 15 15 17 16 14 15 13 13 12 11 10 7 6 8 7 6 6 6 4 3 5 5
10 12 10 17 11 7 7 10 13 16 18 25 31 35 37 37 34 30 27 24 20 17 16 16 15 12 11 12 11 12 12 12 11 9 8 7 6 6 6 4 3 1 2 2 2 4 5
13 12 17 13 9 8 13 14 17 23 27 32 36 38 37 34 31 29 27 24 21 19 17 15 13 11 10 9 9 9 8 8 9 6 6 7 7 6 6 6 1 2 1 1 5 4 3
14 16 17 13 10 15 18 21 27 30 32 34 38 37 33 30 28 27 25 23 21 19 17 15 13 11 8 7 7 6 6 6 5 3 3 5 6 6 6 5 2 3 2 3 3 4 4
16 15 13 12 13 21 24 31 34 35 36 37 36 34 32 30 28 26 23 21 19 18 15 14 13 10 8 7 5 3 2 2 2 2 2 1 3 2 4 5 5 5 6 4 4 3 6
19 17 16 15 20 24 31 37 37 36 35 34 33 31 29 27 26 24 22 18 16 14 12 10 7 6 4 3 3 2 2 2 1 3 5 3 1 2 3 5 6 7 9 8 10 8 5
20 17 17 20 24 30 36 39 37 35 33 32 31 29 27 25 24 22 18 15 13 8 5 3 3 2 2 2 4 5 3 3 3 5 6 6 7 7 7 8 10 10 9 10 11 14 11
21 18 19 22 25 35 38 40 37 35 33 32 30 28 25 23 20 18 16 13 12 11 8 6 7 8 7 5 7 4 4 5 5 5 7 9 11 11 12 12 12 14 15 14 15 14 13
22 20 23 26 30 39 40 41 38 35 33 30 27 26 24 21 19 18 16 15 14 13 13 13 14 12 12 11 11 10 8 8 9 8 11 12 14 17 17 16 15 17 18 18 17 16 15
22 23 26 28 35 41 41 41 38 35 33 30 26 23 23 21 19 18 18 17 17 18 20 18 17 16 15 15 14 13 13 13 13 13 14 16 17 19 21 20 19 19 20 19 17 17 17
24 25 26 29 37 42 43 42 40 38 35 32 29 26 24 22 23 22 21 20 21 23 22 21 20 19 16 15 14 14 12 14 16 18 19 20 19 20 21 23 21 21 20 18 17 18 20
26 27 27 31 37 42 42 42 40 38 36 34 30 28 26 26 24 23 23 22 23 23 22 22 21 19 15 14 12 12 14 17 20 20 19 18 19 20 20 19 19 17 15 17 20 21 23
29 28 28 31 37 41 42 41 40 39 36 33 32 29 27 26 25 25 23 21 19 19 19 19 17 15 13 13 14 16 17 14 12 14 14 13 14 15 15 15 16 17 17 19 23 26 27
31 29 30 32 36 40 40 40 38 37 34 33 31 29 29 26 23 20 17 14 12 10 11 12 13 12 12 9 7 7 7 9 11 12 12 12 12 11 12 15 17 19 22 25 28 31 32
33 32 32 34 35 38 40 39 37 35 34 33 31 28 25 21 18 16 15 11 7 6 6 6 6 7 8 8 7 7 8 11 13 11 13 16 16 15 17 19 22 24 26 28 30 31 32
35 33 33 35 35 35 35 34 33 32 31 28 26 24 23 21 18 16 12 8 5 5 4 4 5 4 5 6 7 10 13 15 15 16 17 18 20 21 21 22 24 24 26 30 33 34 34
36 34 35 35 36 34 33 32 29 28 27 25 25 23 23 22 18 14 11 9 7 6 6 6 6 6 6 7 9 12 14 15 18 19 19 20 20 22 22 24 26 27 27 30 36 38 38
37 36 36 36 35 33 31 29 27 25 23 22 21 20 20 19 17 12 10 9 8 8 7 6 6 6 5 7 11 14 16 17 18 20 21 22 23 25 27 27 27 27 29 35 40 42 44
38 37 37 37 36 34 31 28 26 25 22 21 20 20 19 17 15 12 10 10 9 8 8 7 5 5 5 10 14 16 19 21 21 23 25 26 27 31 31 32 32 28 32 36 41 41 42
40 39 37 37 35 34 32 29 27 25 22 20 19 20 19 17 14 12 11 11 10 9 8 8 8 8 10 14 16 18 21 22 25 29 31 31 34 35 34 39 40 33 34 39 39 37 38
41 39 38 37 36 35 34 31 29 27 25 22 19 18 18 18 16 15 15 14 13 11 11 11 13 15 16 19 21 22 24 29 31 34 37 41 44 44 40 38 40 30 30 37 39 38 40
42 40 39 38 37 36 35 34 32 29 27 25 23 21 20 20 18 18 17 16 16 16 16 16 18 20 22 25 26 27 29 31 35 36 41 44 47 48 49 44 41 26 32 40 41 42 41
44 42 40 39 38 38 38 36 34 31 29 29 28 26 24 23 21 20 20 20 20 20 21 22 23 24 27 29 30 31 34 38 40 40 42 46 48 48 48 49 47 32 35 40 43 44 45
46 43 40 38 38 38 37 36 35 34 32 31 30 29 28 26 25 24 23 23 23 24 25 26 28 30 31 33 35 39 43 45 47 46 45 46 46 45 45 46 48 37 41 44 47 49 51
47 45 43 40 38 38 38 36 35 35 34 33 32 32 31 31 30 29 28 28 28 29 30 31 32 33 36 38 42 45 48 49 47 44 45 42 40 36 37 42 42 41 44 46 49 53 55
47 47 45 44 41 39 39 38 37 35 35 36 35 35 34 34 33 33 32 33 33 34 34 35 35 36 41 44 46 50 54 52 46 41 40 40 40 36 40 40 38 41 44 48 51 55 59
49 47 46 46 45 43 41 40 38 37 35 35 35 35 35 35 35 35 36 36 36 37 38 37 36 42 47 48 52 57 54 47 41 40 34 35 32 39 41 42 40 46 49 54 57 60 62

GFSGBSN_500_spd_009.txt.gz
Wind_Speed
16 14 11 12 11 8 2 1 6 6 7 10 12 15 12 8 11 12 18 26 29 32 32 31 30 28 26 25 22 21 22 21 20 17 15 16 18 18 16 16 15 15 14 13 11 10 9
16 14 12 12 8 6 3 6 1 7 8 15 13 9 9 11 15 27 33 36 36 34 31 27 24 24 25 26 23 22 20 19 18 15 13 13 12 11 9 10 12 12 12 10 9 9 7
15 14 12 12 8 8 2 6 6 8 10 10 12 11 12 24 36 39 38 36 32 28 26 24 24 23 23 24 21 21 19 18 17 16 13 12 11 10 9 9 10 9 8 9 10 8 5
13 11 13 11 13 7 3 5 7 9 7 11 13 21 32 40 40 38 34 31 27 24 23 23 21 20 20 20 18 17 17 16 14 13 12 10 10 8 8 6 6 4 3 2 1 4 3
12 10 11 15 14 5 6 8 9 11 13 19 27 34 41 39 36 33 31 29 26 25 23 21 20 19 18 16 15 14 13 13 11 12 10 9 8 7 6 5 4 2 1 2 2 4 5
15 10 16 15 9 7 10 11 13 21 27 31 35 39 39 37 34 31 30 28 26 25 22 20 17 16 15 13 12 10 10 9 8 7 7 6 7 7 6 5 2 1 3 4 4 4 4
13 13 15 11 9 12 12 18 24 28 33 34 39 38 36 32 31 29 28 25 23 22 20 17 16 13 11 11 9 7 6 6 5 3 2 2 2 2 3 3 1 2 3 4 4 5 8
12 14 16 14 15 16 19 26 29 32 35 37 35 33 32 32 31 29 26 24 21 19 17 14 12 9 8 8 6 3 2 3 4 4 2 2 1 1 2 3 4 5 6 8 8 7 9
14 16 14 14 18 21 28 31 31 34 37 36 34 33 32 31 28 25 23 21 18 14 11 8 5 3 2 2 2 3 2 3 4 5 5 4 5 6 7 8 9 9 9 10 11 12 11
16 18 17 18 22 26 33 34 34 36 37 36 34 32 30 27 25 22 18 16 13 10 7 4 3 2 2 3 4 4 4 4 6 6 6 6 8 10 10 11 13 14 14 13 13 15 15
19 20 20 21 24 32 37 37 36 36 36 34 32 29 27 25 22 18 14 13 11 9 9 8 7 7 9 10 9 9 8 9 9 9 10 11 12 13 14 15 16 18 17 17 16 17 18
20 22 21 23 27 37 40 39 36 34 33 32 29 27 24 22 20 17 14 13 13 13 14 11 11 12 13 13 13 13 11 12 13 13 14 15 16 17 17 17 17 19 20 21 20 18 19
21 21 22 24 29 39 42 40 38 35 33 31 28 25 23 21 19 17 15 15 17 19 17 17 17 16 15 14 14 14 15 13 13 15 17 19 20 19 19 19 19 19 18 20 20 19 19
24 21 22 25 30 41 43 41 39 37 34 32 28 25 23 22 20 17 17 18 20 21 21 21 19 18 16 16 13 12 12 13 15 17 17 15 14 14 15 17 16 16 16 16 18 19 20
27 23 24 26 32 40 43 43 41 38 36 32 29 26 24 22 20 19 20 20 20 20 18 17 17 16 13 11 11 11 12 13 9 9 10 10 10 11 11 12 13 14 15 17 20 22 23
29 26 27 27 33 39 43 45 43 40 37 35 33 30 28 24 22 21 21 21 17 12 10 10 10 10 9 9 8 5 7 8 8 9 10 10 11 12 13 14 16 18 20 22 24 26 27
31 29 28 29 33 39 43 44 43 41 38 36 33 31 28 25 23 21 19 14 10 8 4 6 6 6 5 6 6 6 7 8 10 11 12 14 15 16 17 18 19 21 23 25 26 28 31
31 30 28 28 31 39 41 43 43 41 38 36 34 30 28 25 21 18 15 12 10 7 4 3 4 3 2 2 3 5 8 10 11 13 14 15 16 18 19 20 22 23 25 28 30 32 33
33 31 30 30 32 35 40 40 40 40 38 35 33 30 26 22 18 16 13 14 12 9 8 7 5 4 3 2 3 5 7 10 12 14 15 17 17 20 22 23 24 26 28 29 32 36 35
34 32 31 30 31 32 35 38 39 38 37 35 30 26 22 20 19 17 15 14 12 11 9 7 6 4 2 1 3 7 10 11 12 14 17 20 22 24 26 28 29 31 35 37 40 42 45
35 33 32 30 31 33 33 34 34 34 33 29 26 24 23 20 20 19 16 14 11 10 9 7 5 4 3 3 6 10 13 16 19 22 24 27 27 29 31 33 34 32 35 39 42 42 43
35 34 34 32 31 33 34 34 33 31 29 26 25 24 22 20 20 19 17 14 12 11 10 8 6 6 7 9 11 15 18 19 22 25 31 35 37 39 37 39 38 30 32 36 40 40 40
36 35 35 34 33 33 34 33 32 30 28 24 23 23 22 20 20 20 19 16 14 13 12 11 11 11 12 14 17 19 21 23 24 30 35 40 43 45 42 41 40 32 32 36 38 37 40
38 36 35 34 34 35 35 33 31 29 27 25 24 22 21 21 22 21 19 18 17 15 15 15 15 15 17 19 21 22 24 26 29 33 38 42 46 47 47 44 42 28 34 37 37 35 38
38 38 36 35 35 36 35 34 33 30 29 27 25 23 22 23 23 22 21 20 18 17 17 18 19 20 22 24 25 26 28 31 33 36 41 46 46 46 47 48 46 27 31 32 36 35 38
40 40 38 36 36 36 36 34 33 32 31 29 28 27 25 24 23 22 22 21 20 21 21 22 23 24 27 28 29 30 30 33 36 40 44 44 42 41 43 45 42 33 36 38 40 40 44
42 41 41 39 36 36 35 34 34 33 32 31 30 29 28 28 26 26 26 26 25 25 25 27 28 29 31 32 32 32 34 37 40 44 42 40 42 39 39 40 34 35 37 39 43 47 51
45 42 43 42 39 36 35 34 34 34 33 32 33 32 32 31 31 31 32 31 31 31 32 32 33 33 34 34 34 37 39 42 47 48 43 39 43 38 38 35 36 38 41 44 46 49 53
46 44 44 44 43 40 38 36 35 34 34 35 34 34 34 34 34 35 35 34 35 35 35 35 34 35 36 37 39 44 47 50 53 54 44 39 36 39 40 37 40 42 45 48 50 55 57

GFSGBSN_500_spd_012.txt.gz
Wind_Speed
19 17 15 15 12 11 7 3 4 9 10 10 18 19 19 14 18 16 15 15 17 22 24 27 27 26 24 24 24 23 23 21 19 16 16 17 16 16 14 15 16 14 13 13 12 11 8
18 18 15 14 13 7 8 6 10 8 11 15 19 19 17 17 15 15 20 26 29 34 37 35 32 30 30 29 26 25 24 23 22 21 19 18 17 14 14 14 13 13 14 12 12 13 11
18 18 16 14 13 9 10 7 6 8 16 20 14 14 14 16 21 29 34 38 40 37 35 36 33 32 31 28 25 23 22 20 19 18 16 14 13 12 13 12 12 10 9 7 9 9 8
17 17 14 15 12 12 9 4 11 12 13 14 14 14 21 30 36 41 40 37 36 36 35 33 31 30 29 26 24 22 21 19 18 18 16 14 12 11 9 8 6 6 6 8 10 10 7
16 12 13 14 13 11 7 5 10 11 12 13 20 29 36 42 42 40 38 36 35 34 31 29 28 26 24 22 21 19 17 16 15 14 13 13 11 8 6 6 5 5 3 4 4 3 4
17 13 14 11 16 11 6 7 11 12 17 27 35 40 42 43 40 37 35 34 32 29 28 26 24 22 20 18 18 16 15 15 14 12 11 10 9 8 6 7 7 6 5 4 5 6 6
19 15 13 15 15 10 8 12 15 22 31 37 42 41 41 39 36 34 33 31 30 28 25 22 21 18 17 15 13 12 11 10 10 11 10 9 8 8 8 7 7 5 5 6 8 8 9
19 15 15 15 12 9 13 19 26 31 35 40 40 38 37 35 33 33 31 29 27 24 24 22 18 15 13 12 9 7 6 6 7 7 6 6 6 7 6 5 5 4 5 7 8 9 11
19 17 17 15 13 15 20 28 32 35 37 40 38 35 34 33 33 32 30 26 24 21 17 16 13 10 8 6 5 3 2 4 4 5 7 7 8 8 7 7 8 8 8 10 12 12 14
20 18 16 14 17 22 27 32 36 36 39 37 35 34 34 33 31 30 27 23 19 16 13 9 7 5 3 2 1 1 1 5 6 7 7 8 9 9 9 10 11 12 13 12 13 14 15
21 18 15 14 19 26 33 35 37 37 37 35 36 36 35 33 29 26 23 19 14 10 8 3 2 2 3 5 6 7 6 6 7 8 10 10 11 12 13 15 16 16 16 16 16 16 16
22 20 19 18 23 31 35 36 38 38 36 37 36 35 32 29 25 22 18 14 9 7 4 3 5 7 8 10 10 11 11 10 10 12 13 13 14 16 17 18 19 19 19 18 20 19 18
23 22 20 21 26 35 38 37 39 39 37 37 35 31 29 26 22 18 14 11 10 11 8 10 12 13 14 14 13 13 12 13 12 12 13 15 17 19 19 20 21 19 18 18 19 18 18
24 23 22 23 27 37 40 39 39 39 38 35 32 29 26 23 20 17 15 12 13 13 15 17 18 17 15 14 13 12 10 10 10 12 14 13 12 12 12 13 15 15 13 14 16 17 19
25 25 24 24 28 38 42 41 39 38 36 34 30 27 25 22 19 17 15 15 14 16 18 18 15 13 12 10 8 8 9 8 6 5 5 6 7 7 7 9 10 12 13 15 18 19 21
27 25 25 25 28 36 42 43 40 37 36 34 31 28 25 22 20 18 17 16 16 17 13 10 9 8 8 7 7 5 3 3 3 4 6 7 8 10 11 12 14 16 18 19 21 23 23
29 26 26 26 28 34 40 44 42 40 38 35 33 30 26 24 22 20 18 16 15 9 8 7 6 7 6 4 3 3 2 2 5 7 9 11 11 12 14 15 17 18 21 23 25 25 28
31 28 26 27 28 32 38 43 44 42 40 37 36 33 29 26 23 21 18 16 11 10 8 4 5 5 4 3 2 1 2 3 5 6 8 11 14 15 17 19 20 21 24 26 29 32 34
32 30 27 26 28 30 36 40 42 43 42 39 36 34 30 28 25 21 18 14 13 13 10 7 6 5 4 4 3 3 2 4 6 7 9 13 16 19 20 21 23 26 28 31 32 34 34
34 30 28 26 28 29 35 39 42 43 42 39 36 34 31 28 25 19 17 14 16 14 12 9 7 5 5 6 4 1 1 4 7 9 13 18 20 23 25 27 29 30 30 33 34 35 39
36 33 30 28 28 30 32 38 40 40 41 39 37 33 31 27 22 19 19 18 17 15 14 11 9 8 8 9 6 4 6 8 10 14 18 22 24 28 31 32 29 29 31 36 37 37 39
38 35 32 30 28 29 30 33 38 38 38 38 36 33 30 26 23 21 21 20 19 17 15 13 12 11 12 12 10 10 11 12 14 17 21 26 29 32 33 37 33 29 32 35 36 37 38
38 36 34 31 29 28 30 31 33 35 36 36 34 31 29 26 23 23 23 22 20 19 17 16 15 14 13 13 14 15 16 16 18 22 26 30 33 39 41 38 32 30 31 30 28 30 32
39 36 34 32 31 30 30 32 32 32 33 33 32 30 27 26 25 25 25 24 22 20 19 18 16 15 15 16 18 19 19 20 22 24 28 32 38 45 46 42 34 33 32 28 24 24 28
40 37 35 33 32 31 31 32 32 32 32 31 31 29 27 25 25 25 25 24 24 22 20 19 18 18 19 20 22 22 22 23 26 25 29 35 41 49 49 47 37 30 32 28 29 25 29
40 38 36 34 33 32 33 33 33 32 32 32 31 28 27 27 27 27 27 27 25 24 22 22 22 22 23 24 25 25 25 26 29 29 31 38 46 50 49 47 44 39 32 33 33 36 37
40 38 37 35 34 34 34 33 33 34 33 32 30 30 28 27 27 28 28 28 27 26 25 24 25 25 26 28 28 27 27 29 31 32 36 41 50 49 46 43 40 36 38 38 39 42 44
40 40 38 37 36 34 34 35 35 34 34 33 32 31 31 30 30 30 30 30 29 29 29 28 29 30 32 32 31 32 32 33 34 36 40 47 52 47 43 38 38 37 39 43 44 46 48
44 41 40 38 38 36 35 35 36 36 35 34 33 33 33 33 33 33 33 33 33 33 33 34 34 35 36 35 35 36 36 36 37 42 44 46 44 42 42 36 41 42 44 45 50 52 54

GFSGBSN_500_spd_015.txt.gz
Wind_Speed
24 22 20 19 18 16 13 12 9 6 9 17 19 18 18 18 18 18 16 16 17 18 16 16 19 23 22 20 23 26 27 25 24 21 21 18 14 11 11 12 12 14 14 13 13 12 10
22 21 21 19 18 14 12 12 11 14 15 15 16 19 18 23 20 20 18 17 17 20 23 26 27 25 25 27 24 24 21 18 16 17 16 18 20 17 18 17 15 12 11 9 8 9 9
21 21 20 19 17 12 11 12 12 14 13 16 18 21 22 16 17 18 18 22 24 27 29 28 28 28 27 28 25 25 23 22 21 21 23 19 17 18 16 14 11 10 8 5 5 7 7
20 19 18 20 17 13 13 11 8 13 16 13 17 14 18 20 20 25 28 33 38 38 37 36 35 33 31 28 27 24 22 20 18 17 18 15 15 15 15 12 10 8 5 4 6 8 7
19 18 16 18 16 14 13 9 13 11 18 18 20 18 22 27 32 36 41 41 41 40 37 35 33 31 29 26 24 23 21 20 18 16 15 14 13 12 11 9 6 3 1 6 7 9 9
18 16 16 16 16 14 11 14 16 17 16 17 22 27 34 39 41 40 40 40 38 37 35 33 31 29 25 24 23 21 19 17 16 14 13 12 11 9 6 5 3 11 7 7 9 9 8
18 16 16 16 14 14 9 14 17 16 18 27 32 38 41 40 39 40 39 37 34 33 29 28 25 22 22 19 16 15 14 14 14 13 12 10 9 10 8 7 10 10 9 10 12 10 10
18 17 17 17 13 14 11 17 19 23 31 36 40 41 40 38 38 38 36 34 32 28 25 24 21 19 17 15 13 11 10 10 10 10 9 8 9 10 9 9 9 9 10 11 10 10 12
19 18 18 18 15 12 17 20 28 36 39 41 41 40 37 36 35 34 32 28 28 24 23 21 18 15 13 11 8 6 6 7 8 8 9 10 9 9 8 10 11 12 13 11 12 12 12
19 20 19 18 15 15 20 29 36 42 42 41 40 37 35 34 33 32 30 28 26 23 20 15 13 10 8 6 4 4 2 4 6 8 8 9 10 11 12 13 13 15 14 15 14 14 10
21 21 20 17 16 19 26 34 41 43 42 39 38 36 35 34 34 31 28 24 21 18 15 10 7 5 3 1 1 2 2 3 5 7 8 9 10 11 13 14 15 17 17 17 17 18 17
22 22 21 19 20 24 32 38 42 42 40 38 37 36 35 34 31 28 24 20 15 13 8 6 2 1 3 5 6 7 7 7 8 9 11 13 14 15 17 18 20 21 20 19 19 19 18
24 22 21 21 24 29 36 42 43 42 40 37 36 35 34 32 29 24 20 15 11 6 3 3 5 7 10 11 10 9 9 9 10 11 11 12 14 16 17 18 18 19 18 16 16 15 12
26 24 22 23 29 34 39 44 45 42 39 37 37 36 34 31 27 22 17 13 9 6 8 10 12 14 14 12 11 10 10 9 9 9 11 13 11 11 10 10 10 10 11 11 13 15 14
27 25 23 25 31 38 41 44 45 41 38 38 37 36 32 28 23 20 16 13 9 10 12 14 14 13 11 10 9 7 7 7 7 6 6 6 7 7 8 9 10 10 11 13 15 17 19
28 25 23 26 30 39 42 43 44 41 39 38 36 33 29 25 22 19 15 13 13 13 13 13 11 9 8 6 6 5 5 4 4 4 4 5 7 9 10 11 12 14 15 17 17 21 21
29 26 25 27 31 40 44 44 44 42 40 38 36 32 28 25 22 19 17 15 14 13 11 8 8 7 7 6 5 5 5 5 4 3 3 4 7 9 10 12 14 15 17 19 22 22 25
31 27 25 26 30 39 44 45 44 43 41 39 35 32 29 26 24 20 19 16 14 13 9 7 5 6 6 6 6 7 6 4 1 1 3 4 6 8 11 14 16 18 22 24 24 27 29
33 30 26 26 29 35 42 45 45 43 41 39 37 33 30 28 24 21 20 18 16 13 11 9 6 6 7 8 8 7 6 4 3 2 2 5 7 11 15 17 21 24 25 26 29 30 28
34 32 28 26 28 33 38 42 45 45 43 40 37 35 33 28 25 23 22 20 17 15 14 10 9 8 9 9 9 8 7 5 3 2 6 10 14 16 18 24 31 33 31 32 34 33 35
35 33 31 28 28 30 36 39 42 44 43 41 39 36 32 29 28 25 23 20 19 17 16 14 12 11 11 12 11 9 8 7 6 8 12 14 17 19 21 27 32 34 32 33 34 34 35
38 36 33 31 29 29 31 38 39 41 41 41 39 36 34 30 29 26 24 21 21 19 17 17 17 16 16 15 14 12 12 11 11 13 16 19 21 23 23 28 36 34 36 36 33 32 31
40 37 34 32 30 29 29 32 37 39 41 41 39 37 36 32 29 27 24 23 23 21 20 21 20 19 18 17 16 16 16 15 15 17 20 24 25 28 28 34 38 42 36 35 32 33 29
41 38 35 33 31 29 29 29 32 37 38 38 38 37 35 32 29 28 27 27 26 25 24 23 22 21 20 19 19 20 19 19 19 21 24 28 31 33 36 40 43 47 38 33 31 27 29
42 39 36 34 32 31 29 29 30 33 36 37 37 36 35 32 30 30 29 28 27 27 27 25 24 23 23 22 22 22 22 21 23 24 28 32 34 37 40 44 47 39 35 33 30 27 30
43 40 36 34 33 31 30 30 31 32 33 35 36 35 34 33 32 32 30 29 29 29 29 27 25 25 26 25 24 25 25 25 27 28 31 34 36 39 43 48 48 43 38 33 33 33 35
44 41 38 34 34 33 32 32 33 32 33 33 34 34 34 34 33 34 33 31 30 31 29 28 28 28 28 27 27 28 28 29 32 33 34 37 38 39 46 48 46 42 38 36 37 40 42
43 42 41 37 34 33 34 33 32 32 33 34 33 34 35 33 33 34 34 33 32 31 31 30 31 30 30 31 31 31 32 33 35 36 37 38 39 41 46 47 48 43 41 40 39 41 47
42 41 40 38 37 34 34 34 34 35 35 35 35 34 34 35 34 34 34 33 33 33 32 34 33 33 34 34 35 36 36 37 38 38 38 37 39 42 49 46 42 45 44 46 46 48 51

GFSGBSN_500_spd_021.txt.gz
Wind_Speed
40 39 39 31 33 26 28 24 21 21 20 19 17 20 21 18 15 16 19 13 11 10 12 14 16 17 18 12 13 19 22 26 29 30 30 27 23 16 17 24 18 25 13 12 20 18 11
37 39 37 34 31 25 26 23 21 20 20 19 18 14 18 18 16 17 17 19 15 15 15 16 17 17 18 15 17 22 27 31 33 34 35 30 21 11 14 18 12 8 7 10 9 8 6
34 35 37 29 22 23 23 21 20 19 18 21 19 20 17 18 16 13 15 19 17 16 16 18 19 18 18 19 24 29 32 31 28 30 31 24 27 24 17 11 13 13 12 12 10 7 2
35 36 34 29 21 24 21 19 18 17 18 22 20 21 19 16 14 17 19 18 16 16 16 17 20 16 18 21 26 29 23 20 10 7 10 12 18 16 19 16 12 10 7 9 9 4 1
39 35 31 25 23 22 18 18 16 17 18 13 14 11 15 18 19 19 19 17 16 17 19 21 21 19 22 26 20 19 18 18 20 18 19 19 15 15 18 17 15 11 9 6 10 7 2
34 28 25 22 23 19 18 16 15 17 15 14 11 12 15 25 23 20 15 17 20 22 24 24 23 24 22 22 21 18 19 20 22 20 19 20 18 19 16 16 12 12 6 7 14 4 3
28 23 25 21 22 18 19 13 14 10 11 2 19 11 12 20 21 19 22 23 25 25 24 27 28 22 25 22 21 20 20 19 18 21 20 21 21 19 14 2 3 14 15 14 13 2 3
21 26 23 22 20 19 15 15 11 13 11 14 16 13 14 20 23 27 31 33 34 29 27 24 26 23 20 18 17 16 17 16 15 19 21 17 9 10 8 8 6 14 14 16 10 5 8
22 26 22 23 20 20 17 18 15 18 16 15 16 19 25 28 31 33 32 31 32 28 25 24 23 21 18 16 17 15 13 12 15 17 17 12 11 8 7 5 7 13 13 13 14 9 7
24 27 25 23 21 20 20 17 19 21 18 19 24 30 32 34 34 33 31 31 30 27 24 21 20 19 18 16 14 12 11 10 11 13 9 7 7 7 9 5 10 10 7 12 13 13 12
24 29 28 23 23 22 23 19 26 22 23 29 33 36 38 37 35 34 33 30 28 25 25 22 19 17 15 13 13 11 10 10 9 9 8 6 6 6 5 7 11 10 12 13 15 15 14
27 32 28 25 24 25 22 25 28 25 33 37 39 40 39 37 35 34 30 28 27 24 20 20 17 13 12 11 9 8 8 9 10 10 5 8 7 9 10 11 13 15 16 17 19 19 15
34 31 28 27 27 27 26 28 29 34 41 42 40 39 37 35 33 31 30 27 23 17 18 16 13 10 8 6 6 6 7 9 8 9 8 8 9 10 10 9 11 11 11 11 10 8 11
37 33 29 28 29 28 29 30 34 43 45 43 40 39 37 36 33 31 28 25 20 18 15 13 9 5 5 6 7 9 10 9 8 10 9 9 10 6 5 4 4 6 6 7 6 9 8
40 34 31 30 29 30 30 35 41 47 47 43 40 40 38 36 34 31 26 23 19 14 11 6 5 6 5 7 7 7 5 9 10 8 6 2 3 2 2 4 5 6 8 9 9 9 9
41 34 32 33 31 32 35 41 46 49 47 43 41 40 38 36 33 30 25 21 16 7 5 4 6 6 6 7 8 8 8 9 9 7 6 2 2 2 2 3 5 7 9 11 12 13 9
39 35 34 34 33 35 40 45 50 49 48 44 41 40 39 36 33 29 24 18 11 8 5 7 7 5 4 8 9 9 9 9 9 7 5 3 2 2 4 5 5 9 13 16 18 19 17
39 37 35 33 34 37 43 48 51 50 48 44 41 40 38 36 31 26 22 17 10 9 7 8 5 6 6 9 8 8 9 9 7 6 5 5 4 4 2 2 7 10 14 17 21 22 23
40 38 36 33 36 40 45 50 52 49 46 44 41 41 40 36 31 27 22 12 11 10 8 7 6 5 7 8 8 10 9 9 9 8 8 5 3 1 4 4 6 12 18 23 27 29 23
41 40 38 34 37 41 46 51 52 50 46 44 43 42 40 35 32 27 20 15 13 11 9 7 8 8 8 10 10 11 11 11 11 10 7 4 5 7 8 9 13 18 21 25 30 33 32
43 41 40 36 38 42 46 50 52 50 48 45 44 41 38 34 30 25 20 18 13 11 11 9 12 11 11 11 11 12 12 12 12 10 8 7 8 11 13 15 18 21 23 26 29 32 34
44 41 38 36 38 42 46 50 51 51 49 45 43 42 39 36 30 27 24 20 15 14 12 11 14 15 12 14 12 12 13 12 13 12 11 11 12 15 16 17 20 22 24 27 28 32 33
44 41 38 36 38 43 45 48 51 51 49 47 44 43 41 35 32 30 23 21 21 16 16 15 18 18 12 11 13 14 18 18 18 16 15 16 17 19 19 21 24 26 27 29 32 34 38
45 41 38 36 36 41 44 46 49 51 50 47 43 40 38 36 34 30 26 26 24 18 20 16 17 16 15 19 21 19 20 21 20 19 19 20 21 23 23 25 27 31 32 32 34 37 38
46 42 39 36 35 37 38 42 47 49 49 47 47 43 40 39 37 34 31 30 27 21 21 16 18 22 23 21 22 22 22 23 22 24 22 23 26 27 28 29 31 34 36 35 38 38 39
46 42 40 35 34 33 36 38 39 44 46 48 47 44 43 41 39 37 35 33 29 25 24 21 22 26 25 24 25 25 26 27 27 26 26 27 29 30 32 34 37 40 41 42 42 40 43
46 43 40 38 34 33 33 34 37 38 42 44 45 44 43 41 40 39 38 35 32 30 29 27 27 27 27 28 28 29 29 31 31 29 30 32 33 34 35 38 40 41 45 45 43 44 46
47 43 41 38 35 33 31 31 32 33 38 40 42 42 41 40 40 41 39 38 36 35 31 30 31 30 31 32 32 31 33 33 34 33 32 35 36 36 39 41 42 44 47 46 44 46 47
46 44 42 39 36 34 33 30 30 31 33 35 38 41 42 41 41 42 41 41 38 38 35 34 35 33 36 34 33 35 36 35 34 36 36 38 39 40 41 42 42 48 50 49 48 49 49

GFSGBSN_500_spd_024.txt.gz
Wind_Speed
51 46 42 39 42 36 35 34 32 26 25 23 22 21 17 19 18 16 17 14 14 8 10 14 15 13 11 13 15 18 19 23 29 34 38 34 34 34 25 15 18 17 19 16 16 19 16
51 40 38 39 39 32 34 37 29 26 23 21 22 20 16 12 16 14 16 18 13 13 14 16 15 13 14 15 20 26 30 34 37 36 40 37 34 34 29 22 26 24 16 18 16 15 6
46 37 38 39 31 28 32 29 25 25 22 21 20 18 16 14 17 17 15 17 21 14 17 16 16 16 13 17 22 27 31 37 39 38 38 37 41 42 33 21 26 21 15 15 12 9 7
41 38 35 40 33 34 31 25 25 22 20 19 15 20 26 22 19 16 13 16 18 16 18 18 17 14 16 21 22 25 33 35 28 34 29 31 28 25 25 23 20 17 17 18 13 8 7
36 34 36 38 35 32 27 26 24 21 19 18 18 17 12 17 16 16 16 15 16 17 16 15 14 16 16 20 23 18 22 22 11 19 26 15 18 19 18 18 17 14 19 15 11 7 2
33 31 35 37 29 28 24 27 22 20 19 16 17 14 11 16 14 17 15 20 19 14 14 14 18 17 17 20 19 19 16 15 15 15 14 20 19 25 23 20 17 14 16 12 11 7 2
30 31 35 31 31 25 27 23 20 18 13 3 12 10 15 19 20 16 19 14 16 18 17 19 22 22 26 23 21 20 19 20 21 23 26 28 28 25 23 15 11 6 5 6 6 4 0
32 33 33 28 27 25 25 20 19 15 10 9 13 10 10 17 21 16 19 20 23 25 22 21 22 24 22 25 23 22 24 23 24 26 25 23 21 22 20 15 10 13 10 8 2 6 7
35 35 30 26 26 27 22 19 19 16 12 11 11 12 14 17 20 20 21 23 24 23 23 22 23 22 23 22 21 20 20 23 24 21 20 21 18 18 14 9 11 17 15 11 11 8 9
38 33 28 25 28 26 22 21 20 17 14 13 14 15 17 21 22 24 28 29 28 27 27 23 22 21 21 17 17 16 15 16 17 16 16 12 14 12 8 7 7 7 10 13 15 13 14
39 32 24 26 30 25 23 23 22 20 16 14 16 19 25 29 33 33 32 31 29 29 28 26 22 22 21 18 18 18 17 15 14 12 16 9 10 9 9 10 9 9 12 13 16 15 14
39 28 27 32 32 26 25 27 23 22 18 17 23 30 34 35 34 33 32 30 29 28 25 24 22 20 17 16 14 14 16 16 14 13 12 13 12 10 9 10 11 12 13 16 18 18 19
37 29 30 38 33 29 28 29 25 25 20 25 34 38 38 36 34 33 31 29 27 25 24 21 18 17 15 15 13 14 13 13 11 12 13 12 12 11 10 10 11 9 8 8 10 11 12
37 31 35 40 32 32 32 30 29 27 24 35 40 41 39 37 36 33 30 28 23 24 22 20 17 15 14 12 13 14 14 14 13 13 12 11 12 9 8 7 4 4 4 5 6 6 10
37 34 40 39 34 34 35 31 32 31 33 41 43 41 39 38 36 33 31 25 22 21 20 16 14 13 12 14 15 14 12 14 15 13 9 9 9 7 5 4 2 1 1 2 3 6 11
38 38 42 39 36 35 35 32 36 34 41 45 44 42 40 39 36 34 30 25 20 17 13 9 9 10 13 14 13 14 15 13 12 10 9 9 8 6 5 5 4 3 5 7 8 7 11
39 40 44 40 37 37 36 36 38 40 47 48 46 44 42 39 37 34 29 25 19 13 10 8 5 7 10 13 13 12 13 12 11 10 9 9 8 7 8 7 4 4 5 6 9 12 14
40 43 45 40 39 38 36 39 41 46 51 49 47 45 43 40 37 32 28 24 17 14 9 5 3 5 8 10 8 9 12 13 13 13 11 9 9 10 8 6 3 3 6 9 12 14 17
40 45 45 40 40 37 39 40 45 50 52 49 47 45 43 40 37 32 28 24 18 12 7 4 4 5 8 8 10 13 14 15 15 14 13 12 11 7 5 6 7 8 10 14 16 18 22
43 46 42 40 39 38 40 42 47 51 53 50 48 46 44 41 36 33 29 21 16 12 8 6 8 7 8 10 13 15 16 15 14 14 13 11 9 7 6 7 10 13 16 18 19 21 20
44 46 41 39 38 39 41 44 49 54 54 51 48 46 42 39 36 33 27 20 17 12 9 8 9 9 10 11 13 14 15 14 15 15 13 11 10 10 9 10 12 14 17 21 23 25 26
47 43 40 40 38 39 43 48 52 55 54 50 47 46 43 41 38 32 25 21 16 14 11 10 10 10 9 8 10 13 14 14 15 16 14 14 13 13 14 16 17 19 20 23 25 26 28
50 43 40 40 36 40 43 49 53 55 54 52 48 45 44 41 37 33 28 24 19 17 14 11 9 11 12 10 13 17 17 20 20 20 19 18 18 19 18 21 22 22 24 27 29 30 30
49 43 41 40 36 40 43 49 54 55 53 52 47 45 42 40 36 34 29 25 23 19 17 14 12 12 13 19 18 18 18 20 22 21 22 21 22 22 23 25 26 27 27 30 33 30 32
49 45 42 40 37 40 43 48 53 55 53 52 49 44 42 40 39 37 33 33 27 21 19 17 15 15 18 22 20 20 20 21 22 24 26 26 27 27 27 28 29 30 32 34 34 33 36
49 46 43 39 38 39 41 45 50 52 52 51 49 46 44 43 42 39 37 34 29 24 23 22 20 18 20 23 25 24 25 24 25 26 26 28 29 30 30 33 33 33 35 37 37 36 38
50 46 43 39 37 38 37 42 46 48 50 51 49 46 44 42 41 40 38 36 32 28 27 26 25 23 23 25 26 28 29 29 29 28 27 30 33 34 33 36 36 37 39 41 39 40 43
50 46 43 39 37 37 39 38 41 45 49 49 47 45 44 43 42 41 39 37 35 32 31 30 30 28 29 28 30 31 33 33 32 32 31 34 36 34 36 36 39 40 42 42 42 44 46
49 45 43 39 35 36 36 38 38 42 45 45 45 45 44 43 43 42 42 40 38 37 36 37 36 34 35 33 33 34 35 36 36 36 34 35 37 37 37 38 40 43 44 44 45 48 48

GFSGBSN_500_spd_027.txt.gz
Wind_Speed
51 49 49 49 49 45 48 44 35 31 32 27 25 25 24 22 20 24 22 20 16 14 12 12 10 13 15 16 16 16 18 19 20 24 34 34 30 31 28 23 25 17 16 17 14 10 12
54 50 50 51 50 47 48 44 31 30 33 24 25 24 22 22 19 16 18 17 16 16 14 11 15 13 15 15 16 18 21 27 31 31 39 36 37 31 22 19 17 16 10 9 13 7 11
55 53 52 50 52 46 45 42 32 31 26 23 23 23 23 20 15 15 16 15 17 16 14 13 15 15 14 13 17 21 25 29 31 38 37 35 30 26 19 15 20 9 12 9 8 10 8
53 55 52 50 48 45 44 39 31 30 23 23 23 22 20 21 21 17 16 16 17 20 16 16 15 13 12 15 19 25 29 32 39 41 35 29 30 24 21 17 14 16 12 12 12 12 12
53 55 51 50 46 45 41 38 28 24 23 24 22 20 20 22 24 21 17 16 16 20 16 16 13 12 13 18 19 27 31 37 40 41 39 35 33 26 20 13 15 16 19 15 13 12 9
55 53 50 45 46 44 40 34 27 23 24 23 21 20 18 14 15 17 17 15 16 15 14 13 13 14 18 23 24 30 27 32 36 35 32 30 31 29 21 20 21 21 20 17 15 8 7
54 50 47 40 41 39 39 30 25 24 23 22 20 19 14 14 16 17 17 18 19 16 12 12 16 18 20 20 26 31 25 24 18 27 24 18 25 28 28 24 20 20 25 15 15 9 6
54 50 36 38 40 37 38 26 23 23 20 18 13 13 14 17 18 21 20 19 17 16 15 19 19 20 20 20 24 26 25 25 22 24 27 29 30 26 23 21 18 16 21 9 6 2 6
48 44 33 35 35 37 32 23 23 22 18 15 11 14 12 24 21 19 10 18 18 18 21 22 22 21 19 19 22 24 25 27 28 32 30 27 27 29 23 17 15 14 12 11 8 8 10
48 39 33 32 34 37 27 24 23 21 18 15 13 12 14 12 15 15 18 19 21 21 21 22 22 21 21 22 22 24 26 29 28 25 23 21 19 21 18 14 12 11 12 13 12 14 20
46 40 32 32 33 34 25 26 24 24 19 18 18 15 15 14 17 21 23 24 24 25 26 25 24 24 23 23 23 22 23 21 17 15 15 14 12 16 17 15 12 11 12 13 14 15 19
49 42 38 34 39 30 28 28 27 26 22 21 17 17 17 22 25 27 29 29 28 27 25 26 24 24 23 22 21 21 21 19 17 14 14 18 15 15 14 12 10 10 11 14 17 19 23
53 46 43 40 38 31 32 28 30 28 22 21 18 20 27 31 33 34 32 29 28 28 26 24 23 22 20 20 18 18 15 15 15 15 16 20 17 15 14 13 12 13 15 16 17 17 19
57 53 48 43 38 36 35 31 32 29 24 20 23 32 35 36 35 33 31 30 28 26 26 25 22 20 18 17 15 16 15 15 15 16 17 17 14 13 13 10 9 9 9 10 10 9 11
58 54 48 44 41 38 36 35 36 29 27 26 33 40 39 36 35 32 32 30 28 27 24 20 20 17 15 15 15 14 15 15 17 16 15 14 13 12 10 8 8 6 6 5 4 5 7
55 53 50 45 43 41 38 39 38 31 30 33 44 42 39 38 36 34 31 29 25 23 20 18 16 14 14 15 15 15 16 16 16 14 13 14 11 10 10 10 8 7 4 3 1 3 7
56 52 47 44 45 42 41 41 39 34 34 40 48 44 41 40 37 35 33 26 24 22 19 16 13 13 14 16 17 17 17 15 15 14 15 15 13 12 12 11 9 7 5 2 3 7 10
58 50 47 45 44 43 42 42 39 39 39 47 50 46 43 42 39 36 34 27 24 19 14 10 8 9 12 13 14 15 17 17 17 16 17 15 13 14 13 11 7 5 5 6 8 11 14
56 49 46 46 44 43 42 42 40 43 44 51 51 47 44 42 39 37 32 27 22 17 13 7 6 8 12 12 14 16 17 18 19 18 17 16 15 15 12 12 10 10 10 12 13 14 14
54 49 45 45 43 43 43 42 41 44 47 55 53 50 46 42 39 36 33 27 21 17 12 8 6 9 11 13 16 17 17 18 18 17 16 17 16 14 12 11 11 12 13 14 15 17 17
52 45 44 44 43 42 42 42 42 45 51 57 54 50 44 43 40 37 33 27 21 17 12 10 7 10 9 11 13 15 16 17 17 17 18 17 16 15 13 13 15 15 17 18 20 21 22
48 45 42 44 43 42 41 40 42 47 54 56 53 50 46 42 40 38 33 27 22 18 12 10 8 10 10 9 11 15 17 18 19 18 20 19 18 17 16 17 18 19 21 25 25 26 27
44 43 42 43 41 41 40 39 43 51 57 57 53 49 46 44 42 39 33 27 24 18 14 12 10 8 12 12 13 16 18 20 21 21 23 22 21 21 21 22 24 22 24 28 28 27 30
41 42 45 41 39 40 38 39 44 52 57 56 53 49 47 44 42 38 34 30 26 20 17 14 11 9 13 16 17 16 17 19 21 22 24 25 25 27 26 27 30 25 27 30 32 31 33
39 44 42 38 39 36 36 39 45 54 57 56 52 48 45 43 41 41 36 31 28 23 19 17 15 13 14 19 20 19 18 20 21 24 26 28 30 31 33 32 35 30 30 34 36 35 35
38 43 39 36 37 31 35 39 46 54 55 56 53 48 46 44 43 40 37 35 31 26 22 21 20 17 16 17 21 22 23 22 23 24 26 30 33 35 36 38 38 34 34 37 39 37 38
38 42 38 34 33 30 34 39 45 51 52 55 52 50 46 45 43 41 39 37 33 29 25 24 23 22 21 20 20 22 25 27 27 26 26 31 33 36 38 40 40 36 38 39 40 42 41
42 42 38 34 32 28 33 37 42 46 50 52 51 50 48 45 43 41 40 38 35 34 31 29 28 27 28 27 26 26 28 28 29 31 31 33 36 35 37 39 41 39 40 41 42 43 44
44 42 38 34 33 30 30 35 40 44 48 50 49 49 48 46 42 41 41 40 39 37 35 35 33 31 32 32 33 33 35 35 35 36 34 37 37 38 38 38 40 42 43 43 45 45 44

GFSGBSN_500_spd_030.txt.gz
Wind_Speed
52 50 48 48 48 45 46 46 46 43 47 46 37 37 27 21 23 22 22 25 23 21 17 13 12 11 15 15 15 15 16 13 14 14 21 26 28 29 31 30 27 26 17 8 8 6 3
54 52 48 48 47 46 45 46 47 43 46 44 37 34 23 20 21 24 21 18 18 18 17 12 11 9 15 17 15 14 14 15 13 19 30 28 28 29 31 28 27 16 11 8 7 5 1
57 53 50 46 46 47 46 46 43 41 46 41 35 28 21 21 23 20 16 14 16 17 15 14 11 15 15 13 14 13 12 12 17 28 33 30 27 27 24 19 14 14 12 7 6 9 7
58 53 50 49 45 45 47 47 44 42 46 40 33 24 21 21 21 18 20 15 18 17 18 16 14 14 14 13 13 12 16 20 26 36 31 30 25 17 13 11 12 4 7 7 6 9 13
57 55 53 51 48 44 42 44 45 43 43 36 28 23 22 20 21 24 21 19 19 18 22 17 16 13 13 14 15 19 25 29 35 35 25 27 24 20 16 11 12 10 14 8 10 17 14
59 56 54 52 48 45 42 41 39 41 41 32 26 22 22 21 22 21 20 21 19 16 19 15 14 14 13 16 19 26 27 33 36 29 25 26 25 20 15 10 9 13 12 12 15 14 15
65 60 55 52 48 45 42 36 37 38 40 30 23 23 20 23 18 15 17 19 15 13 13 12 13 14 16 19 22 30 35 37 35 30 23 18 19 19 15 14 12 16 17 17 16 15 16
73 66 58 52 47 42 38 35 36 37 36 24 22 22 19 18 17 17 18 16 15 15 16 15 15 17 18 18 22 30 35 35 33 30 24 16 18 19 19 19 18 23 22 16 14 15 15
75 70 62 53 46 42 39 35 32 38 29 21 23 18 17 19 16 15 15 14 16 17 17 17 17 17 17 18 22 27 35 34 18 31 28 22 25 27 28 25 24 21 23 22 15 13 12
78 72 63 56 47 42 40 34 32 36 25 21 22 15 15 14 18 15 12 10 17 18 18 21 20 19 18 19 22 25 28 28 27 26 27 24 30 29 27 23 16 17 18 24 14 14 15
78 71 60 55 46 41 41 33 35 31 23 24 19 14 12 10 14 18 15 16 20 21 21 23 22 20 18 19 23 26 27 28 29 29 24 23 23 22 22 17 14 13 13 13 12 15 17
64 64 62 54 48 41 39 32 36 27 25 24 20 18 15 13 17 18 19 24 23 23 20 23 23 22 21 21 23 24 24 24 20 19 20 19 15 15 17 18 15 14 14 14 15 16 19
70 66 62 58 52 46 41 36 35 28 29 24 23 21 18 19 22 23 26 26 25 25 23 22 22 22 22 21 21 21 20 19 18 17 16 14 16 13 16 16 16 14 15 16 17 17 17
66 68 65 64 56 50 44 40 35 32 31 28 26 22 22 26 27 31 31 29 27 24 24 24 22 22 21 21 20 18 17 16 15 15 15 16 16 16 16 15 16 16 15 14 12 12 12
56 73 70 70 63 56 46 42 37 37 33 30 27 27 29 31 35 35 33 30 28 25 25 23 22 20 19 19 18 16 15 15 16 15 18 17 16 16 15 14 14 12 11 9 8 5 4
67 64 73 68 61 56 49 45 41 41 35 31 30 33 35 39 39 36 33 30 27 24 24 22 19 18 17 16 16 14 14 14 15 16 16 16 17 16 14 13 12 11 9 6 4 3 3
59 59 74 65 58 55 51 49 46 42 36 36 38 41 43 43 39 36 32 29 26 25 24 21 19 18 16 15 14 15 15 15 16 16 16 17 14 15 14 13 11 11 9 7 5 5 9
52 70 66 60 58 54 50 48 48 43 39 40 44 47 47 43 41 36 32 29 27 26 22 20 16 14 14 16 17 17 17 17 17 16 17 18 16 16 15 15 14 12 9 7 8 12 13
60 66 60 57 55 50 48 47 47 43 40 43 49 50 47 43 40 36 32 29 25 23 20 15 11 11 12 12 12 15 17 18 17 17 18 18 17 18 17 16 14 11 10 12 14 15 15
69 63 56 55 52 47 46 47 45 43 44 47 53 52 49 44 40 37 33 29 25 23 16 10 7 8 10 11 14 17 17 18 18 18 18 18 17 17 16 16 16 14 14 15 17 17 19
64 57 56 53 48 45 46 45 44 44 46 50 57 53 47 45 42 38 36 31 25 20 13 10 8 8 12 13 15 16 16 17 18 18 19 19 19 19 18 16 17 17 17 18 19 22 23
59 59 54 50 44 44 45 43 44 44 48 53 57 52 48 44 41 37 36 31 25 19 15 11 8 7 10 11 14 16 17 18 18 19 20 20 20 21 21 20 21 21 20 21 24 26 27
59 56 50 46 44 42 43 42 43 44 48 55 57 53 48 45 42 39 36 29 22 20 16 12 9 8 11 12 13 14 15 17 19 21 21 21 22 23 24 24 26 25 20 27 29 29 32
55 53 45 44 43 41 40 40 41 44 47 54 58 54 50 47 43 38 35 30 27 24 20 16 11 9 10 14 14 14 14 15 17 19 21 22 25 28 28 29 33 26 27 31 35 36 36
52 46 42 40 43 39 38 39 40 44 48 55 57 54 50 47 43 40 37 32 29 26 23 18 14 12 11 12 16 16 15 14 16 19 22 25 28 31 33 33 35 34 33 36 39 40 39
46 44 38 34 48 39 36 37 40 44 48 54 56 54 50 47 43 40 37 33 32 27 24 21 18 16 15 14 13 16 18 19 21 19 20 25 29 33 35 39 41 38 37 40 43 44 40
40 35 33 38 39 35 34 37 39 43 49 54 54 53 50 47 44 40 38 34 32 30 28 26 23 20 18 17 16 16 16 18 21 22 25 29 32 34 37 41 43 40 40 41 43 44 46
34 31 30 36 32 31 33 34 37 42 46 48 51 52 50 47 43 40 38 36 35 34 32 30 28 26 24 22 22 22 22 22 22 23 25 29 32 34 37 41 43 41 42 43 46 47 47
32 27 36 31 29 29 29 33 35 39 42 39 42 54 49 47 43 40 38 37 37 36 36 35 32 29 29 29 28 29 29 30 30 32 32 35 35 38 38 38 40 43 45 46 46 48 48

GFSGBSN_500_spd_033.txt.gz
Wind_Speed
52 53 52 48 46 46 40 40 42 41 40 45 42 44 47 40 32 23 21 19 22 25 21 19 15 14 11 10 13 14 14 10 10 12 13 15 18 20 21 24 22 20 20 9 6 6 14
54 54 53 49 47 46 41 40 40 41 40 42 42 45 46 37 26 22 21 20 19 16 16 15 14 12 12 12 13 12 11 10 11 9 13 21 28 29 21 20 17 16 16 6 6 12 8
57 55 55 55 51 48 43 41 38 38 41 43 42 45 44 34 23 23 20 15 17 14 14 14 13 13 13 12 13 12 9 10 10 21 27 29 27 27 25 21 19 12 11 7 3 3 7
58 55 56 54 49 47 43 40 40 36 39 41 39 43 40 29 23 23 20 16 16 14 15 15 14 13 11 14 12 11 10 11 21 32 26 26 28 23 21 18 15 13 8 5 3 5 8
57 57 56 54 50 47 43 40 38 38 37 39 39 40 33 27 24 23 19 20 19 15 19 17 17 11 11 13 13 12 13 19 30 29 21 26 18 19 16 11 9 7 5 4 4 10 14
60 59 56 52 49 46 43 41 38 36 40 37 39 37 30 26 23 22 22 20 21 19 18 17 16 13 15 15 15 15 16 27 26 24 21 21 19 17 16 11 9 5 6 5 10 13 12
65 61 58 56 52 46 43 42 38 36 39 36 37 35 28 25 21 23 18 15 15 16 14 14 15 15 15 15 15 16 20 31 24 22 22 23 22 20 16 10 8 12 14 15 15 12 13
68 68 64 60 53 49 45 42 37 36 37 33 36 32 25 25 19 20 16 17 15 14 14 14 15 15 16 16 17 20 21 30 30 24 20 18 16 18 16 13 10 17 16 13 10 10 12
81 71 66 63 60 53 49 43 38 33 33 33 33 27 24 22 19 19 17 15 14 15 15 15 15 17 18 19 21 20 26 29 29 23 21 18 12 14 15 14 15 18 21 15 13 12 13
80 80 73 66 61 57 53 47 39 36 31 33 31 22 23 17 21 14 17 15 16 14 17 17 17 17 17 17 17 25 28 30 28 26 24 22 20 15 19 20 20 17 18 20 21 17 16
82 74 77 72 68 63 58 49 42 37 32 34 28 22 20 16 15 18 16 15 14 17 16 19 20 19 19 19 19 23 23 32 28 26 26 23 24 20 22 23 19 14 16 18 18 22 21
87 78 68 72 70 68 61 52 46 41 35 35 26 23 16 14 15 22 20 16 16 18 20 23 22 20 18 18 19 21 23 27 31 30 24 23 20 22 23 21 17 14 13 14 16 17 17
85 76 69 67 70 69 64 55 50 44 37 36 26 23 19 19 18 22 22 20 21 20 20 24 21 20 19 18 21 21 22 24 23 24 21 20 18 18 16 20 20 18 16 16 17 16 16
88 77 68 66 72 70 65 59 54 48 40 37 29 26 23 25 24 25 24 25 24 24 23 22 22 21 19 19 20 21 21 19 18 18 17 18 19 17 13 13 17 17 16 18 17 13 9
78 65 57 64 66 70 69 67 59 52 44 38 33 30 28 27 27 30 29 28 26 25 25 25 23 21 21 20 19 18 17 17 17 16 18 18 18 16 14 15 16 17 17 14 10 6 4
64 61 71 74 70 74 75 72 63 54 48 42 38 32 30 32 31 35 34 31 30 27 26 24 21 20 18 16 16 14 15 15 15 16 18 18 17 16 16 17 17 15 13 11 8 6 4
76 78 76 76 74 79 76 67 60 55 50 46 43 40 37 36 37 40 36 34 32 27 25 22 20 18 17 16 16 15 15 15 16 18 19 17 18 17 19 17 16 14 12 10 8 7 5
89 69 72 68 76 80 70 62 57 54 54 49 47 43 40 40 43 43 40 36 31 27 25 23 21 18 18 18 17 18 18 18 19 19 18 18 18 17 15 17 16 14 12 11 10 10 11
76 66 75 69 74 75 67 58 56 54 52 52 48 45 42 46 47 45 40 35 30 26 25 21 19 17 17 18 19 20 20 20 19 18 17 18 17 16 16 15 14 15 14 13 14 14 13
70 77 73 80 76 65 61 58 55 52 54 52 48 48 48 52 49 44 39 34 29 25 23 19 17 16 16 16 17 17 19 19 18 17 16 18 16 16 16 17 19 18 18 17 17 16 18
63 70 76 68 72 64 57 55 51 52 54 51 52 51 52 55 50 44 39 33 28 26 24 19 14 10 12 12 13 14 16 17 17 17 17 18 17 18 18 20 21 20 20 18 18 20 22
65 83 79 68 63 56 53 53 50 53 52 52 51 54 55 52 48 44 39 34 30 27 20 15 9 7 8 12 12 14 15 14 15 17 17 18 18 20 21 22 22 21 20 19 21 24 27
64 60 63 60 54 52 54 50 49 51 50 51 48 55 56 53 49 44 38 34 30 24 20 14 9 7 7 12 12 13 13 13 13 15 17 18 19 21 22 24 26 26 19 24 28 30 32
63 65 58 52 51 53 50 46 47 48 48 47 49 55 56 54 49 42 39 37 30 25 21 16 10 8 8 10 11 11 11 11 13 14 16 17 20 23 24 26 30 24 25 29 34 35 38
64 55 51 50 51 49 46 45 44 45 46 45 47 55 55 53 49 43 39 35 30 26 22 16 12 10 9 9 11 12 11 10 11 13 16 18 21 23 26 28 30 31 32 34 39 40 42
58 55 52 50 48 44 41 41 41 43 44 44 48 54 54 51 48 43 39 35 31 28 24 19 16 13 12 10 8 7 11 13 14 14 15 18 21 24 26 30 33 33 34 37 41 43 43
54 50 48 47 44 41 38 38 40 43 40 44 47 52 52 50 48 44 40 35 31 29 26 22 20 18 15 12 11 10 10 10 11 13 17 21 24 25 27 30 32 33 35 37 40 44 46
49 46 42 41 40 38 36 36 40 37 38 42 44 47 50 49 46 43 40 36 32 29 27 25 24 22 20 18 17 16 15 16 16 16 18 21 25 27 29 32 36 37 38 41 43 44 46
41 36 31 34 44 39 35 36 36 35 36 38 42 45 50 48 44 42 40 37 33 32 30 28 28 26 24 23 23 23 23 23 23 25 26 28 30 32 32 33 37 41 43 45 44 44 45

GFSGBSN_500_spd_036.txt.gz
Wind_Speed
49 46 46 46 46 46 46 45 42 38 35 35 33 33 37 39 41 41 40 29 22 22 21 21 18 17 15 14 10 11 12 10 10 13 15 17 19 16 23 22 20 18 17 20 5 9 10
49 48 47 46 46 46 46 44 42 39 34 34 34 33 36 40 42 40 36 26 22 21 19 16 14 14 13 14 11 8 10 12 11 13 12 15 18 20 20 20 23 21 22 10 18 12 13
53 51 51 50 49 48 46 46 44 41 37 35 34 31 34 39 41 37 30 23 22 19 15 14 11 14 15 12 8 9 10 12 10 11 12 14 20 21 22 23 23 21 12 5 10 12 8
57 55 54 52 49 48 46 45 41 40 36 35 33 32 34 39 40 33 27 21 21 20 14 11 13 14 14 10 12 11 11 9 11 18 26 26 28 23 23 21 16 10 13 11 7 9 8
59 57 53 52 49 48 46 45 41 38 36 34 33 33 36 39 36 32 24 21 21 20 16 13 15 18 13 11 12 12 12 9 22 29 27 25 25 23 21 14 10 6 6 8 10 10 11
62 61 57 55 53 49 48 46 43 38 35 34 33 35 36 35 34 28 20 21 22 17 16 16 17 17 14 12 13 13 10 16 27 28 25 19 23 20 18 12 7 6 10 7 7 7 9
63 61 61 59 55 54 50 45 39 35 33 34 34 35 35 34 31 23 18 22 19 15 17 16 15 16 13 14 14 14 13 21 23 27 20 25 18 14 13 13 11 9 16 9 10 9 12
70 66 64 60 55 53 50 46 42 37 34 33 35 35 32 32 28 22 16 19 17 12 15 13 14 16 15 16 15 14 17 24 22 24 21 15 15 20 17 10 8 10 16 12 12 9 9
76 72 69 64 61 56 52 46 42 37 36 32 33 32 31 31 25 19 17 16 17 15 14 14 18 17 17 18 17 19 21 26 23 20 20 23 17 17 19 16 10 9 21 16 8 7 6
80 78 76 70 65 61 54 53 47 41 37 33 33 31 31 30 22 17 15 17 15 16 16 17 17 16 18 18 18 22 23 27 27 27 23 17 15 12 14 13 12 12 16 16 11 10 9
84 80 77 74 72 62 55 50 51 49 44 39 34 32 33 28 20 16 15 16 16 17 21 20 20 17 18 19 20 25 27 30 25 24 19 18 20 16 9 14 16 15 10 11 12 16 18
87 84 81 76 73 65 59 51 49 52 49 44 35 35 33 24 19 17 18 16 18 20 23 20 19 19 19 20 21 22 26 29 28 23 21 22 19 17 17 16 17 14 12 13 15 16 18
88 85 84 81 73 69 64 57 51 53 53 47 40 38 32 28 21 18 20 20 20 19 17 17 18 19 19 19 20 23 24 26 27 26 24 20 18 19 15 14 16 15 15 15 15 17 17
98 92 87 84 77 70 65 61 58 56 56 51 47 40 35 29 24 21 22 24 24 19 19 19 22 21 20 19 18 20 23 23 26 25 21 21 20 16 14 15 18 21 18 17 17 17 19
102 99 93 89 81 70 63 64 62 61 60 57 52 45 39 32 28 26 27 27 22 22 21 22 24 22 21 19 19 20 21 21 20 18 19 17 19 18 19 18 17 16 17 17 18 15 12
98 97 96 91 82 73 66 67 69 67 66 63 57 49 40 35 33 31 29 25 27 26 24 25 24 23 21 19 18 19 18 17 17 18 17 19 20 21 20 20 19 19 18 16 13 11 9
91 95 92 88 81 71 67 70 75 74 74 69 62 53 46 42 39 36 30 30 31 30 28 26 23 20 18 16 16 15 16 17 17 17 19 20 21 20 21 20 20 19 16 14 13 12 11
66 70 75 76 75 72 71 71 73 79 77 72 64 58 52 47 42 36 34 38 35 33 31 27 24 23 20 17 17 17 16 17 18 19 21 20 21 21 21 20 21 19 16 15 15 14 13
53 65 71 72 74 77 79 77 77 82 78 67 65 62 56 50 45 38 39 42 39 35 32 29 26 22 20 19 19 17 18 19 20 22 22 22 23 22 21 18 15 15 16 17 16 16 15
51 60 77 91 80 88 92 81 85 83 71 66 62 60 54 47 43 39 44 44 41 36 32 28 25 21 19 19 20 21 22 23 23 23 23 23 22 19 18 18 17 17 19 19 19 18 19
48 66 90 86 65 86 77 80 78 72 69 66 63 57 53 49 47 45 48 44 41 35 31 27 23 20 19 19 21 21 21 23 23 22 21 20 18 18 17 18 18 19 22 22 21 21 22
54 79 92 58 76 80 82 74 70 71 67 64 61 56 54 45 46 52 53 48 40 34 30 24 20 17 16 16 17 17 17 17 17 17 18 17 17 18 18 18 19 21 22 22 23 23 25
67 85 77 68 78 78 75 74 69 66 63 62 60 54 50 46 52 55 53 46 39 34 31 26 20 15 13 14 15 15 15 14 14 15 17 17 17 19 18 20 23 23 21 24 26 27 30
76 80 67 75 82 79 73 64 66 61 60 58 58 50 49 51 55 56 51 44 38 36 30 24 19 14 12 12 15 14 13 13 13 14 14 13 15 18 17 22 25 20 23 26 30 32 36
65 80 78 73 70 66 66 65 59 56 57 55 49 51 52 53 57 55 50 44 40 37 30 24 20 14 10 8 9 13 12 11 12 13 13 14 16 19 21 21 24 25 26 28 33 35 39
76 78 72 64 66 67 62 58 56 56 54 52 42 49 51 54 57 54 49 45 42 34 30 24 20 15 10 8 6 6 10 11 12 10 12 14 16 18 20 23 24 24 26 29 33 36 38
65 61 64 65 56 57 55 52 51 51 50 48 42 49 51 55 56 54 50 46 41 34 30 26 22 17 14 9 7 7 6 7 9 11 14 16 18 19 21 23 24 26 28 30 33 38 40
56 58 60 59 56 52 50 49 48 46 44 46 43 46 52 55 55 52 50 44 40 35 30 26 24 19 17 15 13 10 9 9 9 10 13 15 18 20 23 26 30 31 35 37 39 41 42
59 57 53 50 48 46 45 44 42 42 45 46 41 44 50 51 52 50 46 43 40 36 33 30 27 24 21 19 16 16 16 15 16 18 20 22 24 25 27 30 35 39 41 42 43 43 43

GFSGBSN_500_spd_039.txt.gz
Wind_Speed
49 48 47 45 44 42 43 42 42 42 41 37 35 32 30 31 32 33 35 39 36 33 28 27 23 24 18 16 16 15 13 12 10 12 14 15 14 14 16 19 20 16 17 25 27 24 18
50 51 48 46 46 45 43 43 43 42 40 37 35 32 30 31 31 32 35 39 33 30 25 25 21 19 14 13 15 15 12 11 13 12 13 14 15 17 19 22 17 19 23 22 22 13 22
54 51 49 48 46 46 45 43 42 42 40 37 35 35 33 31 30 32 35 35 31 25 24 22 18 15 13 13 10 10 11 12 13 11 9 11 14 15 15 21 20 21 20 19 15 18 16
57 54 52 51 49 48 47 46 45 43 40 37 34 33 31 30 31 33 36 34 29 24 24 21 16 14 13 11 9 8 10 10 10 7 8 9 15 19 22 21 25 24 22 13 14 8 6
60 57 55 53 52 51 49 47 44 41 39 36 33 31 31 29 31 33 36 31 27 23 23 22 17 16 14 14 10 13 12 11 8 12 15 23 24 21 23 22 24 9 8 9 5 9 9
63 61 57 56 54 51 50 46 44 42 40 38 34 32 31 29 32 33 33 30 26 23 24 20 18 16 15 13 10 13 11 9 14 23 22 21 21 25 24 18 6 4 6 8 7 9 10
65 62 60 57 51 54 53 50 47 45 42 39 34 31 30 29 31 32 31 28 25 25 24 20 19 17 12 12 11 13 12 13 18 25 17 22 22 16 14 14 4 7 7 9 12 5 8
70 68 65 61 56 51 52 51 49 48 45 39 31 28 28 30 31 31 29 27 21 25 22 15 16 14 15 15 14 14 13 17 23 20 23 18 12 15 13 9 10 7 7 13 10 4 8
72 70 67 64 60 56 53 51 47 45 44 41 35 31 30 31 31 30 26 24 24 25 19 17 14 11 12 14 15 15 17 20 21 30 13 18 13 15 13 11 7 9 13 12 6 4 7
74 73 69 66 65 61 57 55 51 46 43 40 35 33 31 31 30 29 27 24 25 22 20 18 13 13 15 16 18 18 20 20 22 27 25 12 22 15 13 12 13 7 7 10 13 6 5
79 76 73 71 69 67 63 61 55 50 45 40 36 32 34 30 30 30 27 24 23 19 21 19 17 17 18 17 21 19 25 25 15 12 13 9 12 13 8 11 6 14 5 10 11 10 14
84 82 79 76 73 71 69 65 59 53 47 44 43 39 36 36 33 30 28 21 21 21 23 14 18 19 20 18 18 19 24 26 27 20 24 19 19 17 14 14 11 11 11 9 9 9 15
87 85 83 80 76 74 72 69 62 57 53 47 46 47 42 40 37 32 27 21 21 20 19 17 19 18 16 18 21 22 28 27 24 19 17 14 12 18 15 15 12 14 10 8 9 11 11
91 88 84 81 79 76 73 70 65 58 52 51 53 51 48 45 40 34 29 19 22 18 14 15 14 16 17 18 19 22 25 26 27 21 14 13 15 15 14 12 9 12 13 13 14 11 8
100 94 88 83 80 76 74 71 67 59 55 51 47 51 51 48 42 35 31 25 19 20 16 15 17 20 18 17 20 23 21 23 24 22 24 15 20 18 13 14 13 15 16 20 18 17 18
104 100 96 91 83 78 74 71 68 64 59 55 50 51 55 51 45 39 33 26 23 24 21 20 19 20 18 19 20 21 22 22 23 21 22 15 17 22 17 17 17 19 19 17 18 20 14
104 105 103 97 91 85 80 75 72 67 61 58 55 56 58 54 48 44 35 26 26 25 24 23 22 22 19 21 20 18 18 19 19 18 18 17 18 19 19 18 16 20 20 18 20 18 15
102 104 102 100 96 91 85 79 73 69 66 62 60 62 61 60 54 45 40 29 31 29 28 27 25 23 21 20 18 18 18 16 19 18 17 20 19 22 17 23 21 23 21 21 20 18 17
75 84 95 99 96 94 88 81 75 73 70 65 64 68 64 65 58 50 41 34 36 33 32 29 26 25 25 23 21 20 20 20 18 19 22 20 22 23 24 21 21 21 21 20 21 21 19
71 77 79 84 89 93 88 81 78 79 73 73 75 66 67 63 61 54 43 41 38 37 36 33 30 29 25 23 21 20 20 18 19 20 21 22 23 24 24 17 20 19 20 21 22 22 19
55 69 68 80 87 85 86 81 75 79 80 80 73 75 67 66 66 59 44 41 40 42 38 37 33 28 24 22 21 20 20 19 22 23 24 25 25 26 24 25 22 21 21 21 22 20 24
38 49 56 66 90 93 85 76 80 81 84 81 67 78 75 64 66 55 51 47 44 42 39 38 31 28 25 23 21 22 23 23 24 25 26 24 25 23 23 23 23 23 21 21 22 22 24
30 39 46 58 81 101 101 90 87 82 81 81 76 71 69 64 62 55 51 48 47 46 40 38 30 28 25 24 21 22 21 21 20 19 20 22 23 23 23 21 23 20 17 20 22 23 27
30 37 44 54 78 100 91 91 90 80 80 78 72 69 69 62 59 56 51 51 48 43 41 36 32 29 22 22 21 21 20 19 19 19 20 20 21 22 20 20 22 17 19 21 24 26 31
33 41 47 66 93 89 80 77 91 79 74 74 73 65 65 59 55 56 52 53 44 46 45 38 32 26 23 20 17 18 18 17 16 17 18 19 19 19 20 20 20 19 20 23 26 29 36
39 44 56 80 102 77 84 82 78 78 71 65 66 63 63 61 54 55 57 55 55 48 44 40 35 28 21 16 14 13 16 16 16 15 16 17 17 18 17 20 21 21 22 25 28 31 33
77 65 72 77 80 67 64 78 71 66 66 59 61 59 56 56 46 56 56 55 51 47 46 39 33 27 22 17 14 12 11 13 16 16 16 16 16 16 17 20 20 20 22 24 28 32 34
54 52 56 67 77 67 63 60 68 67 64 59 55 59 55 53 51 57 58 56 53 49 44 38 33 29 23 19 16 12 11 12 11 12 13 14 14 14 17 20 23 24 27 30 33 35 38
53 67 71 77 78 74 69 62 57 63 53 51 51 55 52 50 52 56 56 52 50 49 43 36 34 29 27 24 19 17 14 14 14 15 15 16 17 20 21 26 28 31 33 35 37 40 42

GFSGBSN_500_spd_042.txt.gz
Wind_Speed
52 51 50 49 47 46 45 43 42 41 40 38 38 37 33 32 27 27 28 27 29 33 39 37 32 30 26 24 19 15 16 18 16 10 10 9 9 9 10 13 17 20 14 21 29 24 24
53 51 51 51 49 47 46 44 42 41 41 40 38 36 33 31 29 29 29 27 28 32 36 35 31 27 25 20 16 18 15 16 13 9 9 12 11 11 12 13 15 12 19 19 26 22 28
57 55 53 53 52 48 47 45 43 42 41 40 39 35 33 31 29 29 29 28 28 32 34 33 29 26 23 18 14 13 12 11 10 9 7 9 12 13 14 15 19 13 22 25 18 23 13
61 59 58 55 53 52 48 45 45 42 42 40 39 37 34 30 27 28 28 29 28 33 33 32 28 25 23 17 14 13 9 8 7 9 10 9 10 13 17 20 20 17 18 21 14 19 11
63 61 60 57 56 55 51 47 46 44 43 42 39 36 33 29 27 28 28 28 29 32 31 31 28 24 21 18 16 13 11 10 8 9 8 9 11 15 17 19 19 20 13 3 10 5 2
64 62 60 59 57 55 53 51 47 45 42 40 36 34 34 30 28 27 29 28 28 31 30 28 27 23 20 16 15 11 10 8 7 6 6 8 16 18 19 23 16 6 9 2 3 3 7
68 66 63 61 60 57 54 52 48 43 40 39 36 35 35 32 29 27 28 28 28 30 28 28 24 23 18 18 13 10 9 9 5 7 11 11 20 17 16 18 4 4 6 6 10 8 7
69 68 66 64 62 59 54 52 51 46 44 41 39 39 36 31 28 27 28 28 28 30 27 28 25 18 14 16 12 10 9 10 9 17 20 11 16 16 6 8 5 3 8 12 18 7 7
69 68 66 64 62 60 56 51 50 48 45 44 41 39 36 30 27 27 28 28 28 29 26 28 22 16 12 11 10 10 9 11 10 18 17 9 17 15 6 7 8 5 12 21 19 4 4
72 70 67 65 62 59 57 54 51 49 46 42 36 34 33 33 32 30 28 27 27 28 27 28 21 14 12 11 10 12 11 14 16 10 21 9 18 16 13 7 8 12 13 2 5 5 8
77 74 70 66 63 61 58 56 51 51 46 41 37 34 35 34 35 32 28 26 26 26 26 26 16 18 16 11 12 14 14 18 14 11 26 17 21 15 8 18 10 14 18 7 6 11 17
82 77 73 70 66 62 60 58 55 51 49 45 39 34 35 36 38 33 31 28 27 25 24 22 13 15 16 12 15 16 19 19 19 11 20 13 13 8 20 12 9 13 6 4 7 11 16
84 82 78 74 72 68 64 61 58 56 54 48 42 37 37 40 41 33 34 31 28 29 18 20 15 14 14 13 15 16 21 19 22 19 11 15 14 14 14 15 12 13 8 9 18 16 8
87 84 80 78 75 72 69 65 62 60 57 51 45 40 39 42 42 40 35 34 30 24 22 18 14 11 11 12 14 16 20 20 15 20 7 6 9 8 15 13 16 11 9 15 12 5 8
95 89 85 82 78 74 71 68 65 62 60 56 50 45 42 47 47 46 42 38 33 20 19 20 16 12 13 15 14 16 19 20 18 18 19 21 25 22 13 12 21 1 10 17 12 14 12
100 97 93 86 81 77 74 71 67 64 63 59 55 48 47 52 52 51 47 41 36 25 22 20 17 12 16 15 15 15 16 15 19 15 25 23 25 21 14 10 14 13 14 11 13 15 13
108 103 97 92 89 82 77 71 68 65 64 62 60 53 54 56 58 55 46 39 37 27 27 27 18 15 17 15 16 17 16 14 19 24 31 26 17 13 9 14 14 14 15 16 17 16 15
108 106 105 98 91 88 84 77 70 67 66 66 62 56 59 59 56 49 42 41 37 31 31 27 23 20 20 21 20 20 18 16 18 19 22 21 17 16 10 18 16 16 17 17 19 16 22
90 97 101 99 98 92 86 80 76 71 70 67 63 61 62 64 57 49 46 43 41 36 34 28 26 24 24 23 19 20 17 23 23 21 22 25 22 21 16 16 13 16 18 21 22 25 20
55 70 80 88 96 94 89 84 80 76 74 70 67 68 70 57 55 54 48 47 45 41 38 29 28 26 26 25 25 23 24 26 19 23 22 22 18 20 20 15 19 19 18 23 24 26 18
40 57 72 80 81 86 89 87 84 81 78 76 75 68 68 62 55 51 52 50 47 44 40 34 33 32 29 27 25 25 25 20 20 21 22 22 19 20 22 22 26 21 24 19 22 21 22
42 54 69 81 90 86 85 87 86 85 82 83 76 69 64 62 59 57 54 50 51 46 41 36 37 33 31 28 25 24 24 22 21 21 23 22 22 27 26 25 27 25 25 22 21 21 23
34 40 59 67 80 92 95 88 86 90 88 85 73 70 68 68 61 60 52 53 52 51 43 38 33 32 31 26 27 29 24 24 24 22 23 23 24 26 25 26 26 23 20 22 20 22 23
30 40 64 65 68 81 97 98 92 92 92 81 70 70 68 65 65 52 53 52 52 50 45 42 39 36 38 34 29 24 24 25 22 20 20 20 22 23 22 25 25 20 20 20 20 22 26
28 33 58 65 64 66 87 101 101 94 85 79 76 74 69 61 61 63 57 53 52 48 41 35 44 45 39 31 28 26 25 24 22 20 21 22 22 22 24 24 22 21 22 19 21 26 27
25 29 34 44 50 55 72 99 98 94 82 76 79 72 64 60 62 61 57 48 57 47 39 43 48 43 39 34 28 24 23 21 25 20 20 20 20 22 21 21 22 24 20 22 23 28 27
28 28 34 43 47 56 76 99 88 89 85 77 73 65 56 52 59 58 60 59 54 52 38 49 49 44 38 30 25 23 21 20 23 18 18 19 19 19 20 21 19 22 17 21 23 25 27
26 31 36 43 48 65 90 96 86 84 76 70 63 69 36 60 44 55 55 59 55 58 39 54 50 46 38 30 26 22 19 17 18 18 19 20 19 19 19 19 20 18 20 21 24 28 31
31 34 37 47 62 82 97 80 78 74 77 75 74 63 25 63 67 54 60 64 65 68 34 43 44 41 35 31 27 22 19 17 16 16 15 16 15 16 17 20 20 22 25 27 29 32 36

GFSGBSN_500_spd_045.txt.gz
Wind_Speed
57 57 56 54 52 50 49 48 45 44 42 41 39 38 37 36 34 30 26 25 26 27 28 30 33 35 37 34 31 23 22 21 18 18 9 7 5 8 9 14 18 25 19 17 19 20 21
61 59 56 55 53 52 51 49 48 46 43 41 39 37 37 36 33 29 27 25 25 26 28 29 33 34 35 32 28 22 18 14 15 13 5 8 7 9 9 15 17 19 15 20 17 19 29
60 59 58 57 54 53 52 51 49 46 43 41 39 37 36 35 32 29 28 24 24 26 28 29 33 33 33 31 26 19 14 14 11 7 6 6 10 10 12 15 20 22 19 22 20 17 22
63 61 60 61 58 53 54 53 50 47 46 43 40 37 36 34 29 29 28 25 24 25 27 29 30 32 31 28 23 20 15 12 9 5 5 5 7 9 11 12 12 10 20 23 20 19 24
66 65 63 61 59 57 55 55 52 49 47 44 40 37 35 32 29 28 28 25 24 25 27 28 29 30 30 27 20 17 13 11 11 7 4 4 9 9 12 15 14 17 14 7 7 5 3
68 67 65 62 61 60 59 56 54 52 47 43 41 38 35 33 29 27 27 26 25 25 25 27 26 29 28 23 18 15 11 11 10 5 3 2 2 7 11 12 14 15 7 7 14 12 11
71 69 67 65 61 60 59 56 55 52 48 44 42 40 37 32 30 28 27 27 24 23 25 27 25 26 27 17 15 13 8 11 8 7 6 4 11 11 12 14 15 6 9 2 9 4 9
71 71 69 66 64 61 59 56 54 52 49 45 42 40 37 32 31 29 28 28 24 23 24 26 23 26 20 15 11 10 9 10 7 10 9 8 11 15 16 8 5 7 3 5 8 6 10
72 72 71 69 65 64 61 59 55 54 52 47 44 42 39 35 33 30 27 28 24 24 23 25 22 23 18 11 9 9 8 8 6 7 11 10 11 8 11 11 6 3 2 10 20 17 10
73 70 67 67 65 63 60 58 55 53 53 49 46 43 40 37 34 30 28 28 26 24 22 22 19 17 13 10 8 12 12 9 9 10 16 16 6 9 17 13 7 9 4 21 10 13 11
79 75 71 66 63 60 58 56 54 50 52 50 46 43 39 37 31 29 29 31 27 24 22 21 16 16 12 10 14 9 12 15 11 8 17 7 11 20 17 14 5 4 9 4 8 5 10
83 79 76 71 67 64 59 55 51 49 46 51 46 43 38 33 32 31 32 32 28 25 23 21 14 15 11 13 11 14 13 12 10 15 13 7 10 19 9 8 5 1 4 8 12 15 17
88 84 79 77 73 67 62 56 53 50 47 48 49 41 38 37 35 32 33 33 30 25 20 20 15 15 13 15 16 17 17 16 15 16 5 10 13 6 9 1 4 12 11 16 17 14 10
92 88 83 80 76 72 66 62 57 53 50 48 47 46 39 38 38 34 35 34 30 26 22 23 19 16 13 15 19 18 18 11 18 14 14 13 8 9 9 10 15 13 14 17 17 14 20
99 94 88 83 79 75 70 66 62 59 56 54 51 47 41 41 39 40 39 35 27 28 23 21 22 18 12 16 17 14 16 13 15 11 20 17 20 21 19 23 18 16 19 16 16 11 9
105 99 94 89 83 78 73 67 66 63 61 59 55 51 43 46 43 43 40 33 32 28 26 25 24 20 12 14 14 12 14 13 13 15 21 22 22 15 21 12 13 12 11 5 13 12 8
110 104 98 93 89 81 77 72 68 66 63 62 60 57 49 49 46 45 44 38 34 31 33 29 27 23 16 14 14 13 13 12 15 19 23 24 27 21 27 18 15 10 13 14 15 15 12
109 108 101 97 93 88 83 77 72 69 66 63 60 58 55 55 51 46 44 41 37 34 33 33 29 27 19 16 13 13 15 12 11 21 26 25 21 29 4 11 10 10 14 16 17 13 19
86 98 104 100 97 92 87 83 77 72 68 65 61 58 61 58 52 46 47 46 44 38 39 38 33 28 24 23 22 21 18 19 19 24 25 20 24 23 19 10 9 14 16 18 19 21 18
47 73 86 92 99 95 90 86 83 77 72 69 66 65 64 58 51 49 46 48 46 41 41 41 35 30 27 27 29 22 22 25 24 25 23 21 24 22 19 19 18 19 19 17 21 26 23
26 36 58 80 87 97 94 90 85 80 77 76 74 66 58 54 54 52 55 55 50 46 42 43 40 33 31 30 31 33 26 28 25 22 23 23 22 21 22 22 22 26 22 17 21 17 20
32 29 37 63 82 88 96 96 89 85 82 82 78 63 55 51 52 54 55 52 48 45 43 46 40 34 36 34 31 27 27 25 19 20 23 24 23 24 25 24 24 26 22 20 24 22 21
36 33 31 40 67 86 91 91 94 91 90 88 75 65 58 53 54 57 52 52 49 47 46 43 38 32 37 32 28 32 28 24 24 24 24 25 25 26 27 26 27 28 19 24 22 22 22
38 37 36 37 49 76 93 95 91 96 93 84 71 68 63 57 56 50 53 52 51 48 49 47 40 37 37 35 33 33 30 30 25 25 25 26 27 27 24 25 28 21 24 20 21 22 24
37 39 40 41 45 60 80 98 102 97 94 86 74 70 68 63 52 53 54 51 46 49 51 49 44 41 41 39 36 32 32 30 27 25 25 24 24 25 25 25 25 23 21 17 22 23 23
34 32 31 35 43 54 61 82 100 96 91 87 81 73 67 63 54 50 50 51 50 51 49 52 44 44 44 43 41 39 36 31 29 26 25 25 22 25 24 25 24 22 22 19 23 26 22
27 24 28 48 51 48 54 66 89 97 93 87 85 75 66 60 55 55 52 50 49 51 54 51 47 43 49 48 41 39 37 30 30 26 24 26 26 24 24 23 23 20 18 21 25 25 22
24 22 33 54 59 57 58 59 80 96 91 85 81 78 67 61 56 53 52 54 52 54 53 50 46 44 46 43 42 40 35 30 29 24 24 26 25 22 21 19 20 19 19 20 20 21 24
25 23 34 49 53 49 44 50 74 89 88 83 73 69 64 61 54 49 47 50 55 49 51 49 42 43 39 45 43 37 31 29 26 23 25 26 24 22 21 19 19 19 18 17 20 25 28

GFSGBSN_500_spd_048.txt.gz
Wind_Speed
60 61 60 58 55 53 52 50 49 47 46 45 44 40 38 36 36 34 32 30 27 25 25 23 25 29 32 33 32 33 27 23 15 16 16 10 7 8 19 19 19 23 26 25 22 27 16
62 60 57 58 59 56 52 52 52 50 49 48 44 42 40 38 36 35 32 29 26 24 24 22 25 28 32 33 32 31 25 16 15 13 6 5 10 10 15 16 15 18 31 25 17 20 19
62 62 61 57 56 57 56 55 54 51 51 48 45 42 41 38 36 34 31 28 24 23 23 21 24 28 29 31 31 27 22 15 12 10 4 6 10 10 11 8 12 22 26 21 15 18 19
64 63 63 62 59 57 57 56 55 52 50 47 45 42 40 38 36 34 31 27 24 23 20 22 24 28 27 31 30 21 18 14 9 11 8 9 7 12 13 8 10 18 19 16 15 14 16
65 65 65 65 62 60 59 56 56 56 53 47 44 42 41 38 36 34 31 27 25 21 20 23 23 27 25 27 26 20 16 11 9 12 11 12 13 11 15 10 10 15 15 17 17 17 12
68 67 65 67 65 63 62 60 58 54 52 51 45 43 39 37 36 34 32 28 25 19 21 24 22 24 23 26 23 19 14 9 11 13 11 9 6 9 11 8 10 14 13 15 10 9 12
70 70 68 67 67 65 64 61 60 57 54 52 48 45 41 38 36 35 33 29 25 18 22 22 21 25 21 25 21 16 14 8 11 11 4 4 5 12 16 15 15 16 21 14 13 13 5
68 70 70 68 68 68 64 63 61 57 54 51 48 45 41 40 38 36 34 32 24 19 22 21 21 21 20 23 15 13 12 11 11 6 3 4 7 7 9 15 10 20 8 9 12 8 7
71 68 68 70 69 68 67 64 61 57 54 51 48 44 41 40 39 37 35 31 24 24 23 22 21 18 19 20 12 12 10 12 9 6 4 5 12 11 12 13 13 8 9 13 17 9 4
75 73 69 68 69 68 67 66 63 60 55 54 51 46 43 41 40 38 34 31 26 27 24 21 21 17 17 17 11 10 11 14 12 4 3 2 5 8 19 18 10 4 5 9 12 11 13
82 78 75 72 68 68 67 64 62 59 56 54 53 49 46 43 41 40 37 34 29 28 27 22 18 15 16 15 10 9 13 15 15 7 4 1 6 13 16 16 6 9 5 2 13 16 15
90 84 81 77 74 68 66 64 61 60 56 54 53 51 48 43 43 42 38 34 34 29 28 21 16 16 13 14 13 16 13 15 13 10 2 3 8 17 19 16 10 7 6 3 10 16 14
97 92 86 82 78 74 69 65 60 57 54 53 53 49 47 45 44 43 39 35 33 32 25 23 18 15 13 14 14 17 16 17 16 10 3 7 7 22 18 16 11 8 6 12 14 15 14
105 99 92 88 82 79 74 70 64 60 55 52 51 49 45 47 45 45 42 40 37 32 28 27 22 16 13 15 14 17 20 20 22 15 13 10 11 14 18 15 12 9 10 19 23 19 17
108 104 98 92 88 83 78 73 68 65 61 56 52 49 48 48 48 46 45 43 37 32 28 30 29 20 16 15 17 19 19 16 22 20 17 18 14 22 14 16 15 15 14 16 22 20 13
90 99 105 98 94 88 82 77 73 68 64 61 57 54 49 51 51 47 47 44 41 30 32 33 29 24 17 16 18 19 22 18 22 21 19 20 22 21 20 19 20 17 18 16 18 18 13
44 78 96 105 98 93 87 81 77 73 68 66 62 58 55 54 51 54 51 47 44 31 32 32 29 28 21 18 17 18 21 22 23 22 23 24 26 23 23 19 12 20 18 19 15 12 15
47 46 80 99 102 97 92 87 80 77 73 69 66 63 60 58 57 52 45 46 48 32 36 33 32 30 24 19 20 19 21 21 19 20 27 27 26 26 21 26 25 23 16 20 17 14 16
46 45 51 88 98 100 97 91 85 80 76 72 69 68 66 61 57 51 46 44 50 36 37 37 35 34 28 22 23 21 23 20 17 21 27 28 26 20 20 19 14 15 20 19 20 21 22
46 43 39 65 93 101 100 95 90 85 79 75 75 74 70 63 56 51 47 43 50 38 40 38 36 35 29 26 25 25 24 22 19 21 24 22 21 24 21 16 21 21 21 21 21 22 22
45 38 36 45 76 97 102 100 93 89 83 82 81 76 69 63 58 54 53 50 51 46 43 42 41 36 31 31 29 29 30 29 24 26 27 25 25 23 21 20 23 24 26 23 25 24 24
42 33 30 33 59 92 103 103 96 90 88 87 82 74 67 59 56 56 55 50 48 48 46 44 41 36 35 32 32 29 29 30 27 28 30 29 27 25 24 23 25 27 28 26 22 23 26
35 31 31 26 44 74 99 103 99 96 96 87 83 72 65 61 60 59 53 52 51 47 49 44 42 41 38 31 33 32 35 32 30 28 23 23 25 25 26 25 27 30 26 30 30 30 28
35 31 32 27 31 58 92 101 102 100 95 85 80 72 65 63 61 53 53 55 55 49 43 42 43 42 33 30 37 36 37 35 29 30 27 24 26 28 27 27 32 29 30 30 28 27 26
35 32 34 31 30 43 78 96 103 100 95 87 81 75 67 61 55 56 56 56 59 49 48 44 46 46 43 38 37 36 38 39 36 32 29 29 28 28 30 30 31 28 30 26 24 26 25
36 33 35 36 31 32 56 86 98 101 95 88 84 78 71 63 54 54 56 55 57 47 48 47 48 48 47 46 40 39 41 39 36 34 32 30 28 29 31 30 31 24 28 27 24 27 23
36 36 38 38 36 34 41 63 82 93 93 90 87 80 73 68 62 58 57 56 54 42 43 49 48 49 48 45 44 42 40 43 38 35 31 29 31 32 31 31 30 24 25 27 25 21 19
31 31 31 30 32 33 33 48 65 82 91 92 87 80 72 66 65 60 57 56 53 45 45 45 49 50 48 46 41 41 43 46 41 37 31 32 33 31 31 30 29 23 24 22 19 21 21
28 25 26 31 34 35 36 46 51 73 91 90 86 81 72 66 63 59 57 52 52 48 44 44 45 45 43 41 40 44 46 44 42 36 33 34 31 31 29 28 24 22 20 19 17 20 23

GFSGBSN_500_spd_051.txt.gz
Wind_Speed
57 56 55 57 57 56 59 55 53 51 50 47 45 43 43 42 42 38 37 35 33 31 29 23 23 25 28 28 30 34 36 30 21 17 19 11 9 9 13 18 13 17 26 24 25 24 21
60 59 56 58 57 56 55 54 60 59 51 48 47 45 45 44 43 40 37 36 34 32 28 22 23 25 27 27 29 34 34 27 17 15 13 8 8 8 9 16 12 13 27 30 28 19 15
63 63 65 62 60 59 57 54 52 56 59 52 48 45 46 46 43 41 39 36 34 32 27 22 23 25 27 25 28 33 33 26 15 12 11 9 10 10 6 11 12 15 21 26 22 16 16
64 66 64 63 62 60 60 56 53 51 50 52 52 48 47 46 42 39 36 35 34 32 26 23 24 25 26 23 26 32 29 23 15 13 11 11 9 9 12 10 10 16 17 20 24 16 16
62 65 65 62 62 62 60 60 56 54 53 51 50 49 46 43 40 37 34 33 35 33 25 24 24 24 24 22 25 31 28 20 15 12 13 13 12 13 11 12 10 13 11 14 17 17 16
66 66 65 64 63 61 61 60 60 56 55 53 51 48 46 47 40 37 37 34 35 32 25 26 23 23 22 21 25 29 25 19 12 11 13 12 12 12 11 14 16 15 15 15 15 12 12
67 65 67 66 65 65 62 59 60 59 57 55 53 50 48 44 49 38 35 34 34 30 24 27 24 23 23 22 23 27 22 19 11 9 9 7 6 9 11 15 17 16 17 15 14 10 15
71 69 66 66 67 67 65 63 61 60 58 56 55 52 50 46 45 41 40 37 33 27 26 29 26 23 22 20 23 24 17 16 10 9 7 4 3 5 10 11 10 11 12 13 10 12 9
77 73 69 68 66 66 66 64 63 62 59 57 55 53 49 45 43 40 36 35 33 30 29 29 26 24 22 19 22 20 14 14 9 8 7 3 8 8 11 6 8 8 8 13 16 12 12
84 79 75 72 70 67 65 66 65 64 61 58 55 53 49 45 41 38 34 33 34 28 32 27 30 26 18 19 20 15 14 12 8 7 7 8 9 10 8 11 11 10 8 11 17 14 9
93 88 82 78 73 71 68 66 65 64 62 59 55 52 50 47 42 41 36 33 33 29 34 30 30 24 19 18 19 13 18 14 11 7 8 11 6 9 10 18 13 9 8 14 14 14 11
102 95 91 84 80 75 72 69 66 64 62 60 58 55 52 48 45 46 40 36 34 34 38 32 28 24 21 19 17 17 18 16 15 12 13 12 11 10 18 19 10 9 11 7 11 14 12
94 103 98 92 86 81 76 73 69 66 64 61 59 57 54 49 47 46 41 38 37 41 35 33 27 23 22 19 17 17 17 18 14 13 12 16 14 11 20 20 17 12 11 11 10 12 13
65 80 92 97 93 88 82 78 73 69 67 63 62 57 51 48 51 48 46 44 43 37 37 33 32 31 22 22 16 16 18 19 18 16 14 17 12 16 22 19 20 18 13 14 15 13 16
58 58 70 87 98 93 88 82 78 74 69 67 65 61 56 51 53 50 50 46 41 38 39 39 34 32 26 21 19 19 17 18 17 19 20 18 14 15 21 20 18 17 15 15 16 17 18
58 55 53 68 90 96 93 88 82 78 73 69 66 62 57 55 54 51 52 46 43 41 40 40 38 34 28 25 22 19 14 14 14 18 23 23 20 19 20 20 18 17 21 20 18 20 19
57 57 53 48 62 91 97 94 88 82 78 74 70 67 61 59 59 58 50 46 46 44 44 42 42 37 31 28 23 19 14 13 20 23 25 28 28 23 24 23 17 23 18 22 17 20 17
61 55 56 49 41 72 96 98 93 88 84 80 75 71 65 65 65 55 47 47 49 45 46 46 45 40 30 29 25 20 14 14 19 23 30 29 29 31 26 24 23 23 21 24 21 22 20
61 56 58 52 46 42 87 102 99 94 89 83 79 75 71 69 65 53 49 47 52 46 47 46 43 42 39 32 28 18 16 18 24 27 30 30 33 30 30 30 26 21 15 23 25 23 26
60 57 57 54 48 44 50 100 102 98 92 88 84 82 77 76 63 59 53 50 51 46 48 48 45 44 41 32 26 20 20 20 25 28 26 27 30 32 25 19 20 18 17 24 25 25 28
58 56 54 54 46 43 37 78 104 100 94 94 91 86 78 75 67 61 58 54 51 56 54 47 44 43 40 32 27 23 22 22 22 27 28 25 24 25 22 23 22 24 26 25 26 24 24
60 57 53 52 46 42 41 45 99 101 97 96 93 86 81 71 66 63 62 56 53 50 60 55 48 45 41 35 28 25 24 26 24 27 28 26 25 27 29 23 21 23 28 31 30 25 26
61 54 52 51 44 42 43 43 75 103 102 100 94 87 80 74 71 70 59 56 54 48 53 53 48 44 41 35 30 29 30 29 27 28 30 27 28 28 28 28 28 29 24 28 29 30 29
58 53 49 48 42 42 41 42 62 97 102 99 92 86 80 76 73 62 62 61 55 50 50 46 46 46 43 39 35 32 34 35 31 32 32 30 29 32 32 30 35 23 25 27 32 33 33
56 48 47 42 42 40 39 41 58 85 104 99 93 87 83 78 73 70 66 61 61 56 53 50 50 50 45 42 41 41 40 39 38 35 31 31 31 31 33 31 30 30 27 29 32 32 31
46 46 43 42 38 37 35 33 47 77 98 98 94 87 83 78 72 69 67 63 61 58 54 53 49 54 51 47 46 44 43 39 36 37 33 31 30 32 34 33 32 26 28 28 30 32 28
42 41 41 37 35 33 30 30 45 70 91 99 95 87 83 78 73 70 67 64 60 59 52 51 51 54 52 50 47 44 45 40 37 38 34 33 33 35 34 34 32 32 30 30 33 23 24
36 37 35 32 31 31 27 27 40 65 86 98 93 87 83 76 71 68 65 61 60 58 52 52 53 58 54 56 47 48 46 42 39 38 35 34 35 34 34 34 35 33 33 30 25 26 24
33 32 30 30 29 30 24 21 39 64 82 96 92 84 78 74 69 65 62 61 57 57 47 48 55 57 55 52 51 50 47 42 37 38 39 36 35 36 35 35 35 32 29 26 25 24 25

GFSGBSN_500_spd_054.txt.gz
Wind_Speed
63 59 56 55 54 53 52 50 51 51 54 54 47 47 45 42 40 41 40 39 39 37 35 33 31 31 30 29 30 33 33 36 35 31 23 22 14 11 11 12 9 9 22 22 16 14 15
60 62 60 59 58 55 55 54 50 51 54 51 55 49 49 42 41 43 41 41 40 38 35 32 30 31 30 28 28 30 32 34 34 28 20 18 11 13 9 11 10 8 11 23 26 16 11
64 65 63 61 60 59 56 56 54 50 51 51 50 47 57 45 42 43 41 41 42 39 35 31 30 29 31 26 29 29 31 33 33 25 16 14 10 15 10 9 9 11 12 14 25 19 15
64 65 66 66 65 63 62 61 60 58 52 53 50 47 44 51 45 45 41 41 42 38 34 30 29 28 31 25 29 27 30 32 30 20 13 13 11 11 11 10 7 13 12 10 12 20 11
64 64 64 65 66 65 63 63 63 59 56 53 52 48 45 43 47 49 46 45 42 37 32 29 28 28 30 25 28 27 28 30 27 18 13 14 12 12 12 10 12 13 18 9 7 13 16
66 64 63 65 66 65 63 63 61 61 57 55 53 50 47 46 44 45 44 44 40 36 33 29 28 29 28 25 26 27 25 27 26 20 14 15 14 9 10 9 11 13 14 8 7 10 14
73 70 67 64 63 66 65 63 62 60 57 55 54 52 49 46 43 41 39 37 41 39 33 28 29 30 28 26 26 25 24 24 23 17 14 12 14 10 10 9 12 12 7 10 8 12 14
78 76 73 70 67 65 63 64 64 61 59 55 53 51 50 48 46 42 41 41 34 41 34 30 30 27 30 26 26 22 22 20 19 13 11 9 10 9 5 7 8 10 10 13 12 11 17
85 82 78 75 72 69 66 64 63 63 61 59 56 52 50 48 47 44 42 40 38 34 35 30 31 27 33 25 26 21 20 18 16 12 9 8 6 7 3 8 10 10 14 15 14 12 14
94 88 85 81 76 73 70 67 65 62 61 61 59 56 52 50 46 44 43 38 37 35 36 31 34 29 31 24 25 23 19 16 15 12 8 10 6 7 7 9 11 12 11 10 13 14 14
102 96 92 88 83 79 74 70 68 65 61 60 61 58 54 52 46 45 43 38 35 33 35 31 37 30 28 25 25 20 20 17 16 14 12 13 10 10 10 13 12 7 8 12 15 18 15
89 97 99 94 89 86 81 74 71 69 65 61 60 59 56 52 47 47 43 39 36 33 33 30 34 32 28 28 27 23 18 16 18 15 16 16 13 12 10 17 15 8 6 12 12 14 14
59 63 75 86 90 89 87 82 76 72 69 65 61 58 57 52 45 49 45 42 40 36 32 33 29 29 28 29 27 25 19 16 15 15 13 18 14 13 16 19 16 11 11 14 14 14 14
59 57 54 59 68 81 88 88 83 77 74 69 64 61 57 54 50 51 48 46 43 38 35 34 34 33 31 30 29 25 20 16 16 17 17 20 17 18 17 20 22 21 15 14 15 15 16
62 63 63 59 53 61 77 86 88 83 78 73 69 65 60 55 55 55 53 50 44 38 37 38 38 35 35 34 29 26 20 15 16 16 16 19 17 20 20 23 23 21 19 16 17 19 20
68 64 62 62 58 53 63 76 90 89 84 78 73 69 63 57 58 61 59 50 46 39 39 40 38 40 32 35 33 27 21 15 14 16 18 18 21 17 22 27 26 19 18 19 20 23 22
70 67 64 63 61 58 52 62 85 92 88 84 79 75 66 62 63 65 57 52 48 45 43 43 43 39 37 33 33 29 21 15 16 18 21 19 24 22 24 26 25 26 24 22 18 21 21
72 69 65 64 61 60 57 49 67 94 93 91 84 79 71 69 72 64 54 52 50 47 46 45 45 43 36 40 38 33 24 17 17 19 21 21 24 26 26 28 28 29 29 27 21 21 21
65 65 64 64 62 60 60 51 51 81 96 93 90 83 78 75 75 62 56 52 51 50 50 47 47 46 43 40 39 33 24 20 20 19 18 20 23 26 28 33 31 30 26 26 28 26 20
61 61 63 62 62 60 61 55 48 56 94 95 94 91 85 82 69 65 60 52 51 48 52 52 49 46 45 43 39 32 24 24 21 19 20 23 25 26 28 27 24 30 27 29 29 24 18
50 63 63 61 62 58 60 58 49 45 74 97 99 96 86 85 74 64 62 54 54 49 55 54 52 48 46 43 40 32 25 22 23 23 25 25 27 26 24 26 27 27 25 25 27 26 25
53 58 63 59 61 59 59 60 52 46 51 91 100 96 90 80 73 70 67 58 56 53 57 56 53 46 45 43 39 32 30 27 26 25 28 26 26 23 24 26 30 29 25 25 26 29 28
50 62 62 59 61 58 59 59 51 50 46 76 98 94 90 83 78 75 64 61 57 52 52 57 46 42 45 38 37 37 34 32 28 28 29 27 27 24 26 27 29 32 22 26 26 27 28
50 66 62 59 59 57 58 58 51 46 40 57 93 93 91 85 81 73 69 64 60 53 50 52 50 44 43 38 40 37 36 33 32 30 29 29 28 28 29 30 33 25 24 23 25 26 28
62 62 62 58 54 55 56 54 49 42 38 42 82 96 91 88 83 77 73 69 66 57 53 50 50 49 45 48 44 44 44 40 39 33 28 28 30 31 33 30 28 23 19 23 27 25 27
59 63 60 56 52 52 51 50 46 41 36 34 71 93 90 91 84 80 76 71 66 60 56 54 48 48 48 47 49 51 47 45 43 36 31 30 32 30 32 33 31 23 23 28 29 25 24
66 60 53 53 50 49 48 45 41 38 35 37 57 88 89 89 86 82 77 72 68 62 56 52 47 51 49 51 53 54 50 45 44 41 36 32 33 31 30 34 32 29 28 28 31 25 29
51 55 51 48 48 45 43 40 37 37 36 39 54 85 90 88 86 82 78 74 71 64 56 55 52 57 56 56 58 56 51 50 45 40 37 33 34 32 32 33 36 30 31 28 31 31 31
45 44 43 44 44 42 40 38 34 31 28 39 64 69 90 87 85 82 78 75 70 64 57 53 54 55 56 56 57 56 53 48 41 37 35 36 35 33 33 33 34 32 31 31 32 33 30

GFSGBSN_500_spd_057.txt.gz
Wind_Speed
58 58 60 60 61 59 54 53 52 49 47 46 48 45 46 45 47 41 39 40 37 34 34 35 33 32 33 33 31 33 35 33 34 35 35 27 19 16 19 9 11 3 13 18 17 8 5
63 61 60 59 59 55 55 54 54 52 51 49 47 48 46 48 50 45 42 41 40 38 36 35 32 32 33 33 30 32 33 31 32 33 32 21 16 13 15 13 9 2 3 7 14 14 4
63 63 62 61 60 59 57 55 54 54 55 53 49 48 47 44 46 46 47 50 47 37 39 34 32 32 31 31 30 31 31 30 29 31 28 17 13 12 9 12 6 7 4 5 4 10 14
62 62 61 61 61 60 60 59 58 55 54 53 54 50 47 45 45 43 42 40 44 41 38 34 31 30 29 29 30 31 29 28 27 29 26 14 13 14 9 9 7 9 4 5 5 7 9
66 66 63 62 60 59 59 59 60 59 58 58 57 55 53 52 47 45 39 39 41 41 40 37 31 30 29 27 29 30 27 26 25 28 22 12 13 11 10 10 10 11 8 7 7 11 11
73 71 69 67 63 61 59 58 58 59 58 58 58 58 54 52 49 45 43 41 37 40 39 40 35 32 29 27 30 28 26 25 24 25 20 12 12 9 8 10 9 7 6 1 5 7 8
76 75 73 72 70 66 62 60 58 58 59 60 58 56 55 52 50 48 42 43 36 38 36 37 32 33 31 29 30 27 25 22 24 24 19 13 11 11 5 8 8 7 7 6 8 7 9
83 81 78 75 74 71 68 65 62 58 56 61 59 56 54 51 51 48 44 41 39 34 31 30 34 34 34 32 29 27 25 21 23 21 17 13 9 8 4 7 7 10 8 9 8 9 12
93 90 87 83 79 76 72 70 66 63 60 57 57 57 57 52 50 48 43 41 39 36 34 30 32 37 36 35 29 26 23 21 21 18 15 11 6 8 4 2 5 7 10 9 9 6 12
97 98 96 91 87 83 78 75 70 66 64 62 59 57 57 56 53 48 44 40 38 38 39 26 34 30 32 34 28 28 23 20 20 17 14 10 10 7 5 5 8 8 10 10 7 10 14
86 90 94 94 93 88 84 81 76 71 68 65 62 60 56 55 54 50 48 43 38 36 39 30 31 36 32 33 26 24 24 21 19 18 15 11 12 10 8 9 10 8 6 8 10 10 11
60 63 68 76 83 89 86 83 82 78 71 68 66 63 60 54 53 53 49 44 40 37 38 30 28 31 34 33 30 28 27 22 21 17 16 12 12 13 10 10 13 9 10 9 11 9 11
62 59 58 58 60 66 74 80 81 84 78 72 69 66 63 56 50 55 51 46 44 43 34 33 28 29 34 33 32 30 26 22 18 14 13 13 13 14 11 11 17 15 13 10 9 10 9
62 60 60 59 57 56 56 65 72 81 84 77 74 70 66 59 52 56 53 50 49 43 36 33 30 30 28 33 34 29 27 24 20 14 15 14 15 17 14 15 20 21 15 11 11 11 10
63 60 64 61 60 56 53 55 67 75 82 83 79 75 70 63 57 58 58 56 50 43 39 37 35 30 31 32 33 30 27 21 18 15 13 13 15 17 17 17 22 23 19 17 16 14 14
69 70 67 64 63 58 56 51 52 72 82 86 83 81 74 66 61 61 61 57 50 44 42 41 37 37 31 34 31 29 27 23 19 14 14 16 19 19 21 22 24 26 23 20 19 19 18
76 77 71 67 64 65 60 58 54 51 77 85 87 86 78 72 67 68 64 57 51 48 46 43 42 38 40 36 31 31 27 22 20 18 16 17 15 18 23 20 25 29 27 24 23 20 16
69 72 75 68 67 63 64 60 61 54 54 73 86 89 83 79 76 72 64 57 52 49 49 46 43 42 37 39 38 32 30 25 23 19 16 17 17 17 20 21 22 26 27 30 28 24 21
63 63 65 64 68 66 64 64 61 62 56 59 78 89 88 83 82 71 63 63 55 51 51 48 46 44 41 38 38 36 30 29 27 24 19 19 18 17 23 24 28 26 28 28 27 29 29
52 55 55 58 54 67 63 66 63 66 59 54 61 86 92 87 79 72 69 66 58 52 51 52 49 46 43 40 39 39 35 30 29 27 25 25 22 17 14 16 23 26 23 26 30 30 28
51 54 57 56 50 63 65 64 64 67 65 61 57 73 92 91 87 74 71 68 63 54 51 52 51 48 45 42 41 38 34 34 33 31 30 28 23 17 13 15 22 25 26 27 27 26 28
50 52 56 51 51 63 66 65 64 67 68 65 53 59 85 87 80 82 77 70 65 57 50 53 52 49 45 43 42 40 35 34 34 33 33 28 23 19 17 16 20 24 24 28 27 27 28
66 61 58 56 51 62 65 65 65 66 68 63 48 40 63 88 87 84 76 72 67 60 53 51 49 46 47 39 41 41 37 37 37 35 34 30 27 21 20 18 20 21 18 22 24 27 28
46 64 58 52 59 53 61 62 62 64 63 58 45 39 51 82 88 83 79 73 67 59 53 51 48 47 40 39 43 42 41 41 40 37 34 31 24 23 24 24 27 13 17 21 24 21 23
53 56 53 53 57 54 55 58 60 60 61 58 46 37 45 75 86 84 83 77 72 64 55 51 48 46 46 38 44 44 42 43 43 40 36 31 26 28 29 27 22 18 12 14 19 17 20
47 48 48 51 57 54 53 55 57 56 60 52 45 38 39 70 84 85 84 80 73 66 59 53 51 51 47 46 43 46 47 45 45 43 40 33 29 30 30 29 23 15 18 18 20 15 17
38 43 40 54 49 45 47 51 51 53 55 47 40 37 40 60 84 86 86 80 74 68 58 55 48 47 46 53 49 48 50 47 45 43 39 33 30 31 31 29 25 20 20 21 23 20 21
34 38 51 47 48 47 45 48 47 50 49 42 37 33 39 59 80 87 85 81 77 70 62 55 52 51 50 52 60 54 53 51 48 41 43 37 36 32 33 32 26 19 22 24 21 23 27
43 45 45 45 44 44 46 45 45 46 43 39 33 31 37 50 78 86 85 80 75 71 62 57 52 49 47 48 51 56 57 53 50 48 43 41 35 31 33 32 27 24 24 26 25 25 29

GFSGBSN_500_spd_060.txt.gz
Wind_Speed
55 57 57 59 57 56 55 56 57 56 53 49 47 48 45 42 40 41 42 42 39 39 36 32 30 30 31 29 31 32 31 30 30 32 33 31 30 22 14 11 5 3 5 12 17 7 5
56 57 58 58 58 58 58 56 56 54 57 55 51 49 47 43 41 42 42 43 41 36 37 35 34 33 30 30 31 32 30 30 29 30 31 29 27 19 12 10 4 4 3 4 9 12 9
57 57 55 55 58 58 59 60 58 56 53 53 51 50 49 46 43 43 42 39 40 38 36 38 41 35 31 32 31 30 28 29 27 28 29 27 23 16 14 9 5 3 6 4 3 6 10
60 59 58 58 57 56 56 57 57 58 57 55 53 51 50 50 46 44 42 40 38 37 35 35 40 36 29 32 31 28 27 28 25 27 27 25 21 15 15 11 5 3 7 5 7 7 9
64 64 63 62 61 61 60 56 55 55 55 56 56 55 52 51 48 47 44 42 43 39 34 36 32 35 31 31 30 27 27 26 24 25 25 22 20 14 15 10 6 5 4 5 7 9 12
71 70 69 69 67 65 64 62 60 57 53 54 54 54 55 54 53 52 49 45 44 44 38 33 32 36 34 33 31 29 26 24 23 24 24 20 15 12 11 7 7 7 8 6 8 7 4
78 76 75 73 71 69 68 66 64 62 58 54 53 54 53 53 53 54 52 48 44 43 36 36 32 35 32 33 32 30 27 24 23 24 23 17 13 12 9 5 6 8 7 5 7 4 8
85 85 83 80 79 76 72 70 68 65 63 60 55 53 53 54 52 51 50 48 47 41 37 36 33 31 33 33 32 30 29 24 22 23 21 15 10 7 3 1 5 7 5 7 7 6 10
92 91 89 88 86 82 79 76 73 69 66 63 60 57 55 52 53 52 50 49 47 42 39 34 35 32 31 34 33 32 30 24 22 22 21 14 11 6 2 2 5 8 10 9 10 8 11
93 93 93 91 89 88 85 83 79 76 70 67 64 62 59 56 53 52 51 48 47 44 39 34 39 36 36 34 35 36 32 26 23 20 21 15 11 8 5 4 6 6 10 9 8 7 6
70 71 72 75 77 78 79 82 81 78 77 72 68 66 62 59 56 52 50 51 47 44 42 36 37 38 33 37 28 32 27 27 22 21 19 13 11 10 9 9 8 10 9 8 7 9 7
52 51 50 49 50 56 61 65 71 76 76 77 73 70 66 62 58 56 52 50 48 46 47 37 34 35 34 34 32 31 31 27 25 24 20 17 12 9 12 9 9 11 13 10 7 9 12
50 52 54 55 54 51 49 48 59 66 71 75 77 74 70 65 59 60 56 53 51 51 45 43 34 31 33 33 36 35 31 27 25 21 16 15 14 10 14 13 11 16 14 7 6 8 9
44 42 42 46 52 55 55 55 50 55 68 72 77 78 75 69 64 62 58 57 57 52 45 44 39 35 33 31 36 38 34 32 29 23 21 16 15 11 14 15 12 17 19 14 8 7 8
51 50 50 47 46 46 54 55 54 50 55 73 78 80 78 74 70 66 63 63 57 53 46 43 42 30 38 31 35 37 34 29 26 23 20 17 17 12 15 18 16 22 22 18 13 11 11
59 59 58 56 54 50 50 52 58 56 52 59 76 80 81 78 75 70 68 63 59 55 46 45 43 41 29 33 34 34 33 31 28 26 25 20 20 17 16 20 20 22 24 22 22 19 15
63 64 65 66 64 63 57 54 57 59 59 56 62 77 80 79 78 77 74 61 62 60 49 46 47 41 38 32 31 28 28 27 28 26 25 22 21 19 17 17 21 23 27 27 26 23 19
71 70 71 71 72 73 69 61 62 60 62 63 58 70 77 83 82 83 75 63 62 62 52 48 49 47 40 41 31 31 29 25 27 27 25 22 23 20 18 18 21 24 27 30 28 26 22
73 75 76 75 73 69 71 68 66 63 63 66 58 59 68 78 86 83 72 69 66 64 55 49 49 47 46 40 41 36 30 31 30 29 29 25 26 24 22 20 21 23 23 25 27 25 23
74 75 76 69 63 63 70 70 67 65 63 64 66 63 61 68 82 79 80 74 69 66 57 51 51 50 47 46 41 37 36 33 35 34 32 30 29 25 21 17 19 23 25 25 25 28 22
58 51 48 51 50 52 60 66 67 65 65 66 70 65 48 63 83 85 81 74 74 70 59 55 53 52 49 47 44 36 36 37 37 37 36 36 35 25 20 19 24 23 23 26 30 27 28
46 47 46 47 47 47 56 51 65 65 65 69 66 62 51 40 55 83 84 83 76 71 60 57 54 52 51 48 41 38 36 36 40 37 38 37 35 28 24 22 22 22 21 26 26 28 27
48 49 49 50 50 46 52 59 65 64 66 68 62 58 54 45 51 74 88 80 77 74 62 60 54 51 52 51 39 41 40 40 40 39 39 39 37 31 27 24 23 17 14 19 20 21 21
50 50 50 50 52 49 52 53 60 60 63 60 58 57 52 49 46 65 81 81 78 75 66 65 58 54 50 38 43 40 43 42 43 40 39 38 36 32 31 26 28 13 16 18 18 18 23
39 46 56 56 50 53 55 59 63 56 55 60 60 55 54 50 31 54 76 84 79 78 69 63 57 50 46 46 48 44 41 43 41 43 39 35 35 34 32 28 25 19 13 15 18 17 20
34 48 42 64 52 55 56 53 62 53 50 58 58 54 54 47 30 38 71 81 82 80 70 62 58 53 47 51 46 46 46 42 44 43 42 39 36 35 34 32 27 15 15 17 20 9 14
24 40 45 60 53 52 51 55 52 49 50 56 55 51 51 45 39 38 61 79 81 81 67 65 58 54 48 49 46 44 44 46 45 44 46 42 38 36 32 32 26 18 17 19 22 8 24
32 39 50 54 49 49 51 49 45 48 51 54 51 49 49 45 39 35 50 77 83 73 65 67 59 55 47 49 49 51 47 48 50 47 44 42 40 37 34 34 30 19 22 24 20 22 23
30 36 39 43 42 48 42 43 47 49 51 51 49 50 47 44 39 33 30 53 82 80 61 64 55 54 52 51 51 50 51 45 49 49 43 45 41 38 36 33 30 30 28 25 25 26 24

GFSGBSN_500_spd_063.txt.gz
Wind_Speed
55 55 56 53 52 53 54 53 52 51 52 53 53 53 50 47 45 44 42 39 37 36 35 36 35 35 33 30 31 26 26 29 30 29 26 27 25 25 21 15 15 12 10 11 13 10 7
54 55 55 53 53 54 53 54 55 55 55 53 52 52 52 52 51 48 44 41 38 36 34 34 35 32 34 28 35 31 27 30 28 27 25 24 23 22 18 14 14 12 11 8 10 14 14
55 55 55 55 54 53 53 53 52 53 55 56 54 52 49 49 49 50 48 44 41 38 34 32 32 35 36 30 38 33 30 29 27 24 23 22 21 22 19 16 12 10 8 7 14 10 16
56 57 56 56 57 56 56 54 52 51 50 52 54 54 53 50 47 47 48 46 44 41 36 33 34 33 29 38 36 30 27 29 26 23 22 21 20 20 17 14 11 8 5 5 21 10 16
59 59 61 60 60 60 59 57 56 54 52 50 49 48 51 51 50 48 48 46 46 43 39 37 35 33 31 31 35 29 28 29 24 22 22 20 18 17 16 13 9 9 6 14 15 13 14
65 65 66 65 65 64 64 63 62 60 57 56 53 50 48 48 50 49 49 48 48 45 41 41 39 36 36 30 29 30 30 29 24 21 21 19 16 15 12 11 4 9 12 11 10 17 11
70 71 71 72 71 71 70 68 66 64 62 60 58 55 52 50 48 47 47 50 52 50 47 43 43 35 35 32 32 32 32 32 25 21 19 18 15 13 7 11 8 15 13 9 11 17 18
79 80 80 80 79 79 78 77 73 70 67 64 61 60 56 54 51 48 46 49 52 50 49 45 42 38 36 34 33 35 32 31 25 21 21 18 13 10 6 4 6 10 7 8 13 13 12
83 85 86 86 86 86 84 81 80 77 75 71 66 62 61 58 54 51 48 49 50 50 49 43 40 39 37 38 33 34 34 30 23 24 20 17 14 10 7 6 7 12 10 17 16 4 7
87 88 89 89 88 88 88 86 84 81 77 75 73 67 64 60 59 55 53 50 49 49 49 47 38 40 41 39 36 31 29 30 30 24 21 17 14 12 10 9 9 5 9 15 14 12 13
81 80 79 77 76 73 75 75 75 78 72 73 74 71 69 65 62 56 57 53 51 49 47 47 42 41 40 42 32 34 33 37 30 24 26 15 16 13 12 12 13 9 16 12 11 9 9
60 56 53 51 50 48 46 48 51 58 63 63 66 69 69 69 66 62 58 58 54 50 48 46 45 39 42 40 43 34 36 36 35 27 27 23 18 15 11 15 13 13 8 9 8 8 7
52 51 51 51 52 53 51 48 45 42 42 56 64 67 68 68 68 66 63 61 58 57 46 48 46 37 40 37 43 40 36 37 34 31 23 24 16 16 12 14 16 14 13 6 9 12 8
45 45 45 46 48 50 50 50 50 47 44 40 46 66 69 70 71 71 69 67 66 53 52 50 45 42 39 35 39 42 38 40 35 31 27 23 21 17 11 14 15 15 16 9 8 8 16
48 49 49 49 49 47 46 44 44 47 47 48 48 45 65 70 71 74 73 75 60 55 56 53 47 42 40 42 38 38 39 41 33 29 30 27 21 20 17 16 19 15 20 19 16 18 13
52 52 52 53 54 55 53 51 48 45 45 49 50 48 45 64 69 74 77 77 61 57 57 55 50 42 44 40 45 41 40 44 39 33 29 28 22 23 18 19 21 21 19 21 23 16 13
58 58 58 59 60 60 60 58 54 52 50 49 52 51 44 50 63 76 84 67 64 63 61 62 50 44 45 45 37 40 38 37 39 36 35 33 28 31 24 19 17 23 24 22 20 20 17
62 63 63 63 61 64 64 62 59 56 55 55 53 49 51 53 58 70 82 69 68 67 65 63 55 48 47 47 39 37 36 34 32 35 39 34 32 29 22 19 21 18 23 24 26 23 26
66 66 67 68 67 68 68 69 66 63 60 59 58 55 56 59 56 64 75 75 76 74 68 65 55 52 46 47 47 33 35 33 38 39 39 38 38 31 22 25 22 22 21 22 25 25 27
77 78 79 76 75 73 72 73 72 67 62 60 64 63 60 61 54 46 65 82 81 75 71 66 60 53 48 48 48 44 30 39 32 36 36 37 37 36 28 18 18 19 23 24 25 28 26
83 79 74 72 70 73 73 69 64 64 65 61 70 69 61 58 51 38 57 76 81 78 71 69 64 53 50 49 52 42 35 39 32 39 37 42 40 35 31 25 21 19 22 24 26 27 28
58 57 58 60 57 60 63 59 60 63 66 68 73 68 60 58 59 51 49 69 81 77 72 72 65 55 51 49 51 42 41 38 37 37 40 39 41 37 34 33 28 28 25 24 23 24 27
44 46 50 57 58 57 58 61 66 63 63 72 68 65 61 63 60 61 48 57 73 76 75 72 65 55 55 50 51 51 44 42 45 41 41 43 43 38 37 31 30 34 25 24 24 25 23
34 48 48 42 51 53 48 50 58 69 69 70 60 61 64 65 60 48 41 48 62 76 74 69 59 57 51 50 49 47 45 45 36 38 44 43 41 40 35 35 40 22 24 21 25 22 24
34 33 43 45 45 47 47 51 57 61 75 65 59 62 62 60 54 56 51 43 56 69 74 71 64 61 52 51 47 45 45 42 38 39 40 42 37 41 39 38 34 31 27 21 20 21 22
42 43 37 48 47 49 51 52 50 56 66 60 57 54 52 56 53 51 49 42 47 66 73 70 64 60 62 53 50 50 46 39 40 43 47 37 36 37 38 40 42 25 24 20 24 23 21
26 31 45 46 50 51 53 47 50 57 66 54 53 54 50 55 42 40 47 37 38 56 67 63 72 58 56 50 52 51 45 51 45 43 39 49 44 40 38 39 34 27 27 22 29 8 19
1 29 37 46 54 53 51 47 57 52 49 54 49 50 42 46 46 47 45 39 31 46 64 64 59 66 51 53 54 53 51 48 48 42 45 47 43 44 36 39 39 30 25 25 16 24 26
24 32 31 44 44 50 51 52 59 56 57 46 45 44 43 43 35 37 37 34 29 35 62 61 54 52 52 53 54 54 52 49 47 46 41 34 40 43 43 40 33 30 29 27 24 23 28

GFSGBSN_500_spd_066.txt.gz
Wind_Speed
53 51 52 51 52 52 51 53 51 48 47 49 48 48 48 48 48 49 46 44 43 43 39 38 33 30 31 32 33 34 32 26 27 26 26 26 23 22 20 22 13 16 16 13 13 16 14
52 53 52 51 51 50 50 49 49 48 47 48 50 49 50 49 48 48 49 47 45 43 40 38 35 33 30 27 35 31 33 29 30 27 26 24 21 20 17 18 16 14 17 14 9 6 15
52 53 52 50 50 50 48 48 47 46 46 47 48 49 50 51 51 50 49 47 45 45 44 41 38 35 31 21 33 31 33 34 27 28 25 23 19 18 15 17 16 15 15 10 6 12 17
53 53 53 53 53 53 52 52 50 49 48 48 48 47 46 47 49 51 50 49 47 43 42 41 40 39 31 28 32 29 29 33 25 25 24 22 19 16 15 16 16 13 13 9 10 14 14
52 53 54 54 54 55 55 54 54 52 52 51 50 49 48 47 46 47 49 50 49 47 43 42 43 40 32 30 31 31 29 28 26 24 22 21 18 15 13 16 11 11 13 11 15 18 8
55 56 55 56 57 58 58 58 58 57 56 55 54 53 51 50 48 46 46 46 47 49 49 45 43 39 38 33 33 34 32 27 26 27 21 20 19 15 12 12 7 3 19 9 17 14 21
59 59 60 61 62 62 63 63 63 62 61 59 57 57 56 53 51 49 47 47 47 47 47 46 47 42 42 39 33 34 34 31 29 29 23 20 19 14 11 10 10 13 23 7 15 22 18
63 64 64 65 66 67 68 67 69 69 67 67 66 63 60 56 53 52 51 49 52 47 46 45 48 46 39 44 38 34 38 33 31 26 26 24 17 14 11 3 10 9 11 15 12 20 16
69 70 71 71 72 73 74 73 73 72 71 71 69 67 65 63 58 56 54 52 54 50 47 43 44 46 37 44 39 37 39 33 32 33 29 23 16 15 10 8 10 8 9 16 17 21 16
73 74 75 76 76 76 76 76 76 76 75 75 74 72 69 65 63 61 58 56 55 54 52 42 43 42 41 40 41 36 37 35 36 33 28 22 19 16 10 10 11 8 8 15 14 12 8
77 77 77 77 77 78 78 76 75 75 76 76 76 73 71 67 64 62 64 60 57 55 53 44 47 42 42 42 35 34 34 39 33 25 29 21 21 18 14 11 16 11 11 19 16 18 14
79 78 77 74 71 68 64 60 56 53 53 55 59 63 67 65 59 63 64 63 59 57 53 49 46 41 40 42 39 36 39 35 30 34 34 26 25 23 16 16 16 14 13 15 14 12 10
76 72 67 62 55 50 49 49 48 47 46 45 44 43 51 59 60 66 66 66 64 64 49 50 49 46 38 40 37 40 41 40 39 37 36 33 31 25 20 18 18 17 13 14 14 10 1
62 57 52 48 48 47 44 43 44 45 44 44 43 42 37 45 62 65 67 68 71 59 53 52 52 53 46 38 36 38 41 41 43 39 33 31 29 23 20 18 17 17 16 18 16 16 15
49 47 48 48 45 42 40 41 42 42 44 42 43 44 41 35 39 55 63 70 71 53 55 53 54 55 51 34 40 35 39 39 40 42 41 31 26 24 23 21 22 14 21 12 24 16 11
47 48 46 44 44 43 43 45 45 45 45 43 40 39 43 42 43 41 55 70 63 59 59 42 48 56 48 39 38 41 39 39 35 44 41 32 26 25 21 24 24 24 18 23 25 19 11
44 45 47 47 48 49 49 46 45 47 47 49 47 45 39 44 47 50 42 61 60 65 63 51 55 52 48 37 40 40 43 36 38 40 40 31 23 25 27 27 23 23 24 25 24 24 23
49 50 52 54 55 55 53 52 52 50 51 54 56 52 46 46 50 48 35 17 53 67 64 63 62 56 47 39 35 42 39 42 42 39 46 40 30 31 34 28 22 24 23 28 31 24 20
54 56 57 59 60 59 58 58 56 56 56 57 61 59 54 53 49 40 36 31 38 62 64 61 65 60 54 45 41 45 42 33 38 36 43 44 34 36 32 34 30 29 26 25 28 28 26
60 62 64 66 66 66 66 64 61 60 58 60 63 65 61 59 51 42 38 39 40 48 63 63 63 47 40 45 48 29 41 35 34 28 37 44 43 38 39 28 24 27 24 28 17 24 26
69 71 73 74 76 75 74 73 71 69 65 65 68 69 63 62 54 49 47 46 49 42 56 64 65 62 44 47 38 50 37 40 36 38 40 43 46 41 40 30 23 21 24 27 30 31 29
80 81 79 79 80 82 84 83 79 67 67 70 73 68 64 61 56 52 49 46 45 42 49 62 67 56 42 36 40 39 34 46 41 39 38 42 45 44 39 37 33 30 23 25 27 28 25
56 51 50 48 49 50 56 66 71 72 73 75 73 66 66 62 62 59 52 46 42 44 38 55 64 64 47 36 37 36 47 50 45 43 41 40 38 45 48 41 42 39 32 31 29 23 21
48 47 49 52 53 51 49 56 65 77 82 76 70 60 62 62 59 56 48 49 47 46 41 41 63 60 54 40 41 35 44 39 40 49 41 41 43 37 42 41 50 42 37 38 34 28 31
48 49 49 48 49 41 52 55 54 66 73 72 62 58 57 52 50 51 52 51 50 47 43 40 53 64 55 62 47 41 41 49 39 48 47 44 45 46 43 42 43 42 32 33 28 27 27
36 37 37 36 37 44 42 51 55 53 70 78 55 55 50 42 41 44 50 54 51 47 44 39 43 54 56 44 31 45 51 43 44 45 45 47 39 42 44 46 48 40 34 31 30 32 21
36 42 45 45 44 39 41 47 56 54 65 64 54 55 59 48 46 48 49 46 46 45 36 31 47 43 53 71 52 33 44 45 41 29 43 41 43 44 43 45 45 38 30 30 37 25 21
30 32 37 36 42 39 41 42 46 53 61 71 60 53 51 52 44 42 34 37 34 37 39 30 46 58 51 61 60 36 39 55 46 33 44 37 39 39 41 41 46 37 32 36 26 20 26
17 6 24 33 42 41 43 45 47 48 56 75 54 49 52 45 38 28 30 27 30 33 31 30 48 49 47 49 61 58 41 49 49 44 42 38 24 40 45 43 37 28 27 29 28 32 30

GFSGBSN_500_spd_069.txt.gz
Wind_Speed
61 59 56 57 55 54 52 51 49 49 48 48 47 44 42 42 42 42 42 42 41 42 41 39 38 37 34 34 22 38 27 27 25 24 27 25 23 23 20 21 19 22 20 14 11 14 13
61 63 62 59 54 53 52 50 51 50 49 48 46 47 46 43 44 44 43 43 41 40 41 40 41 39 35 28 31 32 28 28 27 25 27 26 24 22 18 20 18 20 20 12 10 6 5
61 62 58 54 58 51 46 46 46 46 46 45 45 45 45 44 45 44 45 45 43 43 43 41 40 39 39 26 33 33 26 26 25 26 26 23 20 21 20 18 18 19 16 10 5 4 12
61 59 53 46 45 46 46 45 46 47 47 47 47 47 47 44 44 44 44 45 45 46 45 43 43 41 36 32 34 31 32 27 26 25 25 21 20 18 18 16 16 14 7 10 6 9 15
60 60 54 49 46 47 46 46 49 49 48 48 48 48 48 47 48 46 45 45 44 44 45 44 44 42 35 33 35 32 33 29 29 26 22 24 19 18 20 14 13 13 5 10 9 7 16
55 54 52 48 46 46 46 47 49 50 50 50 50 50 50 49 48 47 46 46 47 45 46 45 43 40 40 37 34 34 34 34 32 29 24 24 21 18 16 15 10 12 8 15 15 14 19
43 42 45 46 47 46 47 49 52 53 54 54 53 52 50 51 50 49 48 47 49 50 46 44 43 39 39 41 39 33 36 38 35 29 25 26 27 16 16 16 13 9 6 11 11 15 20
48 48 49 51 52 52 52 54 56 57 59 57 56 55 55 55 54 53 52 51 52 53 49 47 44 41 39 42 41 39 39 39 38 28 31 32 21 17 19 19 18 8 3 5 20 14 14
53 55 56 56 57 57 58 59 59 58 59 60 60 58 58 58 56 55 56 55 57 57 52 48 47 43 40 43 40 39 42 40 39 35 32 34 16 25 19 19 17 5 10 16 22 20 17
58 60 61 62 62 63 63 63 63 63 62 62 62 61 61 60 58 57 58 57 60 59 56 47 46 43 43 45 40 39 41 38 39 36 30 35 28 33 22 21 15 9 12 19 21 20 23
64 66 67 68 68 69 68 67 66 65 64 64 64 63 64 62 62 59 56 57 60 58 58 49 50 46 46 45 42 37 36 38 38 32 34 29 31 32 20 18 16 12 17 15 17 14 17
69 70 70 71 70 70 70 68 65 63 62 62 61 59 61 61 57 55 55 58 62 62 57 52 49 46 49 45 43 44 39 38 33 39 39 33 25 29 23 19 20 17 22 15 17 15 16
73 73 73 72 70 68 65 62 60 56 52 47 46 44 45 44 38 48 53 60 64 68 50 47 49 49 49 48 40 39 42 44 41 39 35 29 33 33 30 26 25 23 20 17 15 16 11
75 76 75 71 67 62 57 54 49 44 41 40 40 40 40 38 40 41 41 51 65 61 51 44 48 53 51 49 45 42 39 42 43 41 35 34 36 33 31 27 25 22 18 20 17 15 17
73 70 66 62 57 51 47 43 41 40 36 35 34 35 36 34 39 39 41 47 57 53 51 49 38 53 54 52 49 42 43 38 38 39 39 37 37 27 32 25 28 24 23 11 23 17 19
57 54 51 47 44 42 42 42 40 37 34 34 35 36 32 32 38 39 39 25 19 37 54 51 37 43 45 47 38 33 32 39 37 36 37 39 41 32 29 29 28 29 23 20 23 20 19
42 40 39 39 40 41 41 41 39 39 36 36 39 40 33 35 37 34 33 27 25 17 45 47 50 45 41 29 23 28 36 37 38 29 34 39 40 36 34 37 29 31 29 29 26 25 25
37 37 38 38 39 39 39 40 42 42 40 41 46 42 40 40 40 32 28 26 25 29 27 47 45 59 49 39 34 25 27 31 37 35 37 26 24 44 42 34 29 25 31 30 30 27 26
41 41 42 42 43 43 43 44 45 46 47 47 50 48 45 43 41 35 30 28 25 32 25 39 53 47 50 47 39 28 26 28 33 37 42 25 32 42 41 37 33 34 29 27 32 30 31
46 48 48 48 49 48 47 49 50 51 51 51 55 55 52 49 41 38 40 37 32 29 29 26 53 53 50 48 52 41 37 27 32 36 32 28 33 45 43 42 38 33 31 31 34 38 36
52 54 54 54 54 56 56 54 54 54 54 55 58 58 52 51 43 46 45 40 37 33 31 26 48 62 55 45 41 42 24 32 28 38 38 33 32 49 50 32 42 34 29 29 32 30 28
63 65 67 68 68 67 66 65 63 62 60 59 60 59 56 53 53 49 45 39 36 33 34 30 26 54 66 65 46 42 40 34 41 39 37 37 36 54 49 44 24 32 31 25 25 28 29
72 72 74 78 80 80 78 75 73 70 70 68 67 58 58 55 56 52 44 40 39 41 36 26 28 39 57 56 40 33 48 42 34 34 36 31 28 57 53 39 42 43 37 29 29 24 27
44 46 46 45 47 51 57 62 67 70 69 62 64 62 67 68 61 52 45 47 46 43 40 34 29 33 41 55 57 47 38 37 55 44 38 39 37 53 58 39 50 51 37 36 33 31 26
48 51 52 50 48 46 45 46 46 48 54 70 67 70 73 66 56 59 53 47 50 47 45 40 31 32 40 57 50 47 49 45 46 48 37 38 35 53 43 48 53 51 45 34 37 38 36
38 35 37 46 48 47 47 46 47 44 43 66 73 67 70 69 56 52 54 54 54 50 46 41 35 32 32 57 54 55 42 45 36 34 38 34 42 51 54 56 57 51 47 41 39 43 38
34 35 37 39 40 42 45 46 47 52 51 59 76 70 60 62 59 47 54 53 49 46 47 42 33 38 33 48 64 63 57 47 34 37 47 37 34 48 49 51 47 48 42 37 50 42 25
39 41 39 39 41 39 38 39 41 43 52 58 66 65 61 51 55 43 42 46 38 42 44 39 33 33 39 34 56 56 56 46 35 38 31 36 35 42 44 45 46 42 43 40 41 32 26
24 24 27 36 36 44 40 37 43 40 46 55 55 62 55 51 47 35 32 32 31 33 35 36 32 28 28 38 34 55 53 52 45 35 43 36 31 43 42 46 37 29 37 40 39 34 35

GFSGBSN_500_spd_075.txt.gz
Wind_Speed
62 63 63 65 66 65 63 60 62 62 60 59 54 51 52 50 48 47 46 44 42 42 40 39 38 36 35 33 28 35 29 28 29 28 26 24 23 23 20 23 27 20 21 23 22 26 25
66 68 68 67 66 66 65 63 61 62 62 62 57 55 55 59 55 52 49 47 44 43 41 39 37 36 35 33 33 34 31 29 30 28 27 27 24 24 18 22 26 22 19 21 25 24 23
67 70 70 72 68 66 64 61 60 58 57 57 56 56 53 53 60 59 54 49 48 46 45 41 37 36 34 29 33 32 34 33 32 31 29 30 30 25 20 22 25 21 17 22 22 23 21
63 65 68 69 69 67 67 60 60 58 59 57 57 56 52 53 55 59 50 45 46 47 47 46 44 39 34 34 36 35 36 33 33 32 30 33 34 26 21 22 23 21 17 21 23 21 22
62 62 62 62 63 62 61 59 58 58 60 58 56 53 46 48 50 51 41 38 39 40 42 45 46 44 38 37 38 38 36 34 37 35 32 36 35 28 24 21 21 20 18 21 25 23 23
57 57 56 56 56 58 58 58 58 55 56 53 49 44 44 41 46 44 48 45 44 43 41 43 43 42 40 35 36 36 37 36 37 37 35 34 34 29 24 19 14 23 23 22 23 24 28
54 53 52 52 49 49 51 50 48 53 53 53 54 47 37 42 35 35 37 39 41 42 42 44 43 40 39 38 36 38 38 39 39 40 38 33 37 24 19 19 24 31 26 21 20 26 29
52 52 51 51 52 48 41 38 36 32 34 42 47 40 41 39 40 43 42 43 39 39 42 41 41 43 37 40 41 39 40 40 39 38 39 40 37 20 25 27 29 30 30 23 22 24 29
52 50 51 48 48 46 41 40 39 37 37 36 36 37 38 37 39 41 42 43 44 43 46 40 40 42 34 39 41 36 42 40 39 41 42 42 30 31 31 31 30 29 29 26 27 26 29
57 55 50 51 47 45 45 43 44 44 42 43 43 42 43 42 43 45 44 45 44 46 45 46 41 44 43 40 45 39 42 38 39 39 40 42 37 33 35 35 30 30 26 28 32 30 30
63 61 58 56 54 53 51 48 48 48 47 47 45 45 45 44 47 49 47 46 46 44 46 41 42 43 46 47 46 47 43 43 41 40 39 38 34 35 36 29 34 23 31 30 33 34 31
69 67 64 61 59 57 57 55 54 51 51 49 48 47 47 47 49 51 48 50 49 47 44 45 46 47 48 48 50 52 49 49 43 43 43 44 41 41 39 29 38 27 34 37 33 35 31
73 70 69 67 64 63 60 58 56 55 54 53 51 50 49 48 53 53 52 53 52 49 45 47 51 55 53 51 50 50 48 48 48 46 45 44 44 41 40 38 40 39 34 37 37 37 25
74 71 70 69 67 65 63 61 59 57 55 54 53 52 52 52 55 55 54 55 54 48 48 50 54 54 54 55 51 52 50 49 51 48 47 45 46 41 39 40 36 35 36 37 39 35 26
69 70 70 68 67 65 63 62 60 58 57 57 57 56 56 55 55 55 56 57 50 49 49 45 48 51 52 54 56 50 54 53 48 46 46 48 49 40 37 33 35 36 41 37 37 39 36
55 60 64 67 66 64 62 59 59 58 57 57 57 56 53 51 51 52 54 49 47 47 44 45 40 40 46 53 56 57 53 54 55 49 42 42 43 38 38 36 37 38 38 40 41 43 38
48 52 56 59 61 61 59 57 57 56 55 52 50 50 48 46 46 47 49 44 41 40 38 35 34 28 31 46 50 54 56 52 49 47 39 38 40 39 38 41 40 43 42 40 42 44 40
45 47 49 52 55 55 54 53 53 51 46 45 45 47 42 41 46 44 42 37 33 31 28 29 32 28 17 32 44 45 36 51 54 52 48 44 42 41 36 41 41 42 40 38 41 47 42
29 36 38 39 42 44 45 44 43 41 40 38 38 37 34 38 47 44 39 36 35 27 23 28 34 34 27 28 46 52 37 36 48 52 50 41 47 45 40 45 45 45 45 40 44 44 41
21 19 20 22 25 29 31 33 33 32 31 33 38 38 43 41 45 42 40 39 35 28 26 26 27 27 31 29 51 46 43 39 36 47 49 43 48 48 45 42 45 46 47 40 46 49 45
26 25 26 26 27 28 30 32 32 33 35 46 45 48 44 41 40 40 40 36 33 28 26 25 24 25 27 28 51 47 55 42 38 40 39 44 47 49 41 37 40 48 45 41 48 49 47
34 34 34 34 36 37 38 38 39 40 42 50 52 44 47 43 45 42 44 36 33 28 24 26 21 22 27 22 45 54 44 32 52 40 34 40 45 41 39 37 35 36 32 39 47 54 52
42 43 42 41 42 44 45 47 47 48 51 55 53 50 52 50 49 45 41 37 32 30 26 27 29 26 23 20 35 52 51 43 32 33 24 37 41 45 41 35 33 40 35 38 43 55 55
49 49 51 51 52 54 55 56 54 55 58 58 56 53 53 55 51 46 45 41 36 34 30 30 31 27 24 30 25 37 56 57 50 36 33 24 37 32 33 35 36 33 31 39 48 49 51
31 31 33 36 39 43 50 59 64 63 63 62 61 58 54 54 55 49 43 42 40 37 33 28 32 32 29 30 27 26 31 46 55 51 45 43 24 33 36 30 34 39 21 34 50 44 50
28 32 35 38 39 40 42 45 48 60 66 60 62 61 59 58 57 52 47 45 41 38 36 28 30 35 34 34 30 26 21 24 41 45 46 49 44 41 17 35 34 34 27 30 48 44 41
31 34 38 43 45 45 45 46 49 48 52 64 67 64 61 61 59 56 50 46 44 40 37 32 32 36 38 37 33 27 21 23 26 34 42 48 54 48 38 28 36 30 25 26 38 42 38
33 34 37 37 38 42 42 45 47 47 48 54 50 56 70 70 65 60 57 51 47 42 38 34 35 37 39 39 37 32 27 23 27 30 42 47 46 44 43 36 34 37 27 25 33 36 34
27 23 27 32 34 42 42 40 42 43 44 44 51 48 47 65 71 68 61 55 48 40 38 37 34 36 39 40 39 35 31 26 24 24 36 50 57 51 44 38 39 36 35 31 28 19 37

GFSGBSN_500_spd_078.txt.gz
Wind_Speed
59 56 56 57 58 59 61 62 64 64 67 68 67 65 63 59 57 54 53 54 52 50 48 44 40 41 39 40 37 38 35 35 32 31 32 31 29 29 25 23 24 21 21 24 22 26 30
61 59 60 63 63 64 65 65 68 70 69 69 69 66 62 62 58 61 57 55 56 55 52 47 44 41 40 39 39 41 37 35 33 35 33 32 31 31 25 22 25 24 24 20 24 24 27
59 62 62 65 65 65 67 69 71 71 71 71 67 67 62 59 55 58 58 56 56 58 56 50 46 44 41 33 38 40 38 39 34 34 35 35 34 34 29 23 26 23 24 21 24 28 28
62 63 65 64 63 64 65 68 69 70 70 68 67 65 60 59 55 55 56 56 55 55 57 58 51 48 44 37 40 38 39 35 34 34 37 38 36 34 31 25 26 24 23 20 28 28 29
63 63 62 60 62 62 64 65 67 67 66 64 62 63 61 58 55 54 55 53 54 54 53 57 55 53 44 40 40 40 38 38 38 37 38 41 38 36 32 27 24 23 20 24 28 30 29
58 57 57 58 58 59 61 62 61 58 59 59 61 59 59 59 52 51 48 48 49 50 47 51 49 52 49 37 37 40 39 39 39 40 42 42 39 37 29 25 20 23 25 28 22 29 31
51 51 52 53 54 55 56 56 54 55 54 54 56 57 57 56 46 44 41 39 44 48 48 47 45 44 38 33 33 35 39 39 40 41 40 38 42 35 23 26 27 28 30 27 21 25 34
55 54 55 54 54 54 55 54 53 52 49 50 51 50 51 49 51 49 48 41 37 42 42 38 41 40 39 38 37 38 40 38 36 34 36 41 42 23 30 30 31 31 30 26 22 23 34
61 61 60 59 57 55 54 53 52 50 51 46 41 37 38 42 45 43 47 40 40 44 44 37 39 38 35 39 40 35 42 41 38 37 35 39 36 30 31 33 34 31 26 25 28 31 32
68 68 67 65 62 59 56 54 53 49 49 44 42 36 36 35 34 37 35 40 36 39 42 35 34 43 41 38 45 36 41 41 39 37 36 41 38 33 34 36 31 36 23 30 33 33 33
74 74 73 71 68 65 60 58 53 52 48 44 42 43 43 42 41 41 38 40 39 37 41 36 34 36 40 42 45 44 40 44 40 37 36 37 31 30 33 28 33 30 30 36 33 37 36
77 75 75 74 72 70 66 62 59 57 53 51 49 47 47 43 45 47 42 44 42 38 38 39 38 36 38 39 40 45 42 41 43 43 39 41 39 37 36 29 37 32 33 38 35 38 40
77 76 78 79 77 72 69 68 64 61 58 56 57 54 51 47 48 45 44 44 42 40 37 40 43 44 42 41 41 40 40 39 42 46 45 44 43 40 39 36 37 37 37 36 40 41 34
70 70 72 71 73 74 70 68 66 64 61 59 59 58 55 53 52 51 49 46 41 37 37 42 44 46 46 45 44 43 42 41 43 44 49 49 48 44 41 38 36 34 36 38 41 39 34
55 55 56 56 58 63 67 67 65 63 61 59 58 59 57 56 55 52 52 50 41 40 43 44 46 48 49 48 46 45 45 46 46 48 49 49 50 47 45 41 35 36 40 36 36 40 39
45 41 39 41 45 50 57 61 62 60 58 57 55 57 57 55 56 53 53 48 45 45 46 46 47 49 49 50 52 49 46 46 50 50 51 51 51 50 48 43 38 40 37 38 42 44 40
43 41 37 35 37 41 46 52 56 58 56 55 55 56 55 53 53 56 52 49 48 48 50 50 49 46 45 46 50 51 48 47 47 49 52 51 53 50 48 45 39 42 44 44 44 44 38
33 35 39 39 39 41 42 46 51 54 53 55 54 55 54 52 54 56 51 50 50 49 49 47 41 38 35 41 48 51 49 43 46 47 51 51 51 51 47 42 40 43 43 43 43 41 40
28 25 24 29 35 42 42 43 44 47 50 51 53 51 52 52 55 55 54 52 49 46 40 34 32 33 34 38 43 39 40 38 44 44 45 48 51 54 51 47 46 47 48 47 46 44 44
25 22 22 22 20 20 30 36 39 42 44 47 49 50 51 53 51 50 49 44 41 36 31 29 28 27 33 35 36 34 33 36 35 41 45 45 49 48 51 47 47 46 48 50 48 47 46
29 28 26 23 23 21 18 22 30 36 40 44 45 48 45 48 42 38 34 32 35 33 32 31 29 27 27 36 39 38 32 36 43 35 32 38 40 48 46 48 49 47 45 45 46 44 45
34 32 30 29 25 25 24 21 24 29 34 39 38 37 33 25 29 34 35 29 32 30 31 31 28 23 29 31 34 36 35 32 46 44 42 32 37 44 47 48 46 51 49 47 46 46 47
38 37 36 35 33 32 31 31 30 32 37 38 34 34 33 28 31 31 27 27 29 32 32 28 26 25 27 29 29 33 33 32 45 52 36 19 27 20 41 46 46 49 46 43 44 46 49
47 47 47 46 44 42 40 41 42 44 48 50 45 40 47 47 40 31 30 31 33 31 33 30 26 27 29 30 25 25 21 24 31 43 43 37 43 12 35 39 38 45 42 39 38 38 43
29 30 34 40 47 51 51 51 52 54 54 56 54 52 50 47 41 41 40 36 35 36 35 31 26 27 33 31 27 24 21 22 33 35 38 20 35 23 17 36 35 39 38 31 33 35 40
24 24 23 22 23 27 35 44 57 61 60 64 60 56 55 52 48 45 42 40 37 37 35 29 27 30 32 33 30 24 23 18 20 34 43 44 45 40 32 15 31 30 32 33 37 34 30
29 28 29 31 32 33 35 34 37 48 61 63 63 65 62 60 54 49 44 41 41 38 34 31 30 31 37 36 33 27 24 20 19 20 21 28 36 34 34 33 20 21 13 28 37 29 29
29 35 38 37 37 38 38 42 42 42 43 50 55 59 62 65 61 55 50 44 42 39 34 32 34 34 35 33 33 31 24 20 18 18 18 22 27 29 34 35 38 26 20 22 27 25 27
33 32 32 33 34 36 38 39 44 46 42 44 45 50 55 58 62 60 56 48 43 41 33 32 34 36 36 34 32 31 29 25 22 19 19 23 26 34 36 35 37 32 31 29 23 27 22

GFSGBSN_500_spd_081.txt.gz
Wind_Speed
57 55 54 53 53 54 55 55 55 57 57 57 60 62 61 61 61 61 61 60 60 58 56 51 50 47 43 45 41 44 40 40 40 38 36 35 33 33 33 30 28 21 20 21 21 27 31
60 58 56 56 54 54 55 55 56 58 59 60 63 65 66 65 64 62 63 61 60 60 59 55 52 48 49 46 44 45 42 41 41 41 40 37 36 36 34 30 28 26 21 19 22 24 30
57 57 57 55 55 57 58 57 59 59 62 66 66 70 67 67 66 66 63 62 60 58 57 55 56 52 50 46 50 45 43 43 42 42 40 39 39 39 34 29 28 27 24 19 23 25 29
56 57 59 60 58 59 62 62 65 67 69 70 68 68 66 63 61 61 63 63 60 59 58 56 54 51 48 49 55 48 44 41 42 42 41 41 42 39 34 32 28 28 25 19 25 30 28
61 62 62 63 61 61 65 67 68 67 68 71 68 66 64 61 58 57 58 59 59 58 56 56 56 51 47 48 57 51 45 42 41 38 40 41 42 38 36 32 28 28 22 23 29 32 27
62 63 61 61 59 61 63 63 64 62 66 67 64 63 59 57 52 53 55 55 55 55 55 55 54 53 47 44 49 46 46 43 41 41 41 42 41 39 38 28 25 25 26 27 27 31 31
58 57 56 54 55 57 57 57 57 57 58 56 54 52 53 51 51 51 53 54 54 54 56 54 51 49 46 40 44 46 37 39 37 39 41 40 43 42 26 30 33 30 31 29 24 30 32
54 54 54 54 54 55 55 54 53 54 53 53 53 50 49 48 48 49 51 51 52 52 50 51 50 48 41 41 39 36 34 36 37 31 37 41 43 31 31 31 32 31 31 24 23 29 37
57 57 58 58 58 60 60 60 59 57 54 51 50 48 48 48 46 45 49 49 45 45 44 39 42 42 39 42 40 39 40 36 35 35 33 36 36 34 35 33 34 30 30 22 27 33 36
62 62 63 64 65 67 67 66 65 61 58 54 52 50 48 47 43 42 40 37 45 43 44 38 40 42 42 38 40 31 38 38 41 34 34 39 38 33 31 30 30 32 24 29 31 35 34
66 67 68 69 70 71 71 69 68 65 63 60 55 53 50 46 43 41 35 32 28 27 40 37 35 36 37 34 38 38 38 38 34 34 33 36 36 33 33 30 30 28 32 32 34 35 37
69 69 72 72 72 71 70 69 67 66 64 63 62 58 53 46 44 41 37 38 34 30 38 31 31 31 29 33 31 32 35 40 38 35 34 36 37 33 35 31 31 33 35 34 35 37 39
70 68 70 72 72 74 75 73 71 68 67 65 64 63 57 51 50 45 42 41 36 39 37 35 34 34 31 33 31 30 28 30 35 39 38 37 38 35 36 34 32 35 33 35 38 40 34
69 71 72 75 75 74 72 69 67 66 64 66 66 63 60 56 52 49 48 46 42 37 33 33 35 35 35 33 31 30 30 30 30 32 36 37 40 41 39 35 32 32 33 37 40 36 33
68 69 70 69 63 57 55 54 54 54 57 61 65 61 57 55 53 52 51 48 43 39 38 38 39 38 35 33 33 34 34 33 33 34 36 37 40 42 41 41 38 37 38 32 37 40 38
61 61 54 50 49 46 43 41 40 44 47 51 55 56 52 52 52 51 53 50 46 43 43 40 41 38 37 37 38 37 36 36 36 37 38 39 40 40 43 43 43 44 41 39 43 43 41
38 28 28 30 34 37 37 34 31 35 39 44 48 52 47 47 49 52 55 52 49 47 46 44 42 40 40 41 41 41 40 40 39 40 42 43 45 42 43 44 41 42 43 44 43 46 42
33 33 32 29 26 29 31 33 32 32 36 42 46 50 45 48 49 52 54 50 49 48 47 45 43 42 42 43 44 45 44 48 46 43 43 43 46 46 43 42 42 44 45 44 45 46 45
30 30 29 25 26 24 22 28 32 33 36 39 43 45 45 47 52 48 47 48 47 47 47 46 44 43 42 42 44 46 47 45 49 45 42 42 45 46 45 40 42 43 48 48 47 48 48
29 27 26 26 25 23 24 24 21 31 34 38 40 43 47 47 48 47 46 46 46 44 45 45 44 42 39 36 38 43 43 39 37 42 40 38 41 44 44 43 43 39 38 47 48 49 47
28 28 28 28 28 27 26 24 24 20 29 36 41 41 42 46 47 45 44 43 42 43 42 39 40 34 29 28 30 37 37 38 36 29 33 34 36 38 41 37 38 42 44 44 49 49 51
29 31 33 33 32 32 30 27 26 24 22 32 38 36 37 40 40 40 39 37 36 36 34 33 31 26 25 23 26 34 37 37 40 36 22 30 32 37 34 32 30 40 39 42 45 47 51
35 38 38 36 35 35 34 31 29 30 25 25 26 30 34 36 36 35 36 28 25 25 26 28 27 26 23 24 32 32 37 37 33 35 35 30 33 28 26 32 40 39 43 41 43 47 48
40 42 43 44 43 42 40 39 34 34 34 25 19 22 28 28 30 27 25 31 26 17 25 26 23 25 23 28 29 29 28 30 34 29 34 30 44 34 27 10 23 32 40 39 38 41 44
36 26 21 21 24 33 43 46 43 37 42 36 27 29 25 25 24 23 28 29 27 23 24 24 20 20 22 27 29 27 24 25 21 19 23 30 43 45 27 16 13 25 25 31 36 36 39
22 23 24 23 24 23 22 34 45 42 45 48 39 35 34 33 32 28 27 26 23 21 20 19 22 21 22 26 30 27 23 20 18 12 15 28 32 41 37 29 21 10 20 21 30 35 31
24 26 28 28 30 29 28 26 27 37 42 50 52 46 43 41 35 33 29 27 26 26 22 23 23 23 26 29 31 30 24 21 16 10 9 19 33 35 33 34 22 17 10 17 28 28 32
29 30 31 31 31 34 34 33 32 29 34 43 52 57 56 52 47 41 37 33 30 26 24 25 25 25 29 28 32 32 28 22 16 10 7 9 12 15 23 19 30 19 15 12 16 18 22
32 34 36 37 37 37 39 39 38 36 35 34 40 53 53 56 55 50 45 40 35 31 33 30 25 26 29 29 31 32 29 23 18 13 11 9 15 16 16 13 16 18 17 20 18 16 15

GFSGBSN_500_spd_084.txt.gz
Wind_Speed
61 60 59 59 59 58 58 55 54 54 53 53 53 51 51 50 51 53 54 55 56 56 56 59 58 54 48 47 41 43 43 44 42 45 43 43 42 38 37 35 34 30 24 25 27 28 28
66 66 63 62 62 60 60 58 56 56 56 54 54 55 55 54 54 54 53 56 59 60 63 63 62 57 54 49 45 44 45 46 46 45 45 44 45 41 39 37 34 31 27 25 26 28 29
68 69 67 63 61 61 61 60 56 56 56 57 58 58 58 57 58 60 59 60 64 65 67 66 65 60 59 45 46 47 47 51 49 44 47 45 47 45 42 40 35 32 27 26 24 28 31
66 65 64 64 63 61 61 60 60 60 61 61 60 60 60 59 62 63 65 65 67 65 65 63 63 61 57 48 48 48 49 51 55 45 48 46 47 48 44 42 37 33 29 25 25 30 35
62 63 61 62 60 60 62 62 63 63 63 64 64 63 64 63 63 66 67 67 66 65 63 61 57 54 51 49 48 46 47 50 57 50 47 47 49 48 47 41 39 32 28 24 25 33 38
58 59 60 61 62 63 63 63 63 63 63 64 64 63 63 62 61 66 65 66 67 64 59 55 52 48 47 48 46 43 46 51 53 52 49 50 47 49 48 42 33 29 31 26 26 39 35
59 59 62 62 61 62 60 59 60 58 59 58 59 57 55 54 55 57 57 53 54 58 55 52 48 46 46 47 46 44 43 47 52 49 46 50 48 48 42 33 34 36 34 31 26 38 35
60 61 59 59 60 59 55 56 56 54 54 55 54 51 50 49 51 52 52 49 50 53 50 47 47 42 46 48 46 42 41 42 44 41 43 51 51 46 35 38 32 37 36 27 28 38 37
61 61 61 57 58 57 55 55 56 55 56 55 54 54 52 50 48 47 47 47 46 46 47 42 42 43 43 46 44 43 43 41 38 38 39 45 47 40 38 35 35 35 34 23 33 38 37
61 62 61 61 60 60 60 60 59 60 60 60 59 59 58 55 51 50 47 46 44 42 44 41 42 42 43 42 42 40 38 40 38 38 34 39 46 34 31 33 35 36 30 31 35 37 36
65 64 63 63 63 63 63 63 64 63 65 64 64 63 60 56 54 55 48 45 42 39 41 36 34 35 38 40 37 35 35 37 32 31 41 35 32 34 30 26 30 31 33 34 36 37 37
66 67 65 64 66 66 67 66 66 67 67 66 65 62 59 55 52 57 51 48 41 39 42 33 28 29 28 29 29 28 30 32 37 34 31 35 37 37 30 32 31 31 34 36 36 37 42
65 64 64 63 64 65 66 67 68 69 69 69 69 67 62 59 55 55 53 50 44 43 41 38 32 28 26 25 23 23 28 24 25 31 39 34 34 33 31 30 33 33 32 34 37 41 40
62 60 60 60 61 62 64 67 69 70 71 72 71 67 62 58 57 56 54 52 49 43 40 36 34 31 28 27 24 20 22 25 25 24 26 31 37 38 34 31 31 29 29 33 39 38 35
55 54 55 56 57 59 62 65 65 62 57 53 52 51 49 52 55 57 54 55 51 47 42 39 40 36 32 30 27 27 26 24 26 29 29 30 31 32 35 36 36 34 38 31 35 38 39
49 51 51 52 52 53 51 40 38 38 41 42 41 43 41 47 48 52 55 54 55 49 44 41 38 35 34 33 28 28 27 28 26 29 28 29 30 32 34 35 35 39 40 37 38 40 39
39 41 41 43 46 34 26 28 30 35 35 35 34 34 31 38 39 48 53 52 51 48 45 43 39 37 35 35 32 30 31 28 28 28 29 31 31 29 32 32 32 34 38 38 40 42 40
35 36 37 39 34 31 30 31 28 27 31 32 30 28 26 34 40 46 47 46 43 43 42 43 42 40 37 36 36 35 33 33 29 29 31 32 33 33 32 34 33 33 34 39 42 43 45
34 33 34 33 33 32 29 27 30 25 25 34 31 26 27 32 36 41 41 42 41 41 39 40 40 39 38 37 36 36 35 34 33 32 33 34 36 36 35 34 35 37 36 34 36 41 44
32 32 32 31 31 29 27 27 24 26 27 26 33 30 29 32 35 36 39 39 39 37 36 39 38 38 36 36 36 36 33 34 34 35 37 37 38 39 37 36 37 40 38 41 40 43 41
31 30 29 29 29 28 28 28 26 25 25 30 27 28 27 31 33 34 37 39 37 37 37 34 37 37 34 32 34 35 34 35 36 38 40 40 40 39 38 36 36 39 40 41 42 44 47
26 26 28 29 29 30 31 31 30 28 27 33 30 25 26 26 30 36 37 39 37 35 35 32 34 31 32 31 29 31 35 36 37 37 38 39 32 26 27 30 30 36 36 37 44 44 44
25 27 29 31 33 35 36 35 33 31 32 34 28 23 19 22 30 29 37 33 32 29 28 27 25 30 29 27 29 30 31 30 28 30 34 34 29 20 23 29 26 25 32 35 37 42 47
28 31 34 36 39 40 39 37 34 32 33 35 30 23 21 17 27 29 30 31 30 27 23 24 24 25 27 28 28 26 26 27 27 28 32 31 31 33 26 28 28 20 27 38 37 39 40
33 35 38 40 40 37 33 35 37 35 35 36 33 26 18 15 21 28 29 28 26 27 30 27 23 25 23 25 24 25 26 26 23 24 26 27 30 32 31 30 26 19 5 23 31 36 37
34 32 28 24 23 23 22 20 20 29 35 39 38 31 22 19 18 20 23 22 25 30 27 29 23 21 19 21 25 27 24 21 20 17 18 21 28 27 29 30 35 30 8 14 20 28 36
25 25 25 26 26 26 27 26 24 23 28 34 38 38 30 26 24 24 26 26 28 29 26 23 20 18 19 23 26 24 20 20 17 13 12 13 19 21 22 27 29 30 24 4 22 15 24
24 26 28 29 30 30 31 32 29 28 26 26 35 44 39 33 29 32 31 31 31 26 23 21 19 17 20 25 25 24 19 19 15 13 11 9 8 14 20 22 29 25 21 6 8 13 24
27 28 31 32 34 35 33 33 32 31 29 26 28 42 44 41 39 36 34 30 25 23 25 21 18 18 21 23 23 21 19 17 18 17 15 16 12 9 9 14 19 18 19 18 12 15 18

GFSGBSN_500_spd_087.txt.gz
Wind_Speed
59 58 61 61 60 61 62 59 59 59 58 58 56 57 55 56 54 54 53 52 51 50 47 47 47 50 51 50 45 52 46 43 41 40 40 40 42 42 44 40 40 42 35 33 31 33 33
63 62 62 64 67 67 65 64 63 61 61 61 59 58 58 57 57 55 54 53 53 51 50 49 48 49 50 53 49 50 50 47 44 42 41 42 44 44 47 45 42 41 39 34 31 31 34
62 65 68 69 68 67 66 63 64 63 62 61 60 61 58 58 57 56 56 56 57 57 55 53 52 54 50 48 53 53 51 50 47 44 44 44 45 46 47 49 46 43 41 37 31 31 33
64 65 62 63 63 62 61 63 63 62 60 61 60 59 58 58 59 58 59 59 59 58 57 58 57 57 56 50 54 53 52 49 46 45 46 47 47 48 50 49 49 44 43 39 29 33 31
64 63 63 63 65 64 61 62 63 61 60 57 60 59 59 59 58 57 59 59 61 61 60 61 61 62 63 57 55 50 53 49 47 46 47 48 51 51 50 52 52 48 44 40 31 35 32
59 62 61 61 60 60 59 57 57 56 57 55 58 59 60 59 57 56 58 59 60 62 61 63 63 63 61 63 57 50 51 49 48 47 49 49 50 52 53 55 56 48 39 38 35 26 33
62 60 59 58 58 59 58 57 54 54 55 53 53 54 56 55 55 54 56 54 58 58 62 59 58 54 58 59 57 53 49 48 48 47 48 47 54 51 50 49 51 43 41 43 40 24 39
67 66 64 62 60 58 56 57 52 53 53 51 52 51 52 51 49 50 51 49 52 56 60 51 50 54 50 53 51 49 48 45 44 43 43 50 50 41 44 52 55 44 45 48 34 34 42
69 66 65 64 62 59 56 57 55 53 52 51 50 50 49 49 49 49 49 48 47 47 50 48 46 49 51 52 49 45 46 41 42 43 45 45 40 40 42 50 52 42 39 38 35 35 40
75 72 68 65 63 60 57 57 57 55 53 52 52 54 51 51 52 52 52 49 49 49 49 47 43 45 46 47 44 44 44 41 42 44 40 44 41 46 37 45 46 45 36 35 36 39 44
77 76 73 67 64 61 59 59 58 56 56 54 55 55 54 53 54 55 54 52 51 49 49 52 44 42 42 38 39 41 38 39 37 38 47 42 38 38 41 38 36 41 37 38 37 41 41
75 71 70 71 67 62 60 60 58 58 58 57 57 56 56 57 56 56 55 52 48 47 51 52 45 41 37 32 28 31 33 39 34 37 41 36 40 40 33 28 40 29 35 35 36 38 41
72 65 62 62 63 62 59 58 57 58 59 59 58 57 58 58 57 58 56 54 50 50 50 48 47 41 35 25 19 21 27 29 26 31 34 32 35 32 33 29 32 31 28 29 31 36 38
56 53 53 53 51 52 52 53 53 54 54 55 57 59 60 61 62 62 60 59 55 52 50 51 45 41 34 30 28 28 27 24 26 21 29 29 38 35 30 33 29 31 32 30 24 18 21
38 39 41 44 45 45 45 45 45 46 48 51 55 58 60 61 59 56 56 60 56 52 52 48 46 41 37 31 29 24 23 22 30 25 27 28 27 34 36 31 35 35 33 27 33 23 21
30 34 36 39 40 41 40 40 39 39 44 44 43 42 41 40 39 41 48 53 51 46 54 49 43 41 24 33 32 29 24 25 26 25 30 31 28 28 28 39 40 38 30 37 36 38 31
25 27 32 36 38 38 36 35 34 35 30 26 27 29 29 30 28 30 41 36 43 45 52 45 39 42 38 36 33 31 29 25 25 24 24 30 29 28 29 26 28 30 36 36 34 36 30
24 25 25 27 29 31 31 31 32 30 29 29 29 24 24 21 24 30 33 29 29 35 45 40 41 40 39 38 34 32 33 28 25 22 26 24 25 29 26 26 27 30 31 32 36 36 27
24 28 29 29 29 29 29 30 30 29 30 31 30 27 23 21 24 22 26 31 33 35 36 37 38 38 38 36 33 30 30 29 26 28 27 24 25 24 25 27 28 28 30 32 34 35 38
26 25 25 25 27 29 31 28 27 28 28 29 29 27 22 24 22 24 23 27 31 31 32 34 34 35 36 35 33 31 30 31 29 29 26 26 25 25 23 21 25 30 33 35 36 37 35
23 22 24 27 28 30 26 25 27 27 28 31 28 22 19 20 23 24 27 25 29 28 28 28 27 29 32 31 31 29 28 29 28 30 27 27 26 28 26 28 33 31 31 31 34 35 38
25 22 24 27 27 24 24 24 27 29 31 32 30 23 23 16 22 22 28 27 27 26 23 27 27 25 30 29 30 26 31 31 31 30 26 28 26 27 27 22 26 31 31 32 33 35 37
27 25 22 21 22 24 25 28 29 30 34 33 31 26 24 16 20 27 23 26 28 26 29 21 20 25 25 25 29 30 31 30 29 28 27 28 25 25 23 22 23 29 27 29 32 35 38
19 19 22 23 25 27 29 31 32 32 35 36 32 27 26 15 16 20 22 24 28 28 24 18 22 22 20 24 26 27 28 28 29 25 26 22 22 25 25 24 25 19 25 25 28 29 34
21 23 25 27 29 31 33 35 35 35 34 35 32 31 25 16 16 22 25 23 26 26 25 26 20 20 17 20 24 26 27 26 22 22 21 20 22 24 25 24 25 20 21 20 22 28 32
23 24 25 28 30 33 35 36 35 33 34 36 36 32 30 22 14 19 25 24 25 28 26 27 25 23 21 21 24 25 22 21 22 20 20 21 20 21 22 19 22 21 23 18 10 19 22
27 27 27 27 26 24 23 23 22 22 22 25 31 33 34 25 19 23 25 25 27 26 28 30 32 24 26 21 22 22 22 23 19 17 18 17 18 19 19 22 21 23 28 29 19 20 22
24 23 23 24 25 25 25 26 26 25 24 22 20 29 36 27 22 20 27 35 31 30 29 32 28 29 20 21 23 19 21 21 20 19 19 17 13 12 18 21 21 27 23 28 24 15 14
25 26 27 27 29 30 30 29 29 28 27 26 22 22 30 32 27 26 31 39 40 35 29 29 25 21 19 22 20 17 15 19 20 21 20 19 14 10 9 15 16 24 27 24 27 16 17

GFSGBSN_500_spd_093.txt.gz
Wind_Speed
65 66 64 66 67 66 64 66 69 67 68 67 65 64 62 63 62 60 58 57 55 54 55 54 56 54 51 48 47 50 49 46 42 41 39 38 36 36 37 35 35 37 32 35 34 35 34
61 62 63 65 66 66 67 70 69 72 70 69 70 67 66 62 62 62 62 63 62 60 59 59 57 57 53 50 49 48 45 42 40 37 38 37 36 38 41 40 38 32 35 36 38 35 33
56 58 59 60 62 64 65 64 67 69 69 68 68 70 69 66 64 61 61 63 63 62 60 60 59 56 52 50 48 46 44 43 41 40 38 38 35 38 40 40 37 36 40 40 41 34 37
48 50 53 54 56 57 59 61 59 63 63 64 62 64 63 64 62 59 54 55 56 56 54 55 57 55 52 49 47 46 45 42 42 42 39 37 38 41 38 35 36 37 42 43 40 37 36
52 55 57 59 58 59 59 58 57 60 61 56 60 59 60 58 55 52 50 48 51 50 49 51 52 53 51 50 48 46 46 44 44 44 39 39 40 40 36 38 41 41 46 45 40 38 40
59 62 65 67 67 69 67 63 62 61 58 55 56 55 52 53 50 48 49 47 48 49 49 48 50 50 51 49 48 44 47 45 40 39 39 38 35 38 42 43 45 39 41 43 44 39 42
63 65 68 72 75 75 75 74 70 67 64 57 55 56 51 49 47 46 44 44 49 50 48 45 49 47 46 48 47 41 39 41 38 37 34 31 40 42 35 36 39 42 43 44 44 46 50
66 68 72 75 78 79 81 80 75 73 70 63 57 54 53 48 45 46 47 46 45 47 44 44 44 46 40 48 49 32 41 38 33 31 32 38 41 34 34 38 42 44 46 48 48 51 50
66 69 72 74 77 78 81 81 81 76 67 63 59 56 49 44 44 45 45 42 42 41 47 40 40 43 36 45 44 31 40 32 28 31 33 34 36 36 39 40 44 46 45 45 50 52 55
71 75 74 75 74 75 74 78 80 77 68 60 55 50 46 44 43 44 43 43 41 39 43 44 37 38 38 36 40 33 36 36 37 31 30 36 36 38 41 42 44 46 42 43 48 52 55
73 69 72 78 76 72 69 70 70 67 64 56 48 47 43 43 42 43 42 42 41 39 42 44 43 36 35 35 35 33 31 34 33 32 34 32 34 36 40 42 42 44 40 39 45 49 49
64 66 74 69 60 51 48 53 55 52 50 49 44 42 42 39 40 42 40 40 37 36 34 34 38 39 35 34 31 32 30 32 32 35 37 35 34 39 41 44 46 45 41 40 45 44 48
57 62 61 51 40 34 32 33 37 40 43 42 40 38 39 37 40 40 42 41 39 35 35 23 30 40 39 32 30 29 28 30 31 33 33 31 34 37 40 43 43 40 36 44 43 44 41
49 48 46 31 19 16 19 27 33 37 38 38 37 35 36 38 38 39 40 40 39 38 35 34 33 38 41 37 36 30 31 29 30 31 31 32 34 36 38 44 40 32 37 43 40 37 30
43 39 39 33 20 15 16 21 27 30 33 34 33 33 32 36 36 38 39 40 39 34 37 37 37 38 38 40 35 37 34 33 27 30 31 31 34 35 36 36 37 36 37 31 31 35 34
41 36 32 32 24 18 17 20 24 27 30 32 32 30 33 34 35 36 36 33 32 34 39 38 39 38 39 36 38 34 33 31 30 32 33 35 34 26 27 27 27 26 29 30 33 34 31
40 35 29 29 27 20 18 20 22 24 28 30 31 29 32 31 31 31 27 22 29 32 38 38 37 35 29 29 30 31 24 29 34 35 32 25 26 26 23 14 12 20 33 27 29 30 25
42 34 28 27 26 23 19 17 19 21 23 24 26 24 25 24 25 23 15 19 20 21 28 31 38 35 36 29 25 36 23 38 33 34 33 41 24 26 29 27 17 17 14 32 30 29 24
41 29 28 24 25 24 20 16 14 16 19 21 22 21 21 23 22 18 17 16 15 14 25 37 38 42 35 34 34 35 21 13 39 26 36 29 31 24 24 24 23 15 14 13 19 27 28
35 26 24 24 24 22 19 16 14 14 15 17 18 16 19 20 19 16 15 14 7 10 23 30 36 28 45 45 30 27 18 6 41 37 22 19 21 24 23 26 33 24 16 19 19 16 25
32 27 26 22 21 18 16 15 15 16 17 16 15 15 21 20 19 15 17 10 10 8 17 29 34 24 33 39 26 31 26 12 38 32 29 26 25 21 22 24 26 31 27 26 21 16 17
28 25 24 24 22 17 17 17 18 19 20 16 15 18 17 16 16 15 15 9 14 12 16 23 19 37 28 33 36 33 37 34 31 31 31 28 28 27 20 22 25 24 28 27 27 27 29
26 23 20 17 18 19 20 20 18 19 19 13 14 15 16 16 16 14 12 9 11 19 17 19 25 25 25 32 36 36 36 37 33 36 32 28 22 23 21 24 21 18 17 23 24 26 29
25 23 21 16 13 12 13 14 15 16 15 13 15 20 15 17 17 13 16 14 17 20 20 20 20 22 21 20 27 27 34 38 39 38 30 22 20 20 16 20 22 19 22 29 35 32 31
24 20 18 13 14 13 12 13 15 16 17 14 17 18 17 17 17 17 16 13 18 16 26 23 30 12 18 23 13 25 26 26 24 19 22 21 22 18 21 22 20 16 24 28 27 27 28
25 21 19 17 15 14 15 19 20 21 21 21 20 22 23 21 14 21 19 16 17 17 26 27 28 17 23 16 19 17 20 21 20 18 21 21 21 21 19 19 18 20 21 24 23 27 27
27 22 20 20 18 17 17 18 19 24 27 30 27 27 28 24 19 22 21 19 22 19 23 30 24 23 19 12 14 13 17 18 14 14 11 13 18 15 15 18 17 19 19 13 15 24 23
28 25 23 21 20 20 18 17 19 20 22 24 27 28 29 24 22 22 26 20 24 19 18 28 26 25 24 15 19 15 21 21 19 6 8 10 11 11 13 17 15 18 20 20 12 17 22
30 27 26 24 22 21 20 18 18 19 19 18 15 16 19 16 22 26 21 23 19 21 21 25 26 28 23 19 21 19 19 20 11 20 15 8 9 10 13 12 12 18 25 32 16 13 17

GFSGBSN_500_spd_096.txt.gz
Wind_Speed
61 61 61 62 64 64 65 67 65 66 66 67 67 66 67 68 67 66 64 62 62 63 61 61 57 54 48 46 47 50 50 48 45 45 49 44 42 42 41 39 42 41 36 36 33 33 31
58 59 58 59 58 58 60 61 64 65 64 65 68 68 67 69 71 70 66 65 64 64 62 62 60 59 54 51 52 51 49 48 48 47 47 47 43 42 43 42 42 39 38 37 36 33 31
48 48 48 47 49 50 51 53 55 58 60 61 61 62 65 64 62 67 69 67 66 64 61 61 61 58 58 52 55 53 52 51 45 45 42 41 40 39 39 41 42 40 39 38 37 35 31
41 42 43 46 48 49 52 53 55 57 56 57 58 60 63 61 58 56 56 55 58 61 61 63 60 58 56 52 51 50 49 45 45 47 45 42 42 42 43 42 41 39 40 40 34 35 33
44 47 50 53 54 57 58 60 62 63 62 62 60 59 60 57 53 54 50 54 54 53 51 53 54 56 48 48 47 44 44 42 44 45 45 42 43 43 42 42 43 42 41 37 35 34 36
47 50 53 57 59 61 64 65 67 68 70 68 69 65 63 59 55 52 46 49 51 48 48 48 48 47 45 42 40 40 43 41 41 43 45 43 44 43 43 44 42 37 35 37 39 36 37
50 54 57 61 63 66 68 70 71 73 74 75 74 71 67 65 59 53 47 47 46 45 44 43 43 43 44 43 39 39 40 39 41 40 38 39 43 43 40 36 36 38 39 39 40 37 38
53 57 60 63 65 68 70 71 72 73 75 79 77 76 70 65 61 54 49 47 46 44 42 40 40 41 40 42 39 34 36 36 36 34 35 38 44 37 31 33 36 36 38 39 39 37 42
55 60 62 66 68 71 70 69 68 68 69 72 77 75 69 58 57 53 49 47 46 43 42 37 39 40 35 40 38 29 36 33 33 34 31 30 31 32 37 36 36 35 37 38 40 37 43
57 62 64 67 70 69 68 69 73 73 71 69 70 67 58 52 52 50 49 43 42 40 42 36 36 39 39 36 38 28 35 30 32 29 27 31 34 31 32 32 35 34 36 38 41 41 45
61 62 64 65 62 62 65 65 62 60 57 56 60 56 50 46 49 48 44 39 39 38 41 36 36 32 36 34 34 33 33 34 30 27 30 30 29 31 31 31 34 31 35 39 40 41 46
61 60 61 57 55 56 57 56 47 29 25 34 42 45 44 46 48 45 42 39 37 37 35 34 33 31 31 33 32 33 32 30 29 30 27 28 27 30 30 31 34 33 38 41 40 41 50
58 57 54 52 50 47 50 48 34 23 20 22 32 38 42 44 45 41 41 40 38 35 33 37 36 33 32 31 30 30 29 29 29 30 28 26 28 29 31 32 33 35 37 39 40 44 49
55 54 49 47 46 40 42 39 31 21 16 18 24 31 35 38 40 39 38 37 36 36 37 36 33 34 31 28 26 27 29 29 28 28 29 31 29 27 28 30 29 33 36 36 39 41 39
54 50 47 47 42 36 37 35 28 22 15 14 19 23 28 33 33 34 35 34 33 32 34 34 33 34 32 33 29 30 30 27 29 30 31 31 30 29 30 28 34 34 40 34 35 38 40
52 46 47 48 36 32 32 31 25 20 19 16 17 20 26 29 30 32 32 29 30 31 33 33 33 36 36 34 33 31 31 31 29 31 32 32 30 29 26 27 33 33 29 33 38 41 40
49 44 45 42 31 27 28 28 24 19 16 18 16 19 22 26 29 31 29 24 22 30 37 38 40 40 38 36 36 36 36 33 29 29 32 31 32 26 27 28 22 24 30 35 37 39 38
47 43 41 35 29 26 27 27 22 17 16 13 13 19 20 24 26 25 19 18 22 21 26 34 41 42 42 39 42 40 40 38 35 33 31 33 33 29 31 27 26 25 24 22 32 34 30
44 41 38 34 27 24 24 23 20 14 12 13 14 17 19 22 22 19 18 20 16 17 23 27 31 34 36 31 19 32 37 35 28 31 32 28 31 28 28 27 28 23 26 27 30 30 32
42 38 35 32 27 24 22 20 17 13 10 8 11 15 16 17 18 18 19 18 14 18 18 22 24 30 42 37 39 29 25 32 37 26 28 31 29 35 29 28 30 30 31 28 30 35 37
40 36 33 30 26 23 21 18 16 13 9 6 8 14 15 16 19 20 21 17 14 15 11 14 18 31 38 29 32 39 30 20 19 24 23 31 25 20 27 28 30 32 32 21 21 20 23
37 34 32 27 25 21 18 17 14 14 9 5 9 15 16 17 18 17 16 15 13 19 16 12 15 27 30 37 41 40 35 15 12 11 31 30 16 17 21 23 28 31 24 25 24 23 18
35 33 30 26 24 19 17 17 17 16 8 7 13 14 16 18 18 16 16 16 15 18 17 13 17 22 25 30 26 29 32 24 21 16 33 25 12 18 24 28 26 21 24 26 32 33 29
34 31 28 25 23 18 16 13 10 9 8 10 12 13 14 19 18 15 16 16 14 15 20 15 15 17 26 26 22 21 29 24 19 22 16 18 14 18 26 35 26 24 21 25 24 28 27
33 31 27 24 20 17 15 15 12 7 5 9 12 13 17 18 17 16 19 18 17 15 15 14 19 14 17 19 16 18 18 19 19 17 17 14 20 27 26 24 23 22 24 23 25 28 29
32 30 27 24 21 18 16 13 16 16 13 12 14 17 18 19 17 22 20 18 17 18 18 21 21 18 13 25 22 16 17 19 19 16 17 23 32 31 29 23 22 21 19 22 25 28 29
32 30 27 24 23 21 18 16 15 16 19 19 18 20 20 19 22 22 20 21 19 14 16 24 21 21 19 18 11 11 11 16 17 19 24 29 23 23 26 26 25 25 24 24 24 24 26
32 30 29 25 24 23 20 19 19 18 19 21 18 24 26 22 24 25 26 22 20 17 16 24 26 21 20 17 14 13 15 19 25 25 18 16 18 21 21 23 21 20 20 21 19 16 22
32 31 29 26 25 24 23 21 21 21 21 19 17 20 24 23 20 26 24 22 19 21 22 25 17 19 17 18 11 15 13 19 18 16 6 14 17 16 20 18 17 19 19 24 25 18 20

GFSGBSN_500_spd_099.txt.gz
Wind_Speed
61 63 60 59 58 57 57 58 58 60 62 64 67 69 70 69 69 69 70 68 68 68 68 66 64 64 64 61 54 54 51 49 47 45 45 43 44 44 43 41 41 42 40 40 41 39 40
56 57 56 55 54 53 54 55 53 52 51 52 56 59 63 67 70 69 67 68 70 69 66 69 67 65 65 60 58 55 54 51 48 46 46 47 45 46 47 48 50 44 43 42 43 43 42
51 50 49 47 45 44 45 48 50 51 51 52 53 53 55 57 58 61 58 59 66 70 69 68 66 68 64 57 61 56 54 54 52 50 48 47 48 46 45 45 45 46 47 44 42 41 37
42 40 43 44 45 45 47 50 54 56 57 57 58 59 59 60 59 58 57 56 58 59 62 60 56 60 64 58 58 55 56 54 54 52 50 52 48 48 45 43 43 43 44 45 43 40 35
40 41 43 46 46 49 51 54 56 58 60 62 64 65 65 63 64 64 62 59 56 54 54 55 52 52 53 58 60 59 53 50 52 52 49 50 48 45 44 43 42 44 43 41 41 40 39
40 39 43 47 50 52 54 57 59 63 66 68 69 71 71 72 69 65 67 63 59 58 52 50 47 45 48 48 47 47 47 48 49 49 46 45 45 44 42 42 44 41 41 41 42 41 42
39 41 44 48 50 54 58 61 65 68 70 73 75 77 76 76 75 73 69 65 61 59 57 47 43 41 43 44 45 42 40 43 43 44 43 42 45 47 42 39 40 43 43 47 47 46 46
40 42 46 49 52 57 61 65 68 71 74 76 77 77 77 76 77 75 68 63 62 59 56 44 42 40 42 44 43 41 41 42 42 41 42 44 45 42 41 41 42 42 44 47 47 46 47
41 44 47 50 54 59 63 66 69 70 71 70 71 74 75 74 74 74 60 58 57 55 59 43 40 39 38 44 40 37 40 38 38 40 40 40 40 40 39 40 42 42 44 45 47 49 48
43 46 48 51 56 60 64 64 63 64 66 66 65 63 63 67 66 67 53 53 50 48 49 46 39 40 40 41 38 34 39 37 39 38 36 38 40 39 37 38 42 42 43 46 47 48 44
44 47 49 52 57 61 59 58 58 57 60 64 58 41 32 30 49 55 48 48 46 43 44 43 39 43 42 39 40 39 38 38 38 35 36 38 36 36 36 38 41 38 43 45 46 47 46
45 48 50 53 57 57 53 57 53 49 52 53 44 23 16 21 36 39 41 44 43 43 43 35 34 38 39 40 38 38 37 38 37 35 37 39 38 37 38 38 40 41 43 44 45 45 43
47 48 50 53 56 51 50 53 45 44 44 39 34 21 14 16 21 29 33 38 41 41 38 37 29 31 33 36 37 40 38 37 38 36 35 34 33 34 36 40 41 42 41 41 43 45 39
47 48 48 52 52 49 50 43 38 39 38 31 30 20 13 10 13 21 28 34 35 37 40 34 32 32 32 36 39 40 39 35 34 34 33 34 34 35 35 37 36 36 38 40 42 42 38
45 46 47 50 49 46 45 38 33 35 35 25 23 20 13 7 10 19 25 29 31 35 36 35 34 35 36 36 36 34 34 34 34 35 36 35 34 32 34 34 35 33 38 37 36 35 38
44 45 45 48 46 43 41 36 33 34 31 21 15 17 13 8 10 16 23 28 30 32 31 30 33 34 34 35 36 36 35 36 37 37 37 35 35 32 33 34 33 32 25 34 37 39 41
43 44 44 46 45 40 38 32 32 31 26 19 13 13 12 10 11 17 21 18 16 22 28 30 32 33 35 35 35 35 37 37 36 35 34 35 36 30 33 32 31 30 30 28 33 38 39
41 42 42 44 42 38 36 31 28 27 22 17 12 8 10 10 11 14 13 12 18 25 29 28 29 34 38 37 37 36 37 37 36 34 31 34 38 37 32 32 32 28 28 28 29 32 35
40 40 40 42 40 36 33 29 25 23 19 15 10 9 7 8 8 10 12 16 19 21 24 24 24 30 35 42 43 42 36 36 36 36 28 31 30 31 33 34 31 29 31 29 31 28 27
39 39 38 40 38 34 30 28 22 20 16 12 9 9 9 8 10 12 14 17 19 20 20 21 24 28 33 36 43 43 37 39 38 41 37 34 34 34 32 33 31 36 30 30 27 29 31
38 37 37 38 36 32 30 26 21 15 12 8 5 8 9 10 13 15 16 18 21 21 20 22 19 21 26 29 36 35 26 23 26 32 30 30 27 37 33 27 29 26 31 28 30 29 29
37 36 35 35 34 29 28 23 20 14 10 10 9 10 8 11 13 15 17 19 21 20 18 22 17 11 13 29 38 21 34 28 20 21 15 29 27 26 33 30 31 33 32 34 31 33 20
37 35 34 33 31 28 25 22 17 13 12 11 9 10 10 12 14 16 17 19 23 20 18 19 14 12 15 24 31 24 29 33 24 12 11 24 22 19 16 21 17 21 24 28 33 30 29
37 34 32 32 29 26 23 20 15 9 8 13 15 12 11 14 14 16 18 20 20 16 17 18 14 12 13 16 26 20 23 27 24 19 15 17 19 18 17 15 16 19 22 27 24 25 23
37 33 31 31 28 24 22 18 15 11 8 9 8 11 15 15 16 17 19 17 17 15 14 15 16 11 8 8 17 17 12 23 26 16 15 13 15 13 13 12 15 20 27 25 25 20 21
37 33 31 30 28 25 22 20 16 12 13 12 12 14 15 16 16 19 19 19 18 18 16 15 15 13 9 11 15 14 7 15 23 24 14 15 13 12 13 13 16 19 22 23 24 24 24
37 33 31 29 28 26 24 23 20 17 13 14 17 17 17 17 21 20 20 20 18 17 17 16 14 15 13 10 9 10 11 12 21 20 18 16 14 15 20 20 20 21 22 24 21 20 23
37 34 32 30 28 27 25 25 23 21 19 16 16 21 22 21 26 25 23 20 18 18 17 15 16 17 16 11 11 9 10 11 19 20 17 15 14 17 24 25 25 25 23 23 23 22 18
36 34 33 30 28 28 27 26 26 24 22 18 15 19 20 24 25 28 26 24 21 21 18 16 18 19 14 14 14 13 11 12 22 18 10 12 20 22 28 26 23 23 25 25 25 23 19

GFSGBSN_500_spd_102.txt.gz
Wind_Speed
55 57 59 59 59 61 61 60 59 55 56 56 56 55 55 56 56 59 63 68 69 71 70 70 69 65 67 65 59 62 60 57 54 51 49 48 46 44 44 40 43 44 39 35 34 36 37
57 57 57 57 55 55 55 56 55 53 51 51 51 51 54 55 54 55 57 58 61 62 66 70 69 70 68 64 64 61 65 62 60 56 53 50 48 46 49 47 44 42 43 42 40 36 38
53 53 51 50 51 54 55 53 50 50 48 50 51 52 54 55 57 57 58 57 57 59 59 60 60 60 66 60 66 64 63 61 59 58 55 53 51 48 46 46 45 44 45 45 44 43 40
46 47 47 48 49 50 51 50 51 52 53 54 57 60 63 62 64 64 65 64 64 65 61 57 56 57 55 55 65 64 63 63 62 59 56 55 54 53 50 49 46 45 45 45 43 42 43
46 44 46 46 46 47 48 51 53 54 56 59 61 61 64 66 68 70 70 69 66 68 66 64 56 54 48 52 53 59 59 57 60 60 57 54 55 55 52 51 51 51 48 44 41 41 40
43 42 43 42 44 46 48 50 52 53 55 58 62 65 68 71 74 77 76 74 74 73 68 68 62 56 48 48 51 50 53 53 57 54 54 56 55 54 52 52 51 48 42 40 40 42 42
40 39 39 42 44 45 47 50 52 54 59 62 67 71 75 79 81 83 82 82 82 78 76 70 66 59 52 45 50 48 49 52 52 58 61 49 49 51 46 45 43 43 43 43 45 45 45
36 37 38 40 42 46 49 52 55 59 64 68 71 75 78 79 79 80 82 79 80 82 75 69 66 63 48 46 47 48 47 47 46 48 45 48 53 44 44 45 45 45 44 45 46 46 46
36 37 39 40 44 48 50 54 58 63 67 70 72 73 71 73 73 70 68 68 68 66 71 63 58 57 43 47 45 45 47 41 41 41 39 39 39 42 45 45 45 46 45 46 46 47 49
36 38 40 43 46 48 51 56 61 64 65 64 64 63 66 69 65 50 37 39 46 46 56 54 49 52 47 44 44 40 45 42 42 38 35 40 43 44 44 43 45 45 46 47 48 50 49
37 40 42 44 46 49 53 57 60 60 58 60 55 56 60 61 45 13 19 14 11 32 37 38 42 46 45 42 43 39 42 41 40 37 40 39 40 42 43 38 39 43 45 47 49 49 48
37 40 42 44 47 50 53 57 58 54 56 52 50 53 51 44 34 25 21 15 17 22 27 23 27 34 40 42 42 41 40 40 39 40 39 39 39 39 41 41 39 41 44 45 45 47 47
38 40 41 43 47 50 52 55 55 53 51 48 47 49 41 34 25 13 10 21 10 22 20 22 20 24 34 38 42 40 39 38 39 40 40 39 38 39 39 39 38 40 41 40 42 46 45
38 39 41 43 47 50 50 53 52 49 47 45 44 42 31 25 17 4 18 10 10 20 24 19 25 26 29 32 36 42 42 42 43 42 41 39 39 39 38 39 39 38 41 42 44 44 43
39 40 40 43 46 49 48 51 48 46 44 43 38 36 23 18 13 4 14 15 17 18 21 23 25 29 28 31 33 37 40 41 42 43 42 41 42 40 40 40 39 37 39 39 38 41 44
40 40 39 42 45 46 46 49 45 42 40 39 34 31 18 12 11 5 8 15 19 16 19 25 23 27 29 28 31 34 35 34 35 38 41 41 39 38 37 38 37 35 35 36 38 40 40
41 39 40 41 44 43 44 47 43 39 36 34 30 26 17 7 8 5 5 7 13 14 17 19 26 28 25 29 30 34 34 35 34 36 38 38 37 34 36 37 37 34 34 35 36 37 39
40 39 40 40 42 42 43 44 41 36 31 29 27 22 15 4 4 4 2 7 9 13 16 18 20 25 27 30 29 33 34 35 32 31 33 35 37 35 32 33 35 34 33 34 38 38 39
40 39 39 39 40 40 41 41 39 33 26 25 22 20 13 6 1 2 3 7 10 11 12 13 17 21 26 28 30 32 34 34 34 30 30 32 35 37 31 30 32 32 33 31 33 35 35
41 39 38 38 39 37 39 38 37 28 23 21 20 17 11 8 4 4 5 7 10 11 10 10 14 18 21 25 30 33 34 34 35 31 33 33 35 33 30 25 27 33 33 33 30 29 27
41 39 38 37 37 36 36 36 34 24 22 19 18 15 11 7 6 6 8 8 9 12 12 12 15 17 20 25 30 32 34 36 35 29 28 33 34 35 34 31 28 29 28 30 32 29 28
42 39 38 36 35 34 34 33 32 23 23 18 15 15 11 9 7 8 10 10 10 13 14 14 17 19 23 20 25 29 32 33 23 16 23 27 33 37 39 34 30 28 26 34 37 27 22
42 39 38 36 34 32 32 30 30 22 20 20 14 12 10 10 7 9 11 13 14 14 16 17 18 18 13 9 11 17 23 26 27 26 14 21 21 24 28 30 32 29 31 25 21 23 27
42 39 38 36 32 31 30 27 27 22 16 19 15 14 14 15 10 10 11 12 16 18 17 17 17 13 10 9 10 20 20 24 30 22 12 10 17 19 23 29 30 23 18 14 15 20 22
42 39 38 36 32 30 29 26 26 22 16 14 11 9 9 9 6 11 14 14 15 16 15 15 11 7 4 4 5 13 17 13 19 29 17 14 11 25 24 17 20 16 15 18 19 18 16
41 39 39 35 32 30 29 25 25 22 19 14 16 13 13 13 14 15 15 16 16 15 14 15 9 7 7 2 2 13 14 9 12 15 20 6 8 24 15 17 14 11 12 11 11 15 17
41 40 38 35 32 31 29 26 24 23 22 17 17 20 17 16 18 17 18 18 17 16 15 14 11 8 12 6 3 9 10 9 12 13 14 17 14 21 16 16 10 8 13 11 11 14 16
43 41 38 36 32 32 29 27 25 24 23 21 19 21 21 20 23 21 20 20 19 18 15 14 11 10 11 8 4 8 8 10 10 15 16 12 13 15 15 14 11 11 13 14 14 15 16
43 41 38 36 33 33 30 27 26 26 26 23 21 24 21 21 21 26 25 25 25 21 16 13 9 13 13 7 11 6 5 7 15 18 17 17 17 17 17 12 12 13 14 17 20 20 19

GFSGBSN_500_spd_105.txt.gz
Wind_Speed
52 50 49 51 51 52 53 54 55 55 55 55 54 54 55 56 52 51 51 51 52 54 56 58 61 66 70 70 61 67 64 60 59 57 55 55 55 52 49 47 48 47 44 41 37 36 37
52 50 50 51 51 52 51 50 50 50 50 51 53 55 55 55 55 56 55 54 53 52 56 57 60 61 64 60 61 66 68 64 62 60 59 58 57 54 52 51 49 46 44 42 41 39 39
50 49 49 48 48 46 46 47 48 48 50 53 54 56 57 58 59 60 61 61 60 60 62 63 60 58 57 49 57 62 64 64 63 61 60 59 61 60 57 54 53 50 47 45 44 42 39
49 46 47 47 47 47 46 46 47 49 51 52 54 58 60 62 63 65 66 66 66 65 66 68 68 66 54 51 53 53 56 61 63 64 61 61 61 62 61 59 56 54 52 50 46 42 39
45 44 44 44 43 45 46 45 46 46 48 51 53 55 58 61 64 66 68 71 72 72 73 72 72 70 60 60 59 53 51 52 55 60 61 65 63 62 62 60 59 59 55 50 46 42 41
43 41 41 42 43 43 42 43 44 45 47 51 53 56 60 63 66 69 71 73 75 77 79 81 80 75 69 69 66 57 51 51 53 55 58 62 65 64 63 62 60 58 53 48 43 45 44
42 42 41 42 41 40 41 42 44 46 49 52 56 59 62 66 71 74 79 84 86 86 88 90 87 84 73 72 70 62 56 49 51 54 55 57 59 56 61 58 57 55 51 48 48 49 48
42 42 41 40 40 39 40 41 43 46 51 55 59 62 66 70 74 80 81 80 80 81 80 77 85 88 80 74 71 64 56 51 48 48 52 55 51 48 51 54 54 52 50 48 48 48 48
41 40 38 39 38 39 39 41 44 50 54 57 61 66 67 70 74 73 73 73 70 61 58 48 56 63 63 64 65 56 51 49 46 46 49 48 43 49 51 51 50 47 46 47 47 45 46
41 36 37 38 38 38 39 43 47 51 55 59 64 64 64 68 67 64 68 65 47 22 23 17 21 36 44 52 58 46 49 46 45 44 43 47 46 44 47 53 51 51 43 42 43 45 46
34 35 35 36 36 37 40 44 48 51 55 60 63 59 62 67 57 60 58 53 7 5 13 11 5 20 33 41 46 42 43 45 44 42 42 39 38 36 31 33 32 37 37 41 45 47 49
34 34 35 37 36 37 41 45 48 51 56 59 58 55 60 56 54 54 46 27 7 6 3 5 2 9 20 33 37 41 40 41 43 39 43 39 36 35 32 31 31 31 35 39 42 42 46
33 34 36 36 36 39 41 44 47 51 54 55 53 53 57 49 48 41 21 14 1 15 5 7 5 7 14 23 31 38 37 36 38 37 37 32 32 36 36 32 31 33 32 34 38 42 43
33 34 36 35 36 38 40 43 47 49 51 52 50 51 52 43 39 24 1 7 6 10 7 10 8 9 12 18 27 33 31 36 38 37 37 39 38 35 31 28 29 29 31 32 36 40 40
34 36 36 35 37 37 39 41 46 47 49 49 47 48 45 40 28 16 5 13 10 3 12 16 12 12 11 15 20 26 28 31 33 35 35 35 36 35 35 33 32 34 34 30 33 37 39
36 34 35 35 37 36 37 40 44 44 46 46 44 45 40 35 21 12 7 10 12 7 9 15 19 14 17 12 16 14 22 26 34 36 38 34 34 35 36 34 34 33 33 32 34 35 37
34 33 35 36 35 35 36 39 42 41 44 43 42 41 35 30 18 9 7 7 10 11 8 12 13 16 13 12 8 18 18 15 25 28 31 31 30 31 31 32 32 32 34 34 33 33 34
35 33 36 35 36 35 35 38 40 39 42 40 39 36 31 25 15 7 4 4 5 4 5 8 9 14 15 11 13 16 20 20 22 24 25 29 29 26 25 27 28 29 29 31 31 29 31
36 36 36 36 36 34 34 37 37 37 39 37 36 33 28 21 13 6 3 2 3 3 4 5 6 8 11 13 16 18 20 22 22 23 24 24 25 22 24 28 29 29 28 28 28 29 30
39 41 39 38 36 33 34 36 35 34 35 33 33 29 24 18 12 9 5 2 4 3 2 3 3 4 6 9 14 19 21 23 23 24 25 26 25 25 22 25 27 30 30 28 28 30 30
42 40 39 38 36 34 33 35 33 31 32 30 30 25 21 15 12 10 6 4 4 4 3 1 2 5 7 10 13 17 20 25 25 25 25 26 29 30 27 26 24 26 29 30 30 31 32
43 42 40 38 35 33 33 33 31 28 28 27 28 24 18 13 12 11 7 6 6 5 2 3 5 8 13 17 20 23 25 26 25 25 22 23 27 29 29 27 29 25 25 26 27 24 25
46 43 38 37 35 33 32 33 29 25 25 25 27 21 15 14 11 10 8 8 6 5 6 7 9 14 16 18 15 13 11 22 24 23 12 13 18 21 26 30 30 28 27 25 23 21 25
44 40 38 37 34 33 31 32 28 25 21 22 25 17 15 12 9 9 9 6 6 8 10 10 12 14 13 4 5 11 8 14 16 22 22 19 14 15 19 20 26 32 27 22 23 21 19
42 39 39 37 34 32 31 30 27 24 21 18 24 15 10 9 6 5 6 9 10 10 10 10 11 12 2 3 10 3 8 9 10 17 10 11 12 17 16 13 12 19 23 23 19 17 13
42 40 39 36 34 33 31 29 27 24 21 18 22 19 15 15 15 12 13 12 12 11 11 10 10 7 5 0 8 2 7 3 7 11 13 8 5 7 16 17 15 17 19 18 15 13 14
41 39 37 35 34 33 31 29 27 25 22 19 20 23 18 19 21 15 14 14 13 14 13 11 9 5 9 5 2 0 6 6 4 4 3 9 11 7 17 18 16 14 13 16 13 12 12
41 38 36 35 34 33 32 29 27 26 23 20 19 23 21 19 23 21 20 19 17 16 14 12 10 7 9 8 2 0 3 4 7 8 9 8 10 10 12 16 11 14 11 12 11 12 10
44 41 38 37 36 34 33 29 28 27 24 23 19 22 26 19 20 23 23 25 23 19 15 13 12 8 13 10 8 2 4 3 7 12 15 15 13 10 8 9 9 11 10 10 8 10 11

GFSGBSN_500_spd_108.txt.gz
Wind_Speed
42 45 46 48 48 48 48 49 49 48 50 51 51 52 53 52 54 54 54 54 54 53 54 55 55 53 51 51 49 56 64 65 65 61 60 61 61 59 57 55 51 49 46 44 42 38 38
48 49 51 52 52 50 49 49 47 46 48 50 52 50 51 52 52 53 54 55 55 57 58 60 62 61 62 62 50 56 61 62 63 64 63 62 63 63 62 60 58 56 53 49 46 46 43
58 57 56 56 53 50 48 46 46 47 48 47 48 49 50 52 52 53 55 57 59 60 61 62 65 67 67 60 56 58 58 59 59 60 63 64 64 67 67 65 62 60 59 52 50 48 47
59 58 57 55 51 48 47 45 45 44 44 47 49 48 49 51 52 54 56 59 61 62 64 66 70 71 68 64 63 62 61 59 57 55 58 62 64 66 65 68 67 61 62 60 53 51 47
53 53 51 49 46 47 46 44 43 43 45 45 47 46 48 51 54 56 58 59 61 64 66 71 74 76 73 70 71 70 67 62 59 57 55 57 61 64 67 64 69 68 64 63 60 58 50
47 48 47 47 44 44 42 41 41 42 43 44 44 47 50 55 58 59 59 64 66 70 75 83 90 92 84 83 79 75 72 68 64 58 58 55 57 63 65 66 62 68 69 67 67 60 54
47 48 46 44 41 41 40 39 41 41 42 43 45 48 54 57 59 62 65 68 75 84 83 86 89 95 89 88 89 82 78 74 68 64 59 55 55 54 55 61 60 68 70 70 66 64 60
46 45 44 42 38 39 40 40 40 40 42 44 47 51 54 57 61 64 69 77 81 85 83 71 73 70 67 62 76 79 77 75 68 61 59 57 49 51 56 57 59 67 69 68 66 67 61
44 47 44 39 39 39 39 38 37 41 42 45 49 51 54 58 63 67 71 74 78 73 70 44 30 36 35 41 53 55 61 67 62 54 56 53 46 49 53 53 57 61 59 64 66 65 60
45 48 43 39 41 37 36 36 39 40 42 47 48 50 54 59 63 64 66 72 67 61 37 11 19 28 25 20 37 49 52 51 50 45 46 49 51 52 51 48 51 57 59 59 63 57 56
44 47 43 40 36 34 33 36 38 40 44 45 47 50 55 59 58 59 66 64 54 22 7 11 16 16 19 11 20 39 38 45 44 42 45 47 49 48 48 43 46 51 48 49 53 53 52
47 45 40 34 33 31 34 34 37 40 44 44 47 50 55 53 53 58 56 52 21 14 12 12 22 8 12 7 10 28 33 38 38 38 41 43 42 44 39 38 37 39 42 44 41 43 49
47 42 35 33 30 32 32 34 36 40 42 44 46 51 52 46 50 53 45 38 15 12 7 7 17 6 4 1 6 19 26 30 34 36 38 42 40 40 34 32 32 36 34 30 33 40 46
43 37 32 30 31 30 31 33 35 39 40 43 46 49 46 44 48 45 37 26 17 14 12 9 12 11 12 2 3 13 19 27 31 36 37 37 37 38 33 32 26 24 20 21 23 24 26
36 36 31 31 30 30 31 32 36 37 38 41 45 46 41 42 44 39 30 21 16 11 15 20 18 13 4 3 13 6 16 21 26 29 34 33 34 34 29 28 29 30 32 26 25 25 27
41 32 32 30 30 29 30 32 34 35 36 40 42 43 39 40 39 33 23 16 13 13 18 18 17 13 9 11 17 15 13 17 20 23 28 30 33 31 31 27 25 26 23 26 27 28 28
35 33 32 31 28 28 29 32 32 33 34 38 39 40 36 39 34 27 17 10 6 5 10 15 13 14 15 5 11 14 16 16 20 20 21 27 26 26 26 26 24 27 27 28 27 24 25
35 37 31 32 28 28 27 31 30 31 32 36 36 37 33 35 29 22 13 7 3 1 4 10 8 10 13 10 9 8 5 14 20 21 26 28 25 23 24 24 24 24 22 22 21 24 25
36 37 32 34 28 29 28 29 29 29 30 32 32 33 31 31 24 19 12 7 2 1 3 5 7 8 7 9 10 7 9 9 7 12 11 12 18 18 19 17 18 18 20 21 22 25 25
38 41 38 36 29 31 31 27 27 28 29 29 30 29 28 26 21 17 11 8 3 3 4 5 6 5 6 6 7 10 10 11 12 15 16 16 11 15 17 18 20 20 21 23 23 24 23
42 41 40 33 30 32 28 25 25 26 28 27 26 26 25 21 16 15 12 9 7 5 4 5 5 3 3 5 8 10 12 14 14 15 16 16 17 17 16 18 20 21 23 23 23 23 24
45 41 38 32 36 33 30 24 24 25 25 24 24 24 21 18 13 14 13 9 6 3 0 1 0 2 6 9 11 14 16 19 17 16 16 17 18 17 19 19 20 21 20 21 22 23 23
46 40 38 39 37 35 30 24 23 24 22 21 21 22 17 15 11 11 10 8 5 3 3 4 7 10 12 12 12 11 14 18 20 20 15 14 14 12 11 12 15 20 21 21 20 20 20
44 45 43 40 39 36 30 24 23 24 20 19 20 20 16 11 12 11 8 6 6 8 10 9 10 11 12 5 7 12 11 8 15 20 21 15 9 9 10 13 17 21 21 23 23 23 22
45 41 40 40 39 36 31 24 24 24 20 17 19 18 16 15 9 7 8 10 10 9 10 10 10 11 9 3 4 7 5 6 3 6 17 19 13 12 12 13 14 16 19 22 24 22 21
42 44 44 42 38 32 26 25 26 25 20 18 19 18 18 16 15 13 13 12 11 10 9 10 11 10 6 2 4 3 3 3 4 10 11 16 12 15 14 12 12 10 13 20 23 22 22
39 38 38 36 31 27 26 26 27 26 21 19 20 18 20 16 19 16 14 14 14 13 12 11 12 10 6 7 1 1 2 2 6 12 9 10 8 6 7 15 14 14 16 22 22 21 22
40 37 34 31 28 26 27 29 29 27 23 20 21 20 20 18 19 19 18 18 17 15 14 14 13 11 7 12 6 4 2 6 7 6 9 11 10 7 6 12 17 22 16 16 19 19 19
43 40 36 33 31 32 32 32 30 27 25 23 19 23 22 19 17 20 21 18 17 15 15 18 15 11 8 12 12 5 6 3 6 10 10 11 12 11 10 10 17 17 13 13 16 16 15

GFSGBSN_500_spd_111.txt.gz
Wind_Speed
44 44 45 45 44 43 43 44 46 47 50 50 48 48 47 47 48 49 50 52 53 55 56 57 57 58 56 53 50 50 55 56 54 54 57 62 65 64 63 59 60 55 53 52 52 51 49
47 48 50 48 49 53 53 52 53 53 52 50 48 48 49 48 48 49 50 52 53 53 55 57 59 62 63 62 56 53 57 58 58 58 55 57 61 64 65 64 64 62 59 57 55 56 52
50 53 51 50 51 52 53 54 55 53 51 49 48 48 47 47 49 49 49 50 50 53 56 58 60 60 62 63 65 64 61 55 59 61 61 59 60 63 66 68 65 65 67 62 59 58 57
55 55 54 53 52 53 53 53 52 50 49 48 47 48 48 48 48 47 47 48 50 51 54 57 60 62 65 66 69 68 64 64 61 60 62 63 62 62 62 66 69 68 68 69 62 64 61
54 52 52 51 52 49 49 48 49 49 47 46 47 47 47 48 47 46 47 50 53 54 57 62 66 68 70 73 76 77 73 69 69 67 67 67 65 61 62 63 67 71 70 69 69 67 64
46 47 48 47 47 47 47 49 48 47 46 45 46 46 46 45 44 46 50 52 56 58 60 69 76 81 82 85 87 87 87 85 82 77 76 71 70 65 63 63 69 68 72 69 68 60 68
46 46 45 44 46 47 49 49 47 44 45 44 43 43 43 44 47 50 52 56 58 63 68 78 83 85 86 91 94 92 90 89 88 89 84 74 76 72 58 58 52 61 65 63 67 58 62
46 46 45 45 47 47 47 45 42 42 41 41 41 42 45 45 48 52 55 58 62 67 69 82 80 77 68 64 64 54 59 69 71 80 80 77 77 58 59 58 53 61 65 64 64 49 59
48 49 48 49 47 45 46 43 39 39 40 41 41 43 44 47 49 52 55 60 65 71 74 70 50 34 38 39 41 40 45 39 47 42 63 69 64 58 61 57 55 56 58 56 63 64 71
51 52 49 49 48 44 45 39 36 38 39 41 41 42 46 47 48 53 57 62 67 70 64 44 18 30 32 35 36 32 23 39 32 32 29 42 54 55 56 54 51 51 52 52 60 69 64
51 47 44 49 46 43 43 39 33 37 39 41 40 41 44 45 48 52 58 62 64 62 43 27 18 22 23 31 26 18 6 34 31 26 25 31 35 51 56 50 54 48 46 49 54 57 57
48 45 43 45 39 40 36 33 35 33 38 38 38 41 42 44 47 53 56 57 58 41 22 18 14 15 21 14 15 7 16 21 35 32 25 21 27 41 45 40 44 44 45 46 49 50 54
37 37 39 43 39 35 34 32 30 34 37 36 38 38 39 41 48 52 51 54 45 26 23 13 9 11 18 13 12 9 17 26 25 14 19 22 18 34 34 40 43 42 39 39 41 44 46
38 38 35 37 35 31 31 28 30 35 35 36 36 35 36 40 46 47 48 48 34 25 15 12 21 14 4 16 11 2 4 19 26 28 11 25 15 26 33 34 31 30 31 31 30 30 37
37 37 36 35 32 26 28 28 31 32 33 34 32 32 35 40 43 42 46 36 26 18 15 17 18 21 9 6 11 12 12 16 22 28 20 13 16 21 25 23 24 26 28 24 23 22 18
38 38 36 30 28 30 29 29 31 29 32 29 29 31 34 38 39 40 40 26 19 16 14 16 20 17 11 7 4 19 12 11 11 20 26 19 23 20 25 28 25 20 23 29 27 23 18
37 37 34 31 33 29 27 29 27 28 29 26 27 29 32 35 35 38 29 18 13 13 14 15 15 15 16 21 10 15 9 13 10 13 20 27 27 25 29 27 23 27 24 30 24 25 12
38 37 34 38 30 31 28 28 24 27 27 23 24 27 29 30 31 33 21 13 11 12 11 10 12 10 11 15 18 16 10 11 12 14 17 17 16 17 15 24 26 21 17 20 23 20 22
42 40 38 36 34 29 30 29 24 25 24 21 22 24 26 26 28 26 17 10 10 10 10 9 8 8 9 10 13 12 15 12 4 8 21 20 19 19 20 19 21 25 23 23 24 24 16
43 41 38 38 35 34 31 28 27 26 23 19 21 22 23 22 25 19 13 9 9 8 10 10 9 8 9 9 10 12 12 9 12 6 5 28 21 21 19 16 13 18 20 21 22 21 19
45 42 41 38 36 36 33 29 25 24 19 18 18 19 19 20 21 15 10 7 8 6 8 9 10 12 11 12 11 15 14 12 9 8 10 5 8 24 16 20 21 17 15 19 21 19 19
49 46 42 41 38 36 33 28 26 22 19 16 18 17 15 16 16 12 8 7 8 4 2 0 1 5 9 13 16 17 19 18 17 13 11 12 13 14 15 6 13 15 18 18 18 20 23
48 43 43 46 40 35 33 29 25 22 20 17 17 15 13 12 11 10 7 5 4 3 3 4 4 5 9 11 12 14 19 23 23 22 18 15 13 12 13 12 14 13 14 15 15 17 18
43 42 42 42 41 35 34 32 27 22 21 19 17 15 13 12 10 8 4 4 5 7 6 6 9 11 13 16 14 12 11 8 16 21 19 17 17 14 14 10 13 17 15 16 20 22 19
40 38 45 43 41 41 37 32 24 23 22 21 20 16 14 14 12 12 10 9 8 9 9 10 11 13 14 14 11 6 6 9 7 10 21 16 14 15 14 16 15 16 17 20 22 23 20
34 33 33 36 35 31 30 27 26 26 24 22 21 18 16 16 15 13 15 15 13 12 11 12 13 13 13 10 6 4 2 1 2 5 4 18 17 12 12 16 15 16 18 21 22 25 24
38 36 35 35 35 33 31 30 30 28 25 23 23 19 18 18 18 15 14 16 15 14 13 14 14 13 12 9 2 3 2 2 5 5 4 12 13 13 14 14 20 20 19 16 20 16 25
40 38 37 36 35 33 33 32 31 29 26 24 24 21 20 19 18 18 14 15 15 15 14 15 15 15 11 7 4 4 4 9 7 6 8 6 8 9 14 14 17 18 19 20 18 27 21
38 37 36 35 33 30 29 29 28 27 26 25 23 24 21 18 20 19 18 14 16 14 13 15 17 15 12 9 8 10 8 6 9 8 10 10 14 6 15 7 16 19 20 29 19 14 23

GFSGBSN_500_spd_114.txt.gz
Wind_Speed
46 48 50 48 47 45 44 44 44 44 44 46 47 47 48 50 50 47 46 46 46 46 48 49 51 52 51 51 50 48 55 55 55 53 52 54 57 58 61 62 63 64 62 59 57 53 52
53 50 49 48 50 50 47 47 46 46 48 49 49 49 50 48 48 47 45 46 46 49 50 51 52 52 53 53 54 55 53 57 57 58 59 56 57 58 57 63 66 64 64 64 62 59 57
53 50 52 50 50 49 49 50 48 48 49 50 50 49 49 48 46 46 46 47 48 49 49 50 52 55 56 57 58 59 60 61 60 61 62 60 58 63 59 60 62 63 68 68 68 64 63
55 51 52 54 53 55 52 51 50 48 47 47 47 46 46 45 45 46 47 47 48 47 47 53 56 57 58 60 63 65 68 70 69 68 68 66 64 63 64 62 64 65 66 70 62 67 68
56 59 54 54 56 56 54 49 46 45 44 45 46 46 45 44 44 46 46 47 47 48 52 55 55 58 60 65 67 70 75 78 76 76 75 76 74 70 67 65 66 66 65 64 66 67 67
62 48 48 48 51 48 45 44 44 43 44 46 46 47 45 45 44 44 46 47 50 52 51 55 55 59 67 67 72 78 82 85 86 86 85 83 82 82 76 74 75 71 71 67 66 69 68
63 56 47 47 49 46 44 44 42 43 44 46 47 45 42 43 43 41 43 44 45 48 51 57 61 67 73 75 76 79 84 91 89 92 94 81 83 91 86 76 69 60 61 61 60 63 60
57 56 46 48 49 48 47 44 43 45 46 46 43 41 41 41 41 41 41 45 48 50 51 57 62 72 77 82 81 62 61 62 66 68 66 66 70 78 78 73 69 62 60 59 52 55 41
60 54 45 48 51 50 48 48 47 46 46 44 40 37 37 39 39 39 42 47 49 52 56 62 70 74 68 63 50 45 47 44 54 52 44 44 47 53 69 70 65 61 61 57 51 48 51
57 45 43 49 51 50 51 50 50 48 44 43 39 32 35 37 38 39 43 47 49 51 57 67 64 61 43 38 32 32 38 43 17 7 1 21 15 37 56 67 48 56 52 51 45 50 52
44 47 48 49 52 55 55 51 55 47 42 38 32 32 33 35 37 39 42 45 48 51 60 55 58 42 25 29 25 24 29 6 3 5 16 18 23 27 28 52 45 43 36 36 44 51 55
45 48 50 50 51 49 48 50 51 39 32 29 28 31 32 34 36 37 40 43 46 52 52 45 39 19 18 26 31 21 18 10 18 14 20 11 13 16 16 20 32 29 36 38 45 50 53
45 44 45 45 48 50 48 42 43 32 30 29 27 29 31 33 34 37 40 42 46 51 49 39 27 18 21 19 24 16 13 4 14 5 3 9 17 18 32 24 36 39 42 43 44 46 39
43 39 49 45 42 40 41 38 31 29 23 23 28 28 30 29 31 35 38 42 46 46 38 30 21 18 16 12 19 13 6 5 8 11 4 12 8 24 21 33 36 42 39 40 42 41 36
41 39 41 38 36 34 33 31 26 21 23 25 26 27 26 27 30 33 37 41 43 40 32 22 15 19 19 17 13 9 5 0 13 12 4 7 6 14 22 25 26 32 31 23 24 24 20
37 35 38 34 33 32 30 26 23 24 24 25 24 23 23 24 28 31 34 39 38 29 21 16 15 17 20 20 9 7 10 2 5 12 15 6 1 9 25 19 20 18 18 28 24 16 15
34 36 35 33 32 30 28 25 27 21 23 23 24 21 21 22 25 29 32 36 32 20 17 14 11 13 15 17 21 18 12 5 2 8 16 22 3 18 11 21 21 20 22 25 22 22 12
36 32 33 34 32 30 27 29 27 22 22 21 21 19 19 21 23 26 30 31 24 15 14 14 10 8 10 12 17 21 18 11 6 8 12 18 18 10 13 9 16 20 21 25 25 26 21
35 36 34 36 33 30 33 30 27 24 24 21 19 17 17 19 20 22 27 24 14 13 14 14 11 6 7 10 12 13 13 22 12 9 12 14 15 20 10 14 19 22 22 20 23 19 21
40 37 37 37 35 36 34 31 26 27 24 22 19 17 15 16 15 18 22 16 11 12 14 14 13 9 8 11 13 15 11 11 17 9 7 14 14 15 9 13 20 21 19 21 24 27 17
35 36 40 41 38 36 33 32 28 26 24 18 18 16 14 12 11 14 16 11 10 13 13 12 11 10 12 13 13 19 22 15 8 18 20 12 20 10 12 10 13 15 24 25 24 20 26
36 36 40 43 37 37 34 31 32 27 24 19 20 17 13 9 7 9 9 9 8 7 7 9 11 13 15 16 19 21 22 24 15 14 21 22 10 11 5 11 3 11 18 19 14 17 21
37 37 40 42 38 34 37 33 28 28 24 21 19 18 12 9 7 4 4 4 5 6 7 9 9 9 12 14 16 18 21 26 26 17 16 16 13 12 10 12 6 12 7 7 9 9 10
39 38 40 41 40 36 39 35 24 28 25 20 19 17 14 11 10 11 8 9 9 7 6 9 10 11 13 15 16 6 5 12 15 16 17 16 12 13 11 8 8 14 12 13 15 23 25
33 38 37 39 39 35 36 34 30 27 25 21 20 20 17 15 13 14 13 13 11 10 10 10 11 12 13 14 8 4 4 7 11 5 8 14 16 14 11 11 11 12 13 14 16 19 18
34 35 34 35 35 37 35 33 33 31 25 22 22 23 19 18 14 14 15 16 16 15 14 14 13 13 14 13 7 6 4 5 6 11 10 10 10 14 15 14 15 19 14 16 19 20 22
34 35 35 37 36 34 37 34 29 26 23 24 24 24 22 21 16 15 15 15 17 18 17 16 16 14 13 11 5 3 4 4 5 10 2 9 15 16 14 16 19 18 18 18 21 25 28
36 33 32 33 31 30 28 28 25 25 24 23 27 27 25 21 17 17 15 14 16 17 17 17 18 17 14 11 6 6 5 6 9 5 5 7 10 11 13 17 19 23 25 22 20 29 26
40 36 34 31 30 28 27 28 27 27 26 27 31 30 26 20 20 18 18 15 15 16 18 16 16 16 15 11 11 7 11 6 8 10 14 13 12 10 8 10 9 20 19 23 27 19 33

GFSGBSN_500_spd_117.txt.gz
Wind_Speed
52 52 53 49 45 45 48 45 45 46 46 45 43 43 43 44 45 44 44 44 44 43 43 43 43 42 43 45 46 49 52 52 53 53 51 51 53 54 54 54 59 61 61 65 63 58 56
54 56 55 53 50 46 48 47 45 47 50 48 46 46 47 45 45 48 49 49 48 45 45 45 45 46 46 45 44 46 48 53 52 52 53 55 55 55 58 58 60 58 61 62 64 64 62
44 51 50 51 53 51 49 47 46 47 49 49 48 48 47 49 44 46 46 44 42 41 43 44 45 45 45 50 52 54 54 54 55 58 58 57 60 62 62 60 60 60 65 64 64 60 68
54 57 57 59 57 56 55 50 49 49 51 53 50 47 46 46 46 44 42 42 40 40 43 44 43 45 46 51 54 57 60 61 63 64 65 67 68 69 72 70 66 65 70 68 58 64 67
57 55 51 50 49 52 56 54 53 51 53 52 49 47 44 43 43 41 40 39 39 40 43 44 45 47 51 52 55 59 63 66 67 69 71 74 77 79 78 78 77 74 74 69 63 67 65
56 52 57 55 53 52 56 46 48 49 50 49 45 44 43 41 40 40 39 39 41 38 44 46 46 48 49 51 55 61 67 71 75 79 81 84 84 84 84 84 87 80 81 73 68 66 65
58 57 57 57 58 48 57 48 47 47 48 46 44 43 41 39 40 40 39 41 41 40 43 46 47 49 50 53 58 67 74 78 82 87 87 83 85 90 79 74 80 80 84 77 69 63 63
60 65 60 63 56 53 52 48 46 48 47 47 42 43 41 41 42 40 39 38 39 42 42 45 47 50 55 61 63 70 77 79 75 74 61 71 78 62 57 56 64 74 80 83 72 63 53
72 66 62 64 58 59 45 48 47 48 48 47 44 46 44 43 42 37 34 36 38 38 43 47 50 56 62 64 67 70 69 61 45 45 49 41 19 29 42 45 52 66 70 79 72 59 45
57 63 57 56 53 53 48 51 53 53 49 48 48 46 45 40 40 33 30 31 34 38 43 49 53 55 61 63 60 55 38 40 41 40 19 9 12 25 25 21 39 60 62 65 55 52 44
58 59 54 52 56 41 41 54 54 54 48 49 49 46 43 36 31 28 29 31 33 38 44 46 50 54 57 57 52 29 28 34 42 25 26 12 18 17 21 24 25 44 51 54 42 45 52
61 57 55 53 46 38 43 48 51 54 51 50 45 36 28 27 25 23 26 29 32 36 43 44 47 50 51 36 31 25 30 38 15 19 21 21 5 8 12 1 10 17 36 27 28 43 50
61 66 60 54 45 45 44 46 51 51 47 39 29 28 24 21 19 22 23 26 32 34 38 42 45 48 39 17 22 23 21 25 13 8 12 7 6 12 4 8 32 35 29 29 34 42 37
58 50 45 46 45 46 42 43 41 43 38 26 26 21 19 15 18 20 21 26 30 34 38 41 42 37 26 11 15 24 27 19 13 12 13 14 21 7 10 4 29 27 21 27 27 32 30
47 45 43 44 43 47 45 42 35 33 27 24 19 16 14 15 17 18 22 25 28 32 35 34 29 22 19 17 17 21 17 10 10 16 21 17 13 19 18 6 24 26 22 24 30 23 30
46 44 44 43 47 46 43 37 30 28 24 17 14 14 14 15 15 17 20 24 28 31 28 25 24 17 14 17 18 18 12 13 13 14 15 15 13 7 12 14 14 19 18 20 25 20 16
45 41 44 47 44 41 38 30 27 23 17 20 16 14 12 13 13 15 19 22 26 25 19 20 19 12 10 14 19 20 5 10 13 14 14 9 14 8 14 14 10 13 19 24 26 22 15
36 36 39 42 42 37 31 29 27 23 24 19 16 12 12 12 12 14 17 20 21 17 15 18 17 13 6 7 17 18 16 16 14 10 11 9 15 12 5 5 7 17 16 23 20 15 19
27 30 41 41 36 33 33 32 26 24 25 21 17 14 12 11 12 12 15 18 14 13 14 18 17 15 11 7 14 13 13 15 17 16 15 11 14 11 6 6 7 6 17 19 16 11 18
30 34 36 34 35 35 35 29 27 28 27 21 20 14 13 12 11 10 13 12 12 9 13 15 15 12 11 9 11 13 11 16 18 13 15 14 14 10 7 9 16 19 20 19 15 20 15
33 29 37 37 38 37 33 31 31 31 28 24 18 15 14 12 10 10 9 7 6 8 10 12 13 13 12 12 13 15 16 13 20 16 13 14 15 10 10 8 5 22 21 24 24 22 21
32 33 37 35 39 40 34 34 34 30 27 23 19 15 14 13 11 9 7 2 1 5 8 9 10 14 17 19 21 19 20 21 19 21 14 15 6 8 8 8 13 15 21 25 25 26 23
31 31 31 34 40 41 41 34 33 33 28 21 19 18 17 16 13 12 9 5 5 4 4 6 9 12 15 18 20 21 13 13 15 15 16 10 6 6 5 8 14 6 12 11 18 22 26
31 31 37 35 40 41 36 36 35 32 25 24 20 18 20 16 17 14 15 12 9 7 5 6 8 11 13 15 18 9 9 11 15 18 6 8 7 6 3 4 1 6 16 11 11 8 18
31 31 37 39 37 38 36 33 34 30 21 22 22 19 21 20 19 16 16 16 16 11 9 10 11 12 13 13 13 7 7 10 11 20 2 4 7 7 6 6 7 4 5 11 13 10 11
33 37 37 36 36 35 32 33 31 29 25 20 20 21 22 21 19 18 17 17 18 16 15 12 14 14 13 13 10 4 3 5 9 14 12 5 9 7 8 10 10 9 9 10 15 17 17
34 33 36 37 34 30 31 32 31 28 25 23 23 22 23 23 20 19 18 17 17 18 17 16 16 16 14 14 12 8 6 4 4 8 10 2 9 11 11 12 13 12 13 12 17 18 19
36 35 35 35 33 31 31 31 30 28 24 24 25 25 24 23 19 21 19 19 18 16 15 18 16 16 16 15 15 10 9 8 5 3 9 14 10 10 13 15 14 17 19 19 18 21 21
35 38 36 33 30 31 31 29 28 28 30 27 26 23 22 21 21 21 20 18 18 15 14 16 15 17 14 14 14 11 11 13 11 9 7 6 8 12 13 11 12 18 20 19 23 26 24

GFSGBSN_500_spd_120.txt.gz
Wind_Speed
43 43 42 46 47 48 49 49 47 46 43 41 41 42 42 44 45 43 43 44 44 42 42 43 44 44 42 41 42 45 45 46 47 48 49 49 50 52 54 56 56 60 57 54 58 57 56
46 45 45 43 41 39 44 49 49 47 47 44 43 41 43 46 47 46 46 47 47 46 44 44 46 47 45 45 43 44 46 46 44 46 49 51 53 55 58 58 61 59 61 62 59 57 58
52 50 45 48 43 42 39 40 46 48 46 46 44 43 44 44 44 48 47 47 49 46 42 45 47 44 42 42 44 43 42 46 49 49 49 51 54 57 60 62 62 64 67 65 64 59 58
59 54 53 50 51 46 42 48 48 49 52 51 50 47 45 47 48 50 48 45 47 45 44 43 44 40 41 41 43 45 45 46 48 51 55 56 56 60 63 65 68 72 74 73 62 64 60
63 60 56 53 51 50 48 46 48 46 48 49 48 50 54 52 50 48 48 46 43 43 42 40 39 39 40 41 43 46 48 49 52 55 58 62 64 67 71 79 78 77 85 84 73 67 68
66 63 60 57 54 50 54 53 53 54 47 48 48 48 51 51 48 48 44 41 40 39 37 38 37 39 40 43 48 49 51 53 56 59 63 70 74 78 81 84 87 84 88 87 87 76 77
70 61 64 56 50 52 56 49 48 52 51 43 43 47 50 48 47 44 40 39 38 37 35 36 38 39 41 45 49 50 54 57 60 65 71 77 81 83 89 85 81 84 87 89 87 79 81
77 71 65 59 61 54 52 51 53 53 50 55 47 47 49 48 48 41 39 38 38 37 36 36 37 40 41 42 45 50 54 58 64 68 74 79 77 73 75 71 59 59 66 73 77 77 76
80 73 65 62 52 62 64 60 53 50 46 43 44 46 49 49 47 42 39 39 37 36 34 37 38 36 40 44 48 55 58 61 67 70 70 69 59 57 47 32 39 40 40 48 65 63 67
73 70 62 59 57 61 67 63 53 54 45 43 43 50 48 51 51 45 41 39 35 33 32 33 33 39 42 45 49 57 62 64 63 53 50 51 37 38 34 41 44 43 36 38 53 56 52
69 62 53 56 59 62 52 49 44 44 41 41 41 45 47 50 54 46 39 37 29 27 30 32 35 38 43 47 52 58 62 53 41 37 28 14 22 32 31 33 40 38 32 29 37 42 36
64 67 60 53 65 54 48 37 39 36 39 37 41 45 39 44 48 41 32 24 19 22 26 28 33 37 42 47 53 57 45 28 25 25 16 17 26 32 29 26 28 23 15 14 22 35 46
46 46 65 54 54 51 43 40 33 37 40 42 41 42 33 37 40 27 19 15 18 19 24 27 31 35 41 46 45 35 25 25 27 15 17 22 24 31 23 19 9 9 13 19 27 33 31
45 42 44 56 54 51 45 44 38 39 46 48 37 35 31 31 25 19 11 13 13 18 21 26 29 36 39 38 27 20 25 23 21 22 20 27 20 15 13 15 3 12 17 19 18 18 21
54 54 47 45 40 48 47 46 40 46 46 41 35 30 26 23 18 11 12 11 13 17 20 24 29 31 31 25 15 13 17 19 21 23 23 25 15 17 19 14 4 14 9 16 8 16 16
51 38 30 26 42 43 43 48 40 41 40 35 33 27 22 18 13 12 11 10 12 15 18 22 25 26 24 14 12 15 18 20 18 24 26 21 23 22 5 9 10 7 8 9 9 3 13
34 38 38 37 40 42 40 39 39 39 35 33 27 22 18 15 13 11 9 9 11 14 17 19 21 22 20 9 7 13 18 18 17 19 25 19 20 18 5 9 8 15 11 7 7 6 9
39 39 39 40 39 41 40 39 38 35 31 30 25 20 17 15 13 11 10 7 9 11 12 13 15 18 14 9 5 9 10 18 13 16 15 18 14 16 12 8 5 10 15 19 17 10 2
33 35 37 39 37 40 38 38 36 32 32 28 25 21 19 16 15 12 9 8 8 8 6 7 11 14 14 10 9 9 12 16 18 16 13 13 16 14 7 17 6 15 12 14 13 11 7
31 33 34 33 35 37 37 36 36 34 31 28 26 21 19 16 15 13 11 8 6 4 1 5 8 12 12 13 11 9 12 15 17 18 14 16 14 16 10 16 13 7 21 15 12 12 6
28 27 30 32 35 36 38 39 37 33 29 29 24 22 20 16 17 15 11 8 7 6 2 3 6 8 9 11 14 17 18 18 21 20 17 13 12 12 4 10 8 11 17 16 15 12 7
30 30 32 27 26 39 40 35 35 31 30 28 25 22 21 18 18 15 12 10 9 6 2 3 3 5 9 12 15 18 15 11 13 14 10 6 7 4 3 5 10 11 16 19 20 17 22
33 32 27 30 37 38 38 40 35 32 33 30 26 22 21 20 19 18 16 12 12 8 6 3 1 3 6 10 14 17 12 14 16 24 10 7 7 6 7 6 12 8 8 17 19 21 22
32 28 31 32 36 37 41 40 36 36 34 32 25 22 23 22 22 20 17 16 13 11 10 6 6 5 6 8 12 12 10 10 15 19 15 9 11 10 8 5 1 4 10 22 13 12 11
28 30 33 30 39 37 40 41 41 38 35 30 24 23 22 22 23 18 18 19 20 17 13 10 11 9 9 9 11 14 11 10 11 13 10 2 10 10 10 10 3 4 2 9 10 6 1
31 33 35 33 35 37 37 35 35 34 34 27 22 26 23 22 21 21 21 22 19 20 17 18 15 13 12 11 11 11 11 11 10 13 12 1 3 7 10 11 12 10 10 6 7 9 10
30 30 31 35 37 36 33 29 32 30 30 23 23 20 22 23 21 23 24 21 19 17 17 18 18 16 15 14 13 12 12 11 7 4 6 4 6 9 11 12 12 13 13 12 12 10 12
34 33 34 34 37 35 32 29 29 29 27 23 23 23 22 20 23 25 22 22 20 17 16 15 16 16 16 13 14 13 12 12 10 10 8 9 10 6 9 14 14 12 16 17 18 18 15
35 36 35 33 34 34 33 29 29 31 30 25 24 23 23 24 25 25 22 21 21 17 16 14 13 14 14 15 15 14 12 13 14 13 11 7 6 6 9 9 9 12 13 17 20 18 19

GFSGBSN_500_spd_123.txt.gz
Wind_Speed
45 47 44 39 40 40 37 42 42 47 45 45 46 43 41 38 36 38 39 39 42 43 43 44 44 43 42 45 48 50 50 49 49 47 47 47 48 48 50 50 49 54 53 51 52 53 54
49 51 48 47 46 43 41 41 38 38 34 40 41 42 42 40 39 37 39 40 41 42 45 45 47 48 48 49 47 49 50 50 50 48 49 50 50 51 54 53 52 54 56 57 52 53 56
56 55 52 49 49 46 46 44 43 40 40 35 39 41 38 42 42 39 40 42 42 41 41 43 46 48 47 49 48 50 49 45 44 46 47 49 51 53 54 55 56 58 60 59 55 58 60
62 60 57 54 54 52 50 49 48 45 45 43 42 42 43 44 45 44 44 45 44 44 46 48 46 49 49 48 48 49 44 43 44 47 48 48 49 52 55 60 58 62 65 68 56 62 66
66 65 64 59 59 56 57 52 49 46 46 46 45 43 43 42 41 40 44 49 50 49 51 50 49 48 49 48 46 48 44 43 43 46 48 51 55 56 59 64 65 69 72 76 71 73 75
73 68 67 64 63 58 57 55 52 50 50 49 45 48 46 44 41 40 42 46 46 46 48 49 50 46 44 44 44 42 44 45 44 47 49 52 56 60 65 72 74 79 86 87 90 81 87
76 73 69 68 64 58 62 57 56 52 54 53 51 45 41 44 40 37 40 44 44 43 44 45 46 44 43 40 41 41 43 43 47 51 54 57 61 66 72 81 86 90 93 98 97 89 96
79 77 74 72 69 63 62 58 56 47 47 51 54 50 46 46 43 48 48 46 44 45 43 43 43 42 40 39 39 42 43 45 47 51 56 61 67 73 78 82 79 81 86 77 58 54 58
83 80 79 77 70 69 62 62 54 49 51 56 53 47 45 40 40 44 44 46 43 44 43 40 40 39 39 40 40 43 42 43 48 53 59 63 69 73 73 61 47 47 48 49 58 47 54
88 85 82 80 73 62 63 55 56 53 56 61 60 56 51 42 44 44 47 46 45 46 42 38 39 38 37 35 39 41 42 46 51 56 61 63 59 55 36 31 46 40 44 53 56 61 64
78 78 80 72 69 64 65 55 53 50 56 55 54 56 51 42 43 43 45 42 43 44 38 32 31 32 32 34 37 41 44 46 53 57 58 46 42 34 30 37 47 50 49 48 58 51 46
67 66 60 62 61 64 68 57 61 53 54 41 42 39 41 39 40 39 37 36 33 32 30 25 25 26 29 32 35 39 44 50 53 47 40 33 29 28 35 43 36 34 37 44 36 30 35
49 52 53 57 59 57 59 57 58 49 37 35 38 44 38 39 36 33 35 31 27 24 20 22 21 24 26 30 34 38 43 45 37 27 23 23 24 28 36 34 31 36 32 18 20 14 13
39 45 53 52 56 51 56 64 47 38 53 39 39 39 38 33 33 35 31 24 25 18 17 17 19 21 24 29 32 37 38 25 23 16 17 20 21 27 33 39 28 21 17 18 12 14 9
33 39 44 37 40 47 48 49 63 40 43 40 39 36 36 34 34 28 26 25 18 15 15 15 17 20 24 26 29 29 23 14 21 22 22 28 21 20 28 24 13 6 13 15 8 8 6
57 59 51 50 39 41 52 44 41 47 41 41 44 39 32 30 29 28 30 20 16 15 14 14 16 16 18 21 24 20 12 11 18 17 24 26 23 20 21 14 9 11 10 13 18 13 4
40 40 45 50 48 37 32 36 40 42 42 43 44 36 30 28 28 32 22 18 17 14 14 13 11 11 13 15 13 5 7 11 15 12 19 25 24 17 17 11 10 10 13 13 13 11 1
30 27 33 33 39 33 31 30 36 39 39 40 32 31 30 29 33 28 21 19 18 15 13 11 6 8 10 9 7 5 8 11 14 18 17 19 17 15 14 3 3 11 15 19 16 12 5
32 34 34 32 35 36 37 36 35 33 31 33 29 28 30 34 29 25 22 21 17 13 12 8 3 6 6 6 6 7 8 10 15 17 16 13 14 15 10 15 16 12 17 14 14 17 13
30 33 37 38 36 35 34 35 34 33 32 30 30 32 32 32 28 22 23 19 15 13 11 5 4 5 3 3 3 6 9 12 14 17 17 17 11 12 8 11 13 9 16 20 15 15 9
29 30 32 34 33 37 35 36 34 33 33 34 34 33 30 28 23 25 23 18 14 14 10 7 7 5 1 4 7 12 14 17 16 15 16 14 10 8 4 2 11 12 11 19 18 17 5
30 31 31 32 34 36 33 34 34 37 40 39 34 33 30 27 26 24 21 18 17 14 11 12 10 6 6 5 7 10 13 13 14 18 22 12 16 10 4 6 5 14 11 19 16 15 12
33 32 32 31 31 31 34 34 39 41 40 37 34 31 28 28 25 23 22 20 18 18 16 13 11 10 10 8 8 10 12 13 14 14 22 12 14 14 11 9 5 5 6 11 12 13 16
38 37 35 35 26 24 35 39 42 37 38 32 32 30 31 28 25 23 23 20 19 22 18 15 14 13 11 10 10 10 12 14 15 16 20 12 12 12 11 2 4 3 4 6 4 13 10
36 38 36 27 27 35 43 39 38 41 39 35 33 32 29 28 25 24 23 23 23 21 18 18 16 16 15 14 13 13 12 13 14 14 16 10 9 10 10 11 4 1 3 4 10 6 14
32 34 32 30 33 37 42 40 42 39 36 39 36 30 26 27 25 25 25 23 22 20 19 19 16 17 17 17 15 15 14 13 13 14 9 5 7 8 10 11 15 15 15 13 13 9 10
31 32 32 30 34 38 38 41 44 41 40 38 32 27 25 24 22 23 25 23 23 21 17 17 17 18 18 19 18 18 16 14 14 14 12 7 7 10 11 12 12 15 16 14 14 13 12
31 32 33 29 33 37 37 37 41 34 36 31 31 27 24 26 25 23 24 24 22 20 16 16 16 15 15 16 18 18 17 16 15 14 16 17 13 11 8 9 13 13 16 16 17 17 18
31 34 34 36 35 36 34 34 31 27 31 30 28 25 23 23 25 24 23 23 21 20 18 17 16 14 14 15 16 18 19 17 16 16 16 18 17 8 6 7 9 10 12 12 14 18 20

GFSGBSN_500_spd_126.txt.gz
Wind_Speed
49 46 44 42 40 40 38 35 32 33 35 38 41 42 42 43 41 39 38 36 32 33 36 35 37 39 41 43 45 48 48 48 48 50 50 51 51 53 51 51 48 51 52 50 53 53 52
52 49 49 47 46 44 42 38 36 38 38 36 36 39 38 38 39 35 37 39 36 33 34 35 38 40 41 43 44 45 46 48 51 52 48 48 48 50 54 50 51 52 54 56 55 56 58
59 57 55 53 51 48 47 45 40 40 40 41 42 40 39 41 37 36 38 37 38 38 36 36 38 40 40 41 43 44 46 48 49 50 52 50 48 49 50 49 52 54 57 56 56 59 59
67 65 63 61 59 55 53 51 47 44 43 44 42 43 42 42 41 36 38 40 39 40 40 39 40 42 43 45 46 48 50 50 50 51 51 50 50 48 48 51 54 58 58 60 60 60 61
73 69 72 67 66 64 58 56 54 51 49 46 47 46 45 43 40 41 40 41 38 39 36 39 42 43 47 47 47 48 50 49 50 50 49 48 49 49 50 54 56 56 60 62 62 64 69
78 73 73 73 71 68 62 60 58 59 54 51 50 49 48 48 45 41 42 41 35 34 33 34 39 42 44 46 46 44 44 44 44 45 46 46 48 49 52 55 58 61 63 66 66 68 78
82 79 78 78 77 73 69 68 59 53 48 55 54 52 50 50 50 46 43 38 37 34 38 36 36 41 44 45 46 44 43 41 41 43 43 44 47 51 54 57 61 66 73 77 77 79 87
84 85 83 82 81 78 76 72 66 63 65 56 54 51 52 54 52 45 42 40 42 40 44 47 40 42 45 44 44 44 42 41 40 41 44 47 49 53 57 62 66 70 77 77 78 75 80
89 89 89 88 85 82 79 77 72 66 56 54 60 52 52 52 45 41 39 40 43 44 44 43 42 43 43 42 42 43 40 38 37 40 43 47 51 56 61 67 70 69 60 55 58 60 54
88 85 87 90 88 84 81 78 73 67 66 62 52 56 58 55 47 51 48 45 46 50 47 44 45 45 42 43 41 40 36 35 38 40 43 48 53 57 61 63 60 55 43 49 52 58 62
68 72 76 84 86 82 80 73 68 67 62 53 53 58 56 49 49 53 52 50 46 49 43 40 41 40 38 38 36 33 34 34 36 40 44 50 54 55 53 43 36 33 39 40 44 22 33
56 60 63 66 70 69 65 67 61 61 64 61 51 51 48 55 51 54 58 54 47 42 43 36 36 33 32 30 29 30 31 32 34 40 45 47 45 40 37 30 33 34 39 40 25 32 35
51 55 55 52 57 56 59 58 59 58 54 58 58 56 41 41 46 49 44 45 38 39 38 37 33 29 30 27 26 27 29 32 36 40 41 27 23 28 28 24 32 38 37 24 22 33 31
45 51 51 52 54 50 49 49 50 53 54 55 52 44 47 46 49 42 43 37 35 38 33 31 23 22 21 23 23 25 28 33 37 37 30 15 23 24 19 26 28 33 26 26 32 35 27
28 45 39 42 51 56 42 49 46 50 51 57 67 56 48 47 38 39 37 37 35 30 31 26 24 17 20 20 22 25 27 30 29 21 15 15 21 21 16 20 24 25 24 23 32 34 34
43 49 43 41 32 44 53 42 49 50 44 38 47 43 41 44 46 39 36 36 30 31 27 23 17 18 18 20 20 21 22 19 13 15 13 15 14 17 11 16 19 19 22 22 27 37 31
37 54 62 63 50 47 44 43 39 42 47 48 44 49 46 47 40 35 36 31 31 29 24 18 18 16 18 17 16 15 13 10 9 14 16 17 16 17 16 15 12 16 17 21 24 29 30
22 33 37 45 52 50 50 49 35 36 44 45 52 49 49 46 40 35 30 29 30 25 20 20 17 16 15 13 10 8 8 10 10 15 22 20 19 15 13 6 15 16 19 19 21 20 26
28 26 24 28 36 35 42 38 34 30 30 33 39 43 41 36 33 29 30 33 30 22 21 18 17 15 13 8 4 3 5 8 12 19 27 25 22 15 15 12 13 20 23 14 18 20 18
27 31 32 32 35 33 32 33 32 30 27 28 33 37 35 33 29 28 33 32 28 23 21 18 18 16 12 8 2 1 6 10 12 14 15 15 21 19 12 14 10 17 15 13 14 17 17
27 29 34 35 34 34 34 35 35 33 30 27 28 29 29 29 31 34 36 32 24 22 20 20 19 16 12 7 4 6 9 12 16 18 19 20 22 19 12 9 12 19 13 15 12 12 17
27 29 29 31 32 36 36 35 33 30 28 28 29 32 31 31 32 35 34 28 22 21 22 21 19 16 12 6 7 9 11 15 17 19 21 25 23 16 17 7 5 15 16 16 17 11 12
28 30 31 32 32 33 33 33 30 28 31 28 31 34 32 30 33 32 27 23 22 24 22 22 21 16 11 8 11 11 12 13 15 17 18 22 16 10 18 9 2 4 8 7 5 4 6
30 32 34 33 34 32 33 32 30 31 33 35 38 36 34 32 34 27 26 24 24 25 24 24 20 17 13 12 12 11 13 15 17 18 18 19 13 7 11 4 9 8 8 7 3 5 4
30 33 36 34 30 30 28 31 32 35 37 40 39 35 32 30 28 28 25 28 28 25 27 24 19 17 15 15 13 13 15 17 18 17 17 16 13 7 7 11 6 5 6 5 3 5 6
31 35 37 36 32 27 27 30 36 38 40 41 36 35 29 29 26 26 26 28 24 24 23 22 20 18 18 18 15 17 18 20 20 18 14 11 11 10 8 13 18 15 13 12 13 10 9
33 35 40 34 31 31 30 36 36 36 39 39 33 31 30 25 26 27 26 25 26 22 21 22 21 20 20 19 17 19 20 21 19 19 18 15 11 11 12 11 15 19 19 18 14 13 11
32 32 34 34 32 34 33 36 35 36 41 38 37 34 28 24 24 27 26 26 23 21 20 18 17 16 15 14 14 16 18 19 19 18 17 18 17 15 13 13 11 12 14 17 16 15 16
31 32 35 33 33 33 35 41 38 38 38 36 35 31 26 24 24 26 22 22 23 22 21 18 16 15 13 12 13 14 16 17 18 18 19 19 18 17 15 11 12 13 12 13 14 16 15